GFSCGP_850_rhum_000.txt.gz
RH
8 8 9 9 9 10 11 14 14 13 18 24 22 22 22 34 33 32 37 43 44 44 48 55 64 68 71 76 86 93 93 95 98 95 90 87 80 83 87 83 87 82 92 83
8 8 6 6 8 10 11 13 14 13 19 21 19 22 21 24 34 31 33 39 44 44 46 56 63 64 66 75 83 92 96 96 91 93 89 79 82 75 85 84 96 97 98 91
9 6 5 6 7 10 12 13 14 16 21 21 19 24 21 19 28 33 32 33 39 43 45 51 57 60 63 70 82 89 94 96 92 82 92 96 90 88 91 88 95 95 90 92
7 5 6 7 9 9 13 10 12 15 20 25 20 23 17 17 25 29 34 34 33 40 45 47 53 58 61 65 75 87 92 91 94 84 88 88 82 72 66 71 70 85 96 95
9 6 7 7 7 7 11 9 11 13 17 20 22 25 17 18 20 23 28 32 31 32 40 46 50 53 58 63 69 78 78 68 82 93 88 90 92 70 70 73 88 94 84 88
9 6 6 6 5 7 8 11 12 13 14 22 19 20 17 15 18 15 18 26 30 30 33 41 46 49 55 59 65 72 72 58 68 92 96 94 87 83 70 80 79 76 77 89
10 8 6 4 7 6 9 13 20 21 20 21 16 19 17 11 10 11 10 16 28 29 31 36 43 47 53 57 62 69 67 54 60 73 92 92 97 94 90 88 80 70 71 74
14 12 8 6 6 8 10 11 16 24 19 17 15 20 15 11 10 9 9 13 22 28 28 32 38 43 50 55 60 66 70 54 56 61 62 67 85 91 88 85 75 74 71 68
12 13 7 6 6 6 10 12 10 13 12 13 11 15 11 10 12 11 12 16 18 25 27 28 34 40 45 52 59 58 57 54 54 67 57 56 64 75 81 82 92 82 83 69
12 15 9 7 6 6 7 8 13 13 23 21 15 14 15 13 10 8 11 15 18 23 26 25 29 34 40 46 51 54 51 52 57 65 54 50 59 59 80 90 89 67 76 61
11 13 10 9 8 7 8 9 12 11 13 17 19 14 10 11 11 10 8 14 15 19 26 27 26 30 38 40 45 52 62 62 52 57 45 40 67 78 73 92 61 49 43 24
12 13 16 9 6 5 6 9 11 14 21 14 14 12 7 8 8 8 7 7 8 16 22 28 28 30 34 39 39 44 52 62 63 42 35 44 74 80 88 82 48 23 48 17
12 15 19 16 7 6 7 7 9 10 12 19 17 14 7 8 9 8 13 12 13 22 25 29 30 33 36 38 41 43 50 53 58 65 71 61 60 75 92 51 23 22 35 15
17 12 16 15 14 8 9 7 7 8 12 14 13 12 10 8 10 8 9 13 16 26 29 33 33 37 40 40 45 47 47 51 55 59 71 79 81 90 89 52 28 22 32 17
24 27 17 13 11 9 9 7 7 8 8 13 11 11 10 10 9 8 7 8 15 27 32 36 37 42 47 48 49 55 54 56 56 62 66 78 93 99 80 46 42 43 36 24
16 29 23 21 14 12 12 10 7 7 7 8 8 10 7 7 8 7 7 7 14 26 30 36 41 44 52 54 58 60 63 62 67 70 75 80 98 98 70 60 56 63 51 41
23 25 32 28 17 16 18 13 10 8 6 7 9 8 7 7 8 9 8 12 15 23 28 34 40 43 50 56 63 65 69 69 73 81 83 93 94 80 73 72 75 71 71 66
30 36 30 29 28 33 14 10 10 8 6 7 8 8 8 8 10 12 14 11 15 22 27 34 35 43 53 52 56 59 53 39 69 75 90 97 78 71 71 76 82 84 81 72
24 31 30 31 28 22 19 17 12 11 10 6 9 10 10 11 17 24 26 25 22 25 30 36 38 48 48 47 45 32 39 43 65 81 84 62 61 71 79 83 80 91 92 94
23 29 30 30 33 35 34 38 38 34 27 9 8 11 11 16 20 10 33 28 25 30 34 39 40 45 47 33 25 26 49 42 39 32 40 43 59 72 78 81 85 94 100 99
36 36 29 30 37 31 43 38 36 42 22 9 16 19 20 22 26 40 38 37 35 39 45 46 46 42 26 25 43 52 53 42 28 30 35 46 62 81 85 91 74 99 99 100
42 39 29 34 45 42 45 34 48 47 40 36 34 31 30 40 43 45 45 47 47 44 40 37 41 38 48 45 41 28 33 28 32 47 46 63 85 88 98 89 96 98 97 98
33 27 28 34 29 54 49 56 50 43 41 38 38 39 39 37 40 41 40 39 38 35 34 38 47 56 51 39 55 46 29 26 34 42 61 80 89 98 96 91 99 99 100 99
35 30 36 48 49 50 54 54 48 43 40 39 39 34 36 37 37 40 42 44 49 51 48 47 49 46 26 25 26 25 29 36 47 53 66 71 97 99 99 99 98 96 97 97
50 45 46 49 59 46 53 56 54 49 48 46 44 43 44 49 52 60 62 58 59 62 60 55 55 63 37 34 35 39 46 56 62 68 82 99 100 99 99 99 98 96 89 85
88 81 49 45 63 73 68 57 53 48 44 45 45 46 49 49 52 68 72 73 80 71 74 74 75 73 70 55 57 70 69 89 99 98 99 100 98 99 97 96 89 86 80 66

GFSCGP_850_rhum_003.txt.gz
RH
8 7 8 8 9 9 10 11 11 10 10 14 17 16 18 20 21 20 20 23 28 32 36 40 47 50 54 60 71 80 86 87 91 95 95 90 89 80 75 70 88 100 94 95
7 8 6 7 8 9 9 10 12 10 11 12 15 17 14 20 21 21 21 22 24 28 31 40 46 49 52 61 69 78 87 89 90 95 90 81 74 70 64 70 76 89 87 90
6 5 5 6 8 10 10 10 11 11 16 15 14 18 15 15 20 23 21 21 23 25 27 36 43 48 52 59 68 76 83 86 86 85 85 84 82 71 76 69 83 90 93 94
7 4 5 6 8 8 11 9 10 10 17 22 13 21 17 14 16 21 22 22 22 24 26 30 42 48 50 55 67 73 80 82 88 86 82 80 78 69 59 59 61 73 96 92
7 6 6 6 6 7 9 7 10 10 13 27 14 16 17 13 15 17 20 22 22 22 26 29 36 44 48 51 60 72 80 84 85 87 81 81 78 60 60 55 63 76 91 90
6 5 4 5 5 6 7 8 10 10 12 17 15 17 18 18 14 13 14 20 23 23 24 30 33 39 45 49 56 65 78 82 82 89 79 77 79 67 57 59 71 73 74 85
8 6 5 4 6 6 7 10 14 16 16 16 12 17 29 13 10 11 10 12 18 23 24 26 34 37 43 48 53 60 71 81 82 91 87 78 83 77 78 77 75 68 64 67
10 11 7 5 5 6 8 9 13 22 18 15 12 16 13 10 9 8 9 8 12 20 24 24 30 37 42 47 53 59 66 80 76 86 83 86 84 82 74 78 70 72 67 67
9 11 6 5 4 5 7 9 8 11 11 13 11 11 9 10 10 9 9 8 8 15 21 24 26 34 39 44 50 57 63 70 73 80 83 81 86 82 72 70 71 78 73 67
8 11 7 5 5 4 5 6 10 10 21 19 12 12 12 12 11 9 9 8 9 11 20 22 24 30 36 41 47 56 63 70 69 77 80 85 91 90 86 80 81 73 75 72
7 9 9 7 7 7 6 6 8 9 11 15 16 13 8 10 11 10 9 8 8 11 17 22 23 26 32 36 41 49 57 65 69 72 73 76 84 88 88 86 80 82 78 88
8 9 13 10 6 5 5 6 6 12 18 12 12 11 7 7 8 8 8 8 8 10 15 19 21 23 28 33 35 40 47 54 66 69 69 74 77 82 87 86 86 68 38 24
8 12 15 14 9 7 7 6 5 6 9 18 15 12 7 7 7 8 8 8 7 10 13 17 20 21 25 30 33 33 41 43 52 64 70 75 75 76 81 82 74 42 32 22
13 11 14 14 14 7 8 7 5 6 9 11 11 12 10 9 9 8 8 8 9 9 18 17 20 21 23 27 32 33 35 36 44 55 60 68 74 79 81 75 56 40 16 13
12 17 13 11 10 9 7 6 5 6 7 10 10 10 10 10 9 8 7 8 8 8 15 22 23 24 26 27 32 35 34 37 41 50 58 63 74 80 82 80 60 47 23 8
12 20 16 14 10 9 10 8 6 6 6 6 7 9 7 7 8 8 7 8 7 7 8 21 27 27 32 32 35 39 39 40 45 53 57 64 75 86 84 82 77 70 47 29
19 20 26 26 16 15 16 11 9 8 7 6 8 7 6 8 9 9 8 8 8 8 8 14 26 31 34 37 42 42 47 45 50 53 61 66 79 80 85 87 86 74 63 54
18 22 20 23 22 29 15 14 10 10 9 7 7 6 6 9 8 7 7 7 8 8 8 11 22 31 37 40 43 46 54 55 57 63 69 73 78 81 86 85 76 80 76 68
18 22 25 27 27 32 23 24 23 28 20 9 9 7 6 6 6 8 6 7 7 8 9 14 25 31 40 42 46 52 60 66 69 77 76 83 87 80 71 69 68 77 85 93
17 23 28 28 31 30 17 27 25 21 25 11 10 10 6 6 11 10 8 13 17 16 12 18 29 33 46 46 52 58 62 68 70 79 81 88 66 54 53 54 65 94 99 100
19 22 27 28 29 21 30 26 26 32 28 35 30 25 16 8 9 24 25 21 23 19 24 34 34 45 50 47 51 59 60 66 70 74 81 92 67 60 64 79 98 98 98 99
21 25 24 24 28 29 29 26 31 41 35 33 32 29 26 8 22 33 34 32 28 28 34 38 43 48 49 49 54 56 58 57 66 72 90 77 71 80 94 97 98 98 96 93
21 19 22 20 24 41 37 38 40 37 34 34 32 28 27 31 34 37 39 42 42 43 42 43 47 47 48 52 55 61 67 70 79 91 86 77 99 98 98 96 90 93 96 99
28 18 22 27 43 43 40 40 37 36 37 34 34 33 34 36 38 37 36 34 34 37 42 46 49 56 63 59 64 78 88 92 96 94 76 90 99 99 98 96 92 97 96 96
81 42 30 46 47 46 48 48 48 45 41 40 48 49 48 43 44 48 52 49 47 46 46 50 59 68 75 83 92 92 96 98 94 98 99 98 98 99 99 100 97 96 95 89
91 93 59 41 44 47 48 46 44 44 45 44 45 49 52 57 64 68 66 61 60 60 61 63 65 72 80 86 92 96 99 98 98 99 99 99 99 100 94 93 96 95 88 83

GFSCGP_850_rhum_006.txt.gz
RH
10 10 11 10 9 9 8 10 10 10 12 12 17 54 60 34 21 17 20 20 24 29 32 35 41 44 48 54 61 67 73 74 80 88 89 86 79 72 72 64 66 79 75 77
8 10 7 7 8 9 10 10 11 9 12 13 13 35 37 28 19 18 17 19 21 23 28 34 40 42 47 52 59 67 75 78 77 86 87 84 72 64 71 77 73 62 77 71
9 6 5 6 8 10 10 10 11 10 11 11 12 15 19 19 16 16 17 18 19 22 24 33 37 42 45 51 57 63 72 81 81 81 86 80 87 88 78 73 71 71 80 74
8 6 5 5 8 8 11 8 9 9 14 19 14 22 24 19 20 19 17 18 18 20 23 26 36 42 45 49 53 63 71 76 80 78 88 74 76 83 73 66 65 61 69 76
7 7 6 5 6 7 9 8 8 9 11 18 19 22 19 20 21 21 18 18 18 19 21 24 34 39 44 48 56 62 69 76 78 77 86 85 81 65 57 54 57 63 74 84
7 5 5 4 4 5 6 8 8 8 10 17 15 20 19 18 21 17 17 18 18 19 21 23 28 36 42 46 56 61 71 82 78 82 78 83 85 69 61 63 63 67 78 78
8 7 5 4 5 4 6 8 14 15 15 16 12 20 22 17 16 14 24 21 18 19 20 22 26 35 42 46 52 63 68 80 78 80 80 74 84 61 66 60 64 73 71 74
11 10 6 4 5 6 6 7 13 22 18 15 12 15 15 15 14 15 19 28 16 19 20 22 26 31 41 45 48 58 70 70 76 76 77 75 69 59 58 72 61 72 67 65
8 10 6 5 5 4 6 8 7 11 10 13 11 10 8 9 14 17 13 10 11 17 20 21 24 31 37 44 47 54 65 71 76 76 81 72 65 58 55 72 72 75 65 64
8 11 6 6 5 5 5 5 8 9 19 21 13 15 14 13 14 16 16 14 9 10 18 21 23 30 35 42 47 53 60 69 79 78 77 77 66 62 54 68 69 68 78 68
7 9 8 7 8 7 6 6 6 7 10 15 19 15 10 16 15 15 13 10 8 8 17 18 22 25 34 41 47 52 59 68 83 87 82 74 69 46 60 70 73 70 69 74
7 8 12 9 6 5 6 7 7 10 17 11 13 13 7 12 11 10 10 9 8 8 10 15 20 24 30 38 44 50 57 66 79 84 82 69 53 57 50 63 70 70 74 73
7 10 15 12 8 7 7 6 6 6 8 16 15 13 8 10 12 12 10 9 10 9 12 14 19 24 27 34 38 45 54 62 74 82 76 75 68 61 50 33 54 70 69 63
9 10 15 13 13 9 10 7 7 7 8 10 10 13 11 12 13 11 10 9 9 8 15 16 17 22 24 30 36 42 49 56 64 77 75 77 75 56 44 36 27 48 60 62
9 17 13 10 9 9 9 8 7 8 9 11 9 10 12 12 13 13 9 9 9 9 15 15 17 18 23 27 34 37 41 47 51 61 72 76 72 64 64 61 34 51 66 72
8 18 16 15 10 10 11 9 7 7 8 8 8 8 6 8 8 13 10 10 10 9 9 18 16 19 22 26 30 36 36 40 42 47 61 65 71 76 78 71 71 83 87 95
14 13 22 22 13 12 14 11 9 8 6 7 9 9 8 9 11 12 13 11 11 10 9 10 21 21 23 28 27 35 36 37 39 41 52 52 61 69 72 73 81 86 90 94
18 21 19 22 21 27 12 8 8 9 8 6 7 8 8 10 8 7 7 8 9 10 9 8 8 22 26 30 34 36 40 37 37 39 47 51 56 66 69 74 81 85 92 98
15 22 24 28 27 21 16 12 13 13 14 10 9 10 7 6 6 8 6 6 7 6 11 9 7 9 21 30 33 37 42 39 40 41 52 55 65 79 75 81 85 89 99 100
16 28 26 27 30 34 23 20 18 19 26 23 24 23 19 14 11 9 6 7 7 6 7 10 11 11 22 31 36 39 44 48 45 47 55 68 73 77 76 78 83 93 99 98
26 30 30 28 28 21 29 24 20 32 29 30 28 28 26 25 23 24 22 19 20 9 8 10 16 26 28 34 41 44 48 58 56 61 74 79 85 79 73 78 82 93 95 97
29 26 28 31 37 42 23 33 36 35 30 28 27 27 25 24 23 18 24 26 18 27 22 24 31 32 39 45 47 56 61 69 72 78 89 91 86 84 88 88 96 95 98 97
26 20 22 24 25 26 29 37 34 30 31 34 36 30 25 22 22 29 31 34 34 31 30 37 48 54 54 52 56 64 68 75 81 83 88 92 83 72 85 86 98 98 98 94
22 46 25 26 25 31 31 30 31 32 49 54 62 66 55 37 32 33 35 38 40 42 43 47 53 56 60 62 66 70 70 74 76 83 76 74 78 90 90 91 94 96 94 92
84 72 66 32 46 43 42 40 40 45 49 54 63 66 72 82 84 68 57 53 50 50 52 60 63 68 69 75 79 82 84 83 72 67 78 83 97 93 93 99 100 96 92 91
83 93 96 85 47 50 49 46 44 41 41 43 50 55 61 59 68 74 68 61 61 63 66 70 76 80 77 80 83 86 81 77 72 90 92 98 97 97 99 99 99 99 91 92

GFSCGP_850_rhum_009.txt.gz
RH
10 16 16 13 10 10 11 12 12 11 13 17 32 36 31 21 22 26 31 32 34 37 37 42 45 46 48 50 56 57 62 66 75 74 76 75 72 76 75 70 69 67 75 70
12 16 13 11 10 9 10 12 13 11 13 17 34 33 25 20 20 21 25 31 33 35 35 38 42 46 48 51 53 57 60 63 78 78 77 76 69 78 70 69 62 68 68 72
13 13 11 10 11 12 11 13 13 13 12 15 32 43 38 26 21 22 24 26 30 32 35 35 40 42 46 49 53 56 59 64 72 81 83 85 78 75 72 71 71 82 76 76
12 10 10 10 9 9 15 10 11 11 13 21 20 36 46 33 36 37 29 22 26 30 32 33 38 41 45 46 48 53 57 62 69 76 81 82 70 65 70 75 71 75 69 71
10 11 11 10 7 7 12 10 11 11 13 24 21 26 32 34 41 44 32 21 22 24 28 33 36 38 42 45 46 50 54 61 66 73 76 77 74 67 72 77 76 65 67 78
11 8 7 9 7 6 6 10 11 12 14 19 23 23 30 31 40 43 25 20 20 21 24 25 31 36 40 43 47 49 53 58 63 70 76 74 75 67 71 71 62 68 73 72
9 9 8 6 8 7 6 10 16 19 20 23 16 24 31 19 20 21 22 20 20 20 23 25 34 39 40 43 47 50 52 55 61 69 72 73 80 73 48 52 58 63 70 72
14 14 9 8 7 8 7 8 13 26 24 20 16 18 18 16 18 17 20 20 20 19 22 24 24 34 40 42 46 50 52 54 60 68 72 74 75 69 52 66 74 69 64 67
12 13 9 8 7 6 8 9 7 12 17 23 16 14 12 17 17 17 18 20 18 18 20 24 24 30 38 42 43 47 55 56 58 64 71 67 76 69 58 61 73 79 71 69
12 19 10 8 7 6 6 7 10 9 16 21 16 19 20 18 20 22 23 21 17 16 20 23 25 27 34 38 39 44 51 56 57 62 68 64 62 66 61 56 64 74 75 66
8 11 11 11 10 8 8 8 8 10 10 16 22 18 14 18 24 24 20 18 18 15 17 22 23 25 29 39 40 43 50 58 62 59 63 66 56 63 63 55 54 65 75 76
9 11 14 12 9 7 7 10 8 15 16 18 14 14 12 9 18 19 18 16 11 12 19 23 23 30 34 38 42 43 47 52 60 60 61 61 59 55 66 54 53 55 66 71
10 11 16 16 11 9 9 8 9 7 14 17 26 15 8 7 11 10 12 14 13 11 20 23 24 31 35 36 41 46 48 49 54 59 61 61 60 53 59 55 53 47 58 66
20 12 13 16 16 12 16 9 8 8 10 10 10 10 12 12 18 18 14 11 9 11 14 22 26 27 34 35 39 47 52 48 50 56 60 61 58 46 42 40 41 54 56 67
15 15 12 13 12 11 9 11 9 10 9 12 10 9 10 10 21 22 13 13 10 11 16 19 23 25 25 33 39 45 50 50 47 55 61 57 50 52 44 50 43 42 62 68
28 28 24 22 14 11 11 10 11 8 8 9 9 10 11 10 8 18 16 10 8 11 14 14 18 21 24 29 35 41 48 51 46 50 54 57 58 60 60 56 45 53 60 68
34 36 34 23 19 18 18 11 11 13 8 9 11 9 10 11 13 16 14 13 9 9 15 16 16 19 21 22 24 35 39 45 47 43 49 52 56 61 64 72 70 71 77 90
31 33 37 25 28 36 20 14 12 13 13 10 11 13 15 15 9 9 8 7 10 12 10 14 10 14 18 23 24 24 34 44 46 43 43 48 51 54 63 70 75 81 86 90
23 28 37 33 32 24 21 16 15 16 16 16 32 30 21 17 12 10 6 6 6 9 11 9 12 11 10 19 24 26 36 40 43 45 39 43 43 47 61 72 74 85 92 95
20 31 40 32 33 33 21 20 22 20 38 36 38 39 35 30 35 27 18 22 11 8 6 9 7 8 13 17 23 30 30 40 40 41 39 39 46 48 64 77 74 85 80 74
39 37 40 42 29 29 36 33 22 38 52 36 32 32 34 38 38 24 18 22 20 18 11 10 6 7 9 15 24 31 32 36 33 38 46 44 48 58 69 75 74 69 70 70
69 79 42 45 42 40 40 35 36 58 44 46 48 46 32 27 24 22 22 24 25 23 17 20 16 10 9 16 25 33 36 38 48 49 50 56 59 69 74 69 64 65 72 85
68 69 72 42 50 50 36 43 43 50 70 70 66 70 46 50 63 52 37 32 32 30 25 24 28 27 21 22 30 38 45 50 53 54 63 76 78 86 91 63 63 82 83 99
50 70 52 59 33 42 45 32 64 47 64 70 76 73 60 70 63 65 55 47 45 43 45 40 43 53 54 48 45 44 52 61 63 64 81 92 91 88 88 86 74 73 93 96
87 82 85 78 63 67 75 71 63 65 66 64 64 61 64 64 71 68 65 62 65 68 59 57 56 57 63 64 64 65 70 73 75 78 74 76 86 96 96 83 90 93 95 93
86 94 97 97 94 94 65 47 51 54 54 52 52 55 51 55 68 66 64 67 76 70 98 67 73 77 79 74 75 77 76 73 72 68 77 85 96 79 80 87 96 98 92 88

GFSCGP_850_rhum_012.txt.gz
RH
12 18 21 18 16 13 14 15 16 13 12 24 27 27 26 37 45 48 50 50 49 47 52 54 50 52 55 56 57 64 67 65 70 73 74 70 66 73 71 69 73 73 76 76
15 18 16 15 13 12 12 13 14 13 12 20 31 27 26 31 35 41 44 47 49 49 46 46 48 47 50 53 54 59 61 66 65 66 73 67 65 67 59 64 74 70 71 71
16 15 12 14 14 14 12 13 12 15 13 19 33 36 32 27 28 32 37 40 44 46 47 44 45 45 45 50 53 55 56 58 64 67 73 76 75 64 67 69 73 70 68 67
17 12 13 13 15 14 19 12 11 12 16 21 26 41 44 36 32 30 33 35 38 41 42 40 44 45 45 46 48 53 55 57 59 63 68 78 76 69 66 68 73 69 76 77
16 13 12 16 14 12 14 11 14 13 16 19 22 37 37 37 38 41 32 31 34 36 38 40 38 41 44 45 47 49 53 55 56 61 65 72 76 70 58 62 67 73 72 76
14 9 12 12 11 11 10 10 14 16 17 27 29 31 34 48 32 31 26 29 29 34 36 36 33 36 42 43 44 46 50 54 56 60 64 67 67 68 66 66 74 75 74 74
15 15 11 9 12 11 10 12 16 20 21 26 18 30 27 28 28 26 24 25 26 29 33 35 38 42 43 45 43 46 48 53 56 58 60 63 66 67 64 64 72 74 77 74
19 19 11 9 11 12 13 10 14 21 25 23 18 27 24 24 22 24 22 23 26 25 29 32 32 34 38 42 43 44 46 49 54 57 59 61 65 68 66 64 73 76 66 62
18 15 10 8 8 10 12 12 8 15 20 25 21 17 15 16 23 25 25 27 26 23 24 28 29 30 37 42 40 43 44 46 49 52 54 59 62 62 67 64 61 61 57 60
11 17 12 8 8 8 10 9 11 16 16 17 17 20 18 16 17 26 24 26 24 23 23 24 26 28 36 37 36 39 41 44 45 48 51 56 60 58 65 65 57 63 67 70
8 15 12 11 11 13 12 11 12 11 12 14 22 14 13 16 18 24 25 23 22 23 23 22 25 30 30 37 42 38 40 44 47 48 50 54 60 61 62 63 61 62 76 78
10 10 14 13 11 10 10 10 11 11 15 15 10 11 10 13 14 24 24 21 22 22 22 20 21 26 37 37 44 39 38 41 45 45 49 53 56 61 59 59 57 57 68 75
30 15 17 16 12 12 13 10 9 14 14 12 19 14 10 10 10 16 19 20 20 22 22 23 23 26 30 35 41 42 37 36 41 46 50 52 54 60 59 50 54 51 57 65
35 28 17 16 13 12 14 12 10 9 11 12 12 13 10 10 12 18 18 16 16 15 14 14 24 25 29 31 41 41 38 36 38 43 51 51 51 54 56 52 44 48 49 57
49 50 25 26 15 11 12 13 11 11 9 10 9 12 11 10 12 10 6 16 16 14 14 12 25 28 26 32 40 39 36 37 38 40 45 48 48 51 55 54 44 42 48 52
51 51 42 37 20 11 12 12 11 12 10 10 10 10 10 8 7 13 11 10 15 15 14 12 21 24 26 28 31 34 39 37 39 42 40 42 46 51 53 54 52 41 44 53
57 51 47 52 27 15 18 12 12 11 11 10 12 10 13 12 14 15 9 9 11 17 11 19 21 22 25 28 27 36 35 37 44 40 41 44 44 46 49 53 57 52 47 54
51 49 47 50 40 30 17 11 11 12 13 13 9 10 11 10 6 6 7 7 8 11 20 11 24 29 24 24 24 23 32 38 42 42 41 42 43 43 48 54 53 60 64 68
32 43 46 53 49 29 18 18 17 15 16 25 17 20 14 11 12 17 11 8 6 9 11 15 16 20 26 21 22 27 38 42 45 47 42 40 43 46 51 54 52 58 69 78
41 29 36 40 43 40 20 20 23 24 60 42 40 38 31 25 18 30 20 15 7 4 6 10 10 9 11 25 21 22 30 34 39 39 36 35 40 46 49 52 61 62 64 68
78 80 46 45 50 38 48 46 25 34 41 38 39 39 37 43 37 25 21 18 16 10 7 5 9 10 8 10 25 25 26 32 23 23 30 47 46 46 44 54 73 66 63 77
91 91 80 55 71 70 35 44 29 49 72 62 56 55 62 56 38 38 26 26 22 18 16 14 9 8 6 9 8 17 24 20 21 32 48 59 56 54 56 62 80 70 66 70
92 88 76 58 84 57 46 64 77 72 73 82 70 62 51 50 52 44 44 44 42 32 25 20 17 15 9 10 11 12 16 20 32 46 54 58 64 60 61 70 82 71 71 67
83 84 71 65 60 80 98 81 73 76 78 74 66 64 58 60 69 63 55 49 47 59 72 79 69 56 22 14 16 28 16 20 35 45 52 57 62 67 72 81 74 65 71 66
84 86 87 78 76 85 79 88 72 70 68 68 69 68 67 67 72 72 74 74 78 80 74 71 68 85 95 94 26 38 44 46 47 47 58 73 81 79 89 91 78 69 62 67
86 98 99 98 97 99 89 90 61 62 65 55 48 53 67 67 73 69 69 64 57 58 56 57 47 42 39 66 86 54 53 50 53 73 81 80 80 86 100 100 95 92 85 87

GFSCGP_850_rhum_015.txt.gz
RH
18 25 28 21 18 16 15 15 17 15 13 22 29 36 55 54 57 63 65 66 70 71 57 59 58 57 55 58 60 62 67 70 70 69 72 73 71 83 82 74 69 71 69 75
18 23 21 18 18 17 16 16 16 14 13 18 28 34 50 51 53 57 62 65 68 68 71 62 59 58 51 52 58 60 64 67 69 68 67 67 68 70 75 75 69 68 76 74
19 17 15 17 18 17 17 18 15 15 15 16 32 39 40 51 48 50 52 55 60 61 65 65 58 58 55 55 55 56 58 64 67 66 70 71 73 71 71 75 74 71 76 76
18 13 15 16 17 18 23 15 13 13 16 20 29 47 44 42 54 50 50 52 52 53 55 55 57 56 52 50 51 54 56 60 65 65 69 69 69 68 64 66 67 68 75 74
20 17 16 17 15 16 17 13 15 16 17 18 20 34 34 38 45 44 43 46 50 51 50 52 50 49 49 46 46 49 53 55 59 66 67 65 66 71 67 58 61 68 73 71
16 13 14 15 13 13 13 13 13 18 22 27 18 25 22 50 35 34 33 38 42 46 47 45 44 49 48 48 46 46 48 52 56 60 64 65 65 63 68 65 66 68 71 71
19 16 12 12 15 15 15 17 24 21 27 23 18 30 19 26 32 27 30 30 34 37 42 41 46 48 54 52 48 46 47 49 53 57 58 61 63 64 60 64 63 61 68 72
25 25 17 13 15 16 18 17 29 24 30 21 21 29 23 19 22 26 23 26 28 33 36 39 37 42 44 48 50 47 46 48 51 54 56 57 60 61 66 64 63 60 68 69
26 24 13 13 11 12 15 17 13 16 23 23 24 20 16 16 20 27 26 24 26 29 32 35 36 36 38 46 45 44 43 44 46 48 52 56 58 61 63 65 61 63 68 71
16 18 13 11 12 12 12 12 14 21 21 22 20 21 20 18 18 28 31 27 24 29 29 30 33 34 34 38 40 40 39 38 38 43 47 51 53 57 61 64 53 59 63 72
17 16 14 12 14 14 15 14 14 16 18 17 18 15 13 17 19 21 28 27 25 26 26 25 26 31 32 36 44 40 43 38 41 42 44 49 51 55 62 65 54 52 53 61
42 23 17 14 13 9 10 12 16 17 18 18 14 14 11 13 14 19 17 18 16 15 21 25 23 26 35 34 41 43 38 38 35 40 42 43 46 51 57 63 55 45 50 54
54 46 23 17 14 13 14 13 12 13 15 15 16 15 11 12 14 13 16 14 9 11 23 26 25 27 28 32 33 38 41 33 34 40 43 43 45 48 52 59 58 47 49 57
47 52 38 30 20 18 17 14 12 13 16 14 13 12 12 12 13 13 13 9 10 14 22 24 24 24 25 29 32 31 37 38 36 38 42 43 43 44 49 55 59 51 47 51
56 61 43 40 34 29 23 16 12 14 12 14 12 13 11 14 15 13 7 8 8 20 25 24 25 25 24 24 28 31 40 43 39 36 41 40 42 42 47 53 57 58 47 47
58 61 54 44 29 28 25 16 14 12 11 12 11 14 11 10 10 10 7 6 9 16 21 23 23 21 20 20 20 23 32 39 41 42 35 37 40 41 45 50 54 58 58 48
59 62 62 59 39 37 30 18 15 12 12 12 13 11 11 10 11 11 7 6 7 5 4 10 18 20 15 15 21 21 22 32 38 37 38 45 44 40 43 50 53 54 57 60
62 62 60 62 51 44 21 20 12 13 14 13 11 12 14 10 6 6 5 5 6 6 6 8 8 12 14 13 16 19 24 30 34 33 39 47 42 37 41 51 53 55 56 54
56 55 63 56 63 44 25 24 25 14 16 19 14 14 13 11 11 11 7 8 7 5 5 6 13 12 14 15 17 30 27 32 39 36 36 42 41 38 43 45 51 60 63 57
51 50 48 56 59 52 31 48 51 47 18 44 33 20 16 18 17 13 10 9 7 7 7 8 9 12 16 24 21 25 29 30 29 31 28 30 37 40 43 41 46 58 65 60
63 69 71 55 56 51 59 82 57 41 23 43 41 40 34 22 15 11 18 25 25 17 12 12 17 17 17 20 28 35 39 35 20 23 24 34 43 42 38 46 54 53 65 74
73 76 89 59 67 75 78 79 89 88 93 66 51 54 54 49 43 38 35 36 34 29 28 31 30 23 19 33 42 35 31 21 25 27 42 49 47 56 63 60 64 73 82 82
79 71 88 62 68 66 68 74 94 92 95 92 72 61 55 59 70 58 55 44 47 46 48 45 40 46 40 37 23 27 26 27 28 31 32 38 52 65 67 71 72 89 97 79
68 92 74 73 60 77 79 66 91 84 90 90 84 71 68 76 75 64 54 53 48 44 35 28 24 26 40 49 63 54 38 46 46 45 34 38 48 55 26 73 80 89 98 77
85 88 69 83 75 74 74 78 91 76 81 88 85 84 82 76 71 66 65 67 65 60 55 52 48 40 33 41 42 46 70 70 58 52 52 61 68 70 80 98 98 99 93 65
85 84 86 75 87 84 96 85 80 68 78 86 84 78 73 67 63 58 54 52 49 46 42 40 40 37 35 34 32 33 29 49 92 71 60 64 74 84 91 97 100 100 91 66

GFSCGP_850_rhum_021.txt.gz
RH
24 22 25 20 17 14 13 14 15 13 12 18 22 26 31 46 50 51 57 60 63 65 65 74 79 84 78 65 60 54 54 50 52 49 47 49 53 55 63 68 73 74 68 73
25 24 17 16 19 17 14 14 15 14 12 13 15 18 18 38 48 49 55 58 60 62 66 73 78 82 84 62 60 59 56 49 46 48 47 53 52 61 58 68 67 75 73 70
20 17 17 20 20 18 15 13 13 15 13 12 15 16 20 38 43 48 53 56 58 57 64 68 74 77 82 67 60 58 53 52 48 57 59 63 65 68 62 66 69 72 71 72
15 14 19 20 20 16 14 12 12 15 16 18 17 20 25 24 43 46 50 55 58 56 62 64 70 75 77 56 54 57 54 55 54 58 62 65 66 66 60 62 66 67 73 73
17 19 21 22 19 17 13 12 13 14 16 16 15 20 17 34 39 45 45 49 54 54 59 63 66 62 54 64 53 52 51 54 55 55 58 61 66 66 63 62 63 67 68 72
12 15 16 17 16 17 14 16 16 18 16 22 17 18 17 19 25 31 39 46 51 54 54 61 60 63 67 65 60 56 50 50 55 56 57 59 62 66 66 64 60 66 67 70
16 16 14 13 15 15 15 15 20 20 21 21 14 18 18 15 21 16 29 40 46 52 54 55 63 66 55 59 50 51 54 48 50 54 57 59 60 61 61 62 62 64 67 64
19 22 15 13 15 16 17 14 14 21 16 15 19 20 16 13 12 19 20 28 37 47 51 53 54 56 43 44 45 46 49 49 49 49 51 54 57 60 60 60 61 62 62 59
17 17 14 13 12 12 17 19 11 14 19 16 13 13 14 14 13 16 19 21 28 34 42 48 52 50 43 39 39 38 40 44 48 48 48 50 53 56 58 58 58 61 63 63
20 22 15 14 12 12 14 12 18 14 18 18 14 18 13 18 15 16 18 18 21 24 32 39 48 52 46 37 34 36 35 33 33 37 45 47 47 49 54 57 56 58 61 65
28 19 18 16 16 16 16 16 14 13 14 12 12 10 15 17 20 17 16 16 17 21 24 28 37 45 46 51 52 40 38 35 34 32 35 38 40 43 47 53 53 53 58 63
39 21 20 19 14 11 13 14 15 16 24 15 12 10 11 11 14 17 13 15 18 24 23 15 29 37 44 46 46 46 40 41 35 33 34 35 37 39 42 45 47 48 52 59
36 33 28 22 15 14 16 14 13 12 13 21 15 11 8 12 14 12 12 12 14 17 22 18 29 31 27 29 37 44 42 33 32 40 38 38 37 38 40 40 43 46 49 52
39 36 31 24 22 26 26 17 15 14 17 17 16 12 11 12 15 14 14 15 12 8 9 16 17 14 17 23 27 31 40 44 40 45 41 40 37 34 35 38 40 44 45 49
37 38 37 33 31 28 28 24 21 20 17 19 14 14 13 13 14 12 12 15 10 8 9 8 9 8 9 16 25 28 30 40 44 42 40 31 31 35 40 40 36 40 46 45
38 37 44 36 27 25 28 25 24 22 20 19 16 16 11 13 13 14 11 10 10 9 6 6 6 8 8 14 19 25 29 31 37 38 28 30 38 36 36 44 43 42 44 45
46 42 43 36 31 30 31 24 22 20 18 17 20 15 12 13 14 15 14 14 12 7 5 6 5 6 7 7 6 21 26 36 34 33 35 42 42 40 40 40 44 39 40 43
50 51 39 33 35 41 20 19 24 23 18 15 15 14 13 13 13 14 12 11 9 7 6 6 5 5 5 7 15 20 27 28 32 37 39 39 38 37 44 48 42 42 42 40
48 46 34 31 32 27 24 21 40 46 24 31 43 21 14 12 12 16 14 11 9 9 7 6 6 6 6 6 8 20 26 26 29 29 28 28 30 37 45 51 42 44 48 46
41 50 45 36 30 32 25 24 43 52 39 56 66 60 49 16 16 14 10 8 8 7 7 7 6 7 7 7 10 17 26 30 27 25 26 42 49 49 46 44 58 57 48 40
61 57 57 47 44 28 22 37 65 61 36 66 69 74 76 65 22 18 22 12 9 8 9 8 7 7 7 8 14 16 22 21 24 34 36 38 41 44 48 53 51 58 67 69
52 65 68 50 47 47 23 30 38 62 70 73 75 84 92 86 79 44 47 23 18 18 19 13 10 9 9 16 21 27 34 37 38 39 39 39 42 48 60 57 59 62 68 71
57 44 59 41 33 29 35 49 62 80 79 79 84 88 98 97 75 67 75 55 54 49 35 32 26 18 16 17 22 31 38 43 44 46 44 46 50 55 61 62 64 77 91 75
51 54 65 49 34 37 37 44 51 76 80 84 93 99 100 97 93 86 85 78 62 54 50 46 46 46 46 46 43 43 44 46 46 47 48 47 51 57 63 71 77 90 90 97
62 60 59 59 53 50 39 39 53 74 77 92 97 99 99 95 89 84 85 79 77 56 49 46 43 41 39 38 36 36 34 32 31 30 31 34 46 56 60 60 66 69 72 72
60 66 71 55 49 66 65 68 75 70 82 96 90 100 97 100 98 92 94 98 86 69 61 56 56 48 44 42 39 37 36 35 33 31 30 30 32 42 63 78 67 74 80 77

GFSCGP_850_rhum_024.txt.gz
RH
17 16 16 12 12 12 11 13 14 13 12 14 15 14 14 20 28 28 37 43 46 48 50 54 61 64 69 74 85 93 94 95 88 89 89 82 74 77 76 75 82 68 70 75
16 18 11 10 9 11 12 12 13 12 11 12 13 14 13 16 26 28 34 40 43 45 48 54 59 61 63 72 82 92 92 85 58 77 76 76 74 72 75 76 84 66 74 67
14 12 10 10 12 13 12 13 12 13 12 11 13 15 14 11 16 24 29 35 39 43 46 50 55 57 60 66 80 88 88 84 53 87 88 83 78 78 78 78 82 78 66 70
12 10 12 12 13 12 13 10 10 11 13 18 12 19 15 13 16 18 24 29 35 39 44 46 51 54 57 63 74 86 91 82 76 57 79 73 74 75 74 78 75 80 66 69
14 12 13 14 14 11 11 6 9 10 11 13 14 16 15 13 15 14 18 22 31 35 41 44 49 49 51 60 69 80 90 81 83 65 69 74 70 77 75 74 75 84 89 65
11 9 10 12 11 11 10 9 8 10 10 16 15 16 16 14 15 14 17 22 29 34 38 42 46 47 50 56 66 76 85 58 58 55 49 71 78 76 74 78 75 80 84 86
12 11 10 10 13 11 12 12 15 14 13 15 12 14 15 11 10 12 12 15 26 32 37 39 46 49 49 54 62 72 84 72 55 55 52 52 58 66 81 87 86 77 75 74
15 16 11 10 12 13 14 11 11 16 11 10 11 15 13 10 10 10 11 11 19 30 35 36 42 47 52 53 59 65 73 55 51 52 48 50 53 73 85 85 79 83 73 72
14 14 9 10 10 10 14 14 8 8 10 10 8 10 9 10 10 10 10 11 12 24 32 36 37 43 50 56 60 63 52 37 43 43 43 45 48 53 79 76 77 81 81 74
14 16 10 10 9 9 10 10 11 9 15 16 9 10 11 11 12 11 11 10 11 17 27 31 35 37 43 51 57 65 53 28 27 37 42 44 45 47 50 59 61 65 78 67
16 14 13 11 12 12 12 12 11 9 9 11 11 8 7 9 11 11 10 11 11 14 19 24 28 34 37 44 53 61 69 62 41 32 31 36 40 43 44 50 52 53 56 63
18 16 18 14 10 9 9 11 11 12 16 11 10 7 6 7 7 10 9 10 10 11 14 17 20 26 33 39 45 51 59 66 50 32 30 30 33 36 40 41 44 46 49 52
23 20 20 17 13 11 12 11 10 10 9 16 13 8 7 10 11 12 11 11 12 14 19 20 19 21 28 34 43 46 51 55 60 70 56 49 37 32 34 37 37 40 43 46
35 22 20 18 17 14 15 12 11 11 13 12 12 10 9 8 10 10 9 10 11 15 16 18 19 19 24 29 38 44 45 47 53 58 70 70 38 30 29 32 33 36 39 43
26 29 27 21 22 19 14 13 12 13 13 14 10 11 10 9 9 10 10 10 10 12 14 16 22 25 30 30 35 40 47 46 48 55 62 67 35 37 38 35 34 35 39 39
24 32 30 28 22 21 20 18 15 13 12 13 12 12 9 9 11 11 10 11 10 10 10 9 12 23 23 22 25 40 43 45 51 53 56 65 70 53 40 47 44 42 41 41
32 28 34 30 22 22 26 20 18 17 15 15 17 14 12 12 12 11 10 10 10 11 11 12 12 15 20 20 18 16 36 50 51 51 61 59 63 54 53 62 60 45 47 58
36 33 29 27 29 39 19 13 15 17 15 14 14 14 13 12 12 12 11 11 10 10 11 12 12 10 11 18 16 31 40 30 39 50 48 56 53 58 84 72 56 52 61 58
27 33 28 31 30 22 18 17 18 20 18 13 14 15 13 13 11 12 11 10 11 12 12 12 12 13 14 18 19 25 41 44 53 40 29 29 44 59 68 58 45 50 63 67
24 34 32 26 32 32 19 14 23 21 30 18 28 26 28 31 24 14 11 10 10 11 13 14 14 16 17 7 13 29 36 45 27 34 40 39 33 41 37 35 45 57 59 54
26 35 39 30 29 22 15 24 37 37 48 41 39 41 45 46 36 40 45 35 30 25 23 22 22 17 12 13 8 22 37 24 36 56 62 52 49 38 38 43 47 60 64 84
30 32 30 29 31 32 14 18 31 46 51 47 46 52 56 60 66 66 62 55 42 33 32 40 31 27 39 20 19 18 16 34 58 64 68 67 53 65 82 68 67 78 89 92
34 26 27 26 24 20 18 22 28 33 37 49 46 45 56 64 70 71 62 55 47 47 49 50 42 55 63 45 59 50 43 52 64 64 65 72 80 83 77 84 88 97 93 90
34 29 36 31 25 28 28 28 28 33 39 39 45 44 56 61 75 79 66 60 62 64 65 64 67 69 78 79 81 84 54 50 56 61 68 76 86 92 95 90 92 91 85 94
33 37 42 44 36 28 26 30 34 35 41 49 48 55 67 76 87 74 66 71 70 72 74 74 73 78 84 84 73 65 56 55 84 81 82 84 80 82 89 92 80 82 81 77
43 45 46 42 30 33 32 32 53 54 55 55 52 59 72 94 97 95 94 97 98 97 96 96 96 95 90 84 59 45 39 35 34 37 50 57 57 58 68 73 80 82 77 80

GFSCGP_850_rhum_030.txt.gz
RH
21 22 21 18 17 17 17 16 14 12 12 14 13 15 17 24 43 42 28 32 32 35 37 42 44 45 48 55 58 61 67 68 74 79 81 87 73 76 71 65 61 62 64 65
23 25 18 15 15 17 17 16 13 10 9 10 13 13 14 24 46 44 30 47 32 32 35 39 44 44 47 54 62 63 65 70 78 77 79 76 77 72 71 66 65 64 68 80
24 20 16 16 17 15 17 17 14 12 9 9 13 14 14 17 17 18 23 35 28 32 34 37 43 43 46 54 59 65 69 74 79 81 82 78 74 69 67 66 66 68 72 72
22 15 16 17 16 14 16 13 12 12 11 13 10 17 18 14 14 15 17 22 25 30 32 36 41 43 46 51 60 66 70 72 75 78 82 81 74 70 68 66 68 69 71 79
22 17 14 14 14 10 10 7 10 10 11 11 11 14 13 14 15 14 16 21 36 27 31 36 39 43 45 49 62 70 68 73 77 77 86 79 77 74 64 65 66 67 70 71
17 14 11 9 8 7 6 6 7 7 9 15 12 13 15 13 16 12 14 15 21 24 29 35 38 41 44 48 58 71 70 73 74 80 76 87 76 72 66 63 64 65 70 76
16 16 12 8 9 7 7 8 12 13 12 14 11 13 14 11 13 12 11 12 15 22 25 33 39 40 43 46 55 65 69 70 71 71 70 78 84 69 66 64 62 70 69 75
17 17 13 8 8 10 8 8 12 20 14 11 9 13 12 9 8 10 10 11 13 17 22 30 37 40 43 44 51 61 67 64 65 68 66 65 77 81 59 65 65 65 68 67
14 15 10 8 7 8 10 11 7 9 8 8 7 8 7 8 8 8 8 10 12 14 17 26 32 39 43 42 48 55 65 62 63 59 68 48 58 70 46 64 68 69 64 64
13 15 9 9 8 7 8 8 11 9 17 15 9 11 10 11 10 10 10 9 10 12 15 23 30 37 41 41 45 52 60 61 45 49 48 44 32 41 44 42 63 64 73 60
10 12 11 9 10 10 9 10 10 8 9 12 13 8 7 12 11 11 10 9 10 13 16 20 28 34 39 42 44 50 57 65 66 52 33 36 42 36 36 45 44 58 64 77
11 11 15 13 8 8 8 10 11 13 18 10 11 9 6 8 9 9 9 9 10 10 16 18 24 30 37 41 43 48 55 64 64 57 56 48 39 33 28 32 36 40 57 56
26 19 20 18 11 9 10 9 10 10 9 16 12 9 7 8 9 10 9 10 10 11 12 17 23 26 33 38 41 45 51 58 69 82 80 73 56 44 37 29 26 35 41 52
28 28 22 20 17 11 13 10 9 10 13 12 10 11 10 9 8 10 10 10 10 12 11 17 20 25 28 34 39 43 47 52 60 70 80 82 76 63 61 50 38 32 37 35
23 32 23 16 13 11 10 10 10 11 11 14 10 9 12 12 12 11 11 12 11 12 14 17 18 24 25 27 34 39 42 47 50 56 67 65 70 74 71 72 65 59 46 36
26 32 27 25 16 15 15 10 10 9 9 9 9 8 10 12 11 12 12 12 12 13 15 15 17 18 20 27 28 33 39 42 46 49 52 55 60 68 77 81 80 69 54 51
33 34 34 34 24 20 20 13 10 9 8 8 11 10 10 13 13 13 11 10 11 12 12 12 14 15 17 19 30 33 33 37 41 44 47 51 58 61 66 69 75 79 75 67
30 35 36 36 29 38 18 12 12 10 8 8 9 10 11 13 12 11 11 11 11 11 11 10 10 11 11 13 22 29 35 36 35 42 43 50 54 58 63 67 70 76 80 76
20 28 35 37 33 25 19 16 14 14 12 8 9 9 11 11 12 13 12 12 12 13 13 12 12 11 10 13 16 20 19 29 34 32 40 41 48 55 58 64 68 71 80 88
18 23 31 35 36 35 21 14 11 11 18 27 15 12 12 11 15 32 42 41 39 38 36 31 26 20 12 14 12 14 23 29 27 26 25 35 42 47 55 62 69 71 77 86
25 28 30 32 36 27 32 18 13 22 55 40 34 22 19 28 41 44 41 45 48 45 40 37 34 29 26 20 17 17 16 20 25 25 32 34 37 45 58 64 78 82 87 92
26 32 32 28 34 44 22 23 37 45 36 37 39 37 38 36 38 40 43 46 52 50 44 38 32 27 29 31 20 20 22 19 24 30 33 39 43 54 67 74 80 91 89 89
33 28 28 26 26 30 21 21 23 24 28 29 33 32 32 36 37 43 48 52 59 50 45 50 45 39 38 39 43 41 42 41 32 42 40 44 49 66 69 79 83 90 88 88
42 29 30 30 26 26 21 20 21 23 24 25 27 30 40 42 40 42 53 62 70 63 59 58 54 50 62 73 72 66 65 61 52 50 56 58 64 75 78 78 85 85 90 89
29 30 36 34 25 22 21 22 23 24 25 24 26 30 40 42 43 45 50 67 71 77 85 77 70 69 83 90 88 88 85 78 79 68 71 75 79 82 87 86 82 91 86 86
28 29 31 34 29 35 34 28 24 24 25 26 27 32 41 40 40 39 53 74 81 80 89 94 82 82 87 92 99 95 75 77 88 85 85 82 78 78 80 86 82 80 78 84

GFSCGP_850_rhum_033.txt.gz
RH
23 27 25 21 20 20 26 28 25 19 16 20 22 20 32 52 67 59 48 53 46 45 44 44 48 50 51 48 46 54 59 62 64 65 53 56 56 68 66 68 66 62 62 62
28 32 22 18 17 19 21 26 26 18 14 18 19 18 36 52 57 63 61 54 51 44 43 45 43 45 47 49 50 52 56 58 60 64 66 55 62 74 66 66 68 63 63 63
30 26 21 21 19 19 20 23 23 22 15 12 16 20 46 40 41 47 44 45 49 41 42 45 44 46 48 50 51 52 54 55 58 66 72 66 72 73 78 70 65 70 67 65
26 22 23 24 22 19 23 18 19 19 20 22 12 28 26 35 40 46 48 53 43 37 40 44 44 46 49 50 51 54 56 59 60 66 75 75 65 77 75 72 62 68 70 69
26 26 26 26 22 18 21 16 17 18 20 20 17 23 20 27 39 47 51 51 56 50 40 43 46 45 47 52 54 54 57 61 63 67 71 73 68 75 74 73 67 66 68 69
20 20 22 22 17 17 16 18 15 17 19 22 16 20 22 21 23 32 35 47 55 38 36 41 46 44 46 49 54 56 59 62 64 64 67 74 72 74 74 72 71 67 68 68
19 19 20 16 20 16 16 18 22 20 21 21 14 19 18 16 18 17 27 41 41 29 30 41 45 46 47 49 55 56 58 62 66 66 63 70 67 72 69 65 66 67 67 68
26 25 19 17 16 15 15 14 20 25 21 17 12 16 15 13 12 12 17 32 34 30 35 40 43 45 46 46 51 58 60 60 62 64 63 62 69 78 70 66 64 63 65 65
25 23 15 15 13 12 13 14 10 14 16 19 14 11 10 8 10 10 14 16 30 37 36 39 41 42 43 45 48 56 59 59 60 60 62 57 64 71 62 59 64 66 68 72
15 22 16 14 15 11 12 10 14 12 22 22 16 13 12 10 9 10 14 13 18 33 32 38 40 43 42 43 44 50 57 55 56 59 61 51 38 47 52 53 56 68 65 69
36 18 15 14 18 19 12 14 11 13 18 25 28 18 9 10 10 13 11 11 13 20 32 39 42 42 39 41 44 46 54 57 58 55 55 49 39 38 53 50 44 57 74 69
39 41 19 17 13 12 11 11 12 15 20 17 17 16 14 13 9 10 10 9 13 17 28 38 40 40 45 44 46 43 46 51 51 49 53 58 48 38 40 46 35 42 47 66
58 48 29 19 15 12 12 10 11 14 20 21 21 22 12 17 9 12 12 9 9 15 28 34 40 42 46 43 44 43 42 44 45 52 54 53 58 54 38 35 34 33 36 37
50 46 46 31 19 17 14 12 10 14 16 15 19 15 14 17 20 19 13 11 9 14 25 31 36 41 42 40 43 42 44 46 46 49 49 49 49 52 47 34 31 33 32 34
50 51 41 32 22 19 16 12 12 12 15 16 14 18 16 16 23 25 17 13 13 12 20 28 33 37 40 41 42 42 43 43 48 49 49 46 43 43 44 41 31 25 28 35
40 52 44 43 24 20 19 12 11 11 12 15 13 14 18 20 19 19 17 14 16 20 21 26 29 34 37 36 37 40 43 42 44 47 43 49 50 52 52 43 36 35 29 30
45 40 52 50 31 26 29 22 12 12 11 12 17 15 18 23 21 20 15 12 12 12 12 16 20 29 37 40 38 40 40 42 44 45 46 47 51 51 54 55 58 47 43 41
46 38 49 58 41 47 30 21 18 12 13 10 11 18 21 25 30 23 12 11 12 12 13 13 12 13 18 21 35 34 38 42 44 46 47 52 53 52 53 56 58 61 61 55
33 36 51 58 46 34 26 26 27 17 47 45 42 20 21 35 40 49 45 40 38 30 23 19 17 18 13 12 15 36 36 38 41 44 46 47 47 49 53 57 58 58 64 66
28 29 44 48 58 49 43 32 29 23 70 43 44 40 22 39 67 64 50 50 45 39 33 23 18 23 24 24 19 22 28 35 39 40 41 42 46 49 50 52 56 59 61 63
35 37 41 41 48 64 35 31 41 51 70 41 37 43 47 56 58 50 49 56 56 49 43 32 26 28 30 28 20 24 26 27 24 30 32 34 35 40 44 48 55 60 64 67
45 50 45 40 50 81 37 30 55 52 34 34 36 41 47 46 49 56 59 67 75 58 52 50 44 38 30 27 27 20 21 28 31 29 29 28 28 29 34 42 51 61 70 74
71 67 76 52 66 41 50 41 29 28 31 27 29 31 45 45 46 52 62 65 72 82 63 53 50 50 55 43 38 31 24 28 35 27 28 36 39 38 43 48 58 70 76 85
39 38 51 51 39 37 35 34 34 26 25 26 27 31 43 44 42 41 64 65 63 72 75 68 66 80 74 66 58 45 35 26 33 37 35 28 46 52 54 59 72 78 80 84
43 41 43 42 46 41 40 52 51 37 32 26 26 27 32 40 41 40 41 68 51 56 52 60 78 92 84 79 78 78 70 66 68 62 58 60 56 55 59 71 79 81 80 81
42 53 63 68 54 64 60 58 52 51 41 36 42 31 30 36 40 38 33 51 66 52 52 44 62 89 94 82 76 75 73 79 83 80 76 76 73 71 78 77 82 87 91 95

GFSCGP_850_rhum_036.txt.gz
RH
23 25 29 24 23 23 28 33 36 28 22 21 26 40 59 54 57 63 71 69 66 66 61 59 59 57 57 59 63 59 62 60 58 59 60 54 66 59 63 65 69 67 63 61
35 32 22 23 20 22 24 28 33 28 24 23 26 41 49 52 55 56 61 64 64 63 64 61 60 55 53 57 59 59 59 59 60 61 58 55 52 54 63 66 74 72 65 63
33 30 24 24 24 23 24 27 27 32 25 20 20 45 41 45 52 56 57 55 55 53 53 60 61 57 52 53 58 60 57 54 58 61 59 55 51 52 56 64 70 70 70 65
26 25 24 28 25 21 28 20 21 23 27 34 18 44 61 55 56 51 48 53 51 52 49 52 59 59 60 55 56 55 53 55 58 57 57 61 49 49 52 56 65 69 70 73
22 23 29 28 27 23 24 19 20 21 27 27 25 26 64 56 62 56 49 50 48 49 48 48 50 54 56 56 56 50 48 50 54 56 56 54 64 52 53 65 70 69 67 74
16 20 23 26 22 23 20 22 23 23 27 37 26 24 26 64 55 47 41 46 42 51 48 46 46 46 49 48 49 50 51 52 53 55 57 55 62 63 58 67 75 75 66 66
21 18 18 23 28 24 24 31 39 38 34 34 22 24 20 39 38 40 40 40 44 48 46 45 49 48 50 50 48 50 51 52 54 56 59 59 56 61 56 66 75 76 70 68
28 28 19 18 28 30 28 27 41 48 37 28 19 23 19 15 26 26 37 36 47 47 47 45 46 47 48 48 48 49 50 52 54 56 59 59 57 60 60 61 69 72 72 68
33 24 16 16 19 24 26 30 21 21 20 22 18 13 10 11 11 22 37 42 45 46 47 42 45 48 49 47 46 48 50 52 54 56 59 62 62 61 56 52 62 63 65 69
61 48 16 16 17 19 21 17 22 23 24 26 22 18 13 11 10 13 32 38 43 48 44 41 46 48 48 46 43 45 48 49 52 54 57 61 64 63 54 54 56 57 58 64
60 65 28 16 20 22 23 18 16 18 23 23 26 16 12 12 14 10 27 29 39 44 40 39 44 47 45 47 48 46 47 50 53 53 53 57 61 65 65 55 51 54 52 62
61 79 83 28 15 15 18 18 15 16 21 25 25 16 12 10 10 10 11 34 37 38 40 41 41 44 49 50 52 48 46 50 49 45 50 52 56 62 64 56 46 48 49 59
90 84 96 35 20 16 16 20 14 18 18 20 18 15 12 12 15 14 9 15 31 34 36 38 41 45 46 49 51 50 46 44 47 48 51 53 56 59 59 49 39 39 46 51
87 87 90 73 39 34 19 17 16 13 18 16 16 15 14 14 15 16 10 10 15 27 35 38 41 42 40 48 48 45 49 44 44 48 50 52 52 52 49 43 39 35 35 41
84 83 58 50 40 40 38 19 17 16 14 16 14 15 15 17 26 22 13 12 20 30 36 36 42 43 42 50 46 48 48 44 43 44 44 44 44 44 42 39 37 36 34 30
64 70 56 51 40 37 27 21 21 13 13 16 17 16 13 14 23 26 27 22 26 32 35 38 41 42 39 44 42 48 46 41 42 41 41 42 41 40 37 35 31 31 30 30
63 63 69 71 47 30 33 34 24 13 13 13 20 16 21 32 51 54 21 24 30 33 36 40 41 39 31 40 42 44 40 40 40 38 39 41 41 41 36 32 34 31 28 27
58 65 64 69 54 49 40 32 36 46 47 46 54 43 47 59 60 58 44 36 26 27 33 36 39 42 44 46 46 43 46 41 38 40 38 41 44 45 46 48 51 49 49 46
44 52 66 64 61 40 49 48 39 46 58 45 51 46 52 51 52 64 69 56 42 29 27 27 32 36 40 43 43 42 42 41 41 40 38 38 40 42 44 47 50 52 55 55
59 41 53 55 68 75 64 45 37 41 68 42 52 62 52 35 81 81 81 59 53 43 34 29 26 22 20 27 34 37 41 41 40 40 38 41 42 43 44 45 47 48 51 51
82 52 47 53 74 71 53 47 34 71 66 42 49 54 63 80 78 78 80 78 70 57 48 35 26 27 29 28 24 28 40 41 36 35 36 38 40 42 44 47 49 51 53 56
98 96 85 74 90 98 66 58 61 48 36 35 45 52 52 50 69 73 67 77 75 67 57 48 32 30 28 31 32 26 41 50 48 42 36 38 40 44 48 50 51 54 57 59
95 92 97 92 93 70 76 89 62 56 47 32 28 42 42 42 40 69 70 56 67 72 84 86 78 66 55 44 41 37 31 33 36 40 42 43 45 44 43 44 46 54 60 67
62 46 78 62 70 60 80 74 68 56 58 50 39 30 37 37 39 34 42 68 54 53 59 81 79 78 79 78 76 67 60 47 36 28 28 32 30 34 38 41 42 48 52 62
60 60 72 60 63 57 64 58 59 53 50 54 43 45 42 39 37 35 44 63 59 50 51 58 77 77 77 72 70 68 70 76 76 62 42 31 28 30 39 53 56 58 58 69
68 86 93 86 74 88 74 63 60 55 52 60 56 44 42 40 45 58 65 75 64 52 49 63 64 74 79 75 65 57 56 58 61 78 78 72 71 60 66 67 65 73 79 83

GFSCGP_850_rhum_039.txt.gz
RH
24 26 26 20 25 25 30 36 38 34 29 34 43 42 73 71 73 76 78 76 75 76 77 69 66 62 62 64 61 59 58 58 55 58 59 59 63 70 66 65 63 70 68 65
33 30 20 19 23 26 26 29 35 30 26 27 31 40 64 69 71 74 76 75 74 73 74 72 68 64 63 65 63 59 58 59 60 58 60 56 55 66 65 62 65 70 70 66
34 31 21 24 23 27 26 27 29 32 28 26 33 48 45 66 64 70 73 71 72 72 73 68 67 62 65 66 62 58 57 61 63 60 60 60 60 61 64 64 67 71 73 68
32 24 26 25 29 24 31 22 23 26 29 40 26 68 76 69 70 64 70 72 70 70 69 68 68 59 59 60 60 61 60 58 62 61 60 59 60 59 58 59 66 70 73 70
27 28 28 29 26 25 28 23 25 25 29 31 29 36 65 62 76 66 60 64 66 69 67 64 66 55 52 57 55 59 55 58 58 62 59 61 62 53 46 50 54 68 71 70
23 17 22 23 24 24 23 24 25 26 34 39 30 34 35 58 62 61 56 58 60 60 62 62 58 56 54 54 47 53 54 55 58 61 58 60 60 52 47 42 44 59 66 68
34 22 22 21 27 26 28 34 49 48 48 41 29 35 28 42 46 48 51 51 52 54 58 55 59 61 57 58 54 50 53 56 57 59 56 58 58 56 49 44 46 56 68 72
79 39 25 17 28 30 32 35 56 61 52 39 30 38 28 26 37 40 44 45 44 48 52 55 52 54 55 53 55 54 53 54 55 53 54 56 57 57 55 53 52 51 63 74
92 70 42 18 17 26 36 38 32 35 26 32 30 20 14 17 29 41 40 41 39 40 44 53 50 52 53 54 51 50 52 52 55 50 52 54 56 58 60 53 54 50 59 71
73 94 51 29 16 20 31 28 38 35 42 38 28 20 24 19 21 30 41 40 39 38 41 44 49 50 52 52 49 50 49 48 48 50 51 53 54 58 59 56 57 54 58 68
82 75 67 50 24 21 25 32 31 34 32 34 28 21 17 15 15 16 33 31 35 38 39 42 47 48 50 53 54 55 54 51 50 49 50 52 54 56 59 59 56 59 58 64
75 93 93 72 42 40 18 28 25 33 39 29 29 22 12 13 15 12 16 26 34 39 40 41 38 46 48 52 54 55 55 56 51 47 48 51 52 54 58 59 57 54 60 62
86 97 96 51 28 22 18 23 22 22 28 28 32 27 13 13 12 13 13 18 25 38 42 39 42 45 46 51 53 53 53 51 49 49 49 51 53 54 55 56 57 57 56 58
90 98 95 83 65 55 53 41 23 19 23 23 20 19 14 11 15 16 15 12 12 30 40 44 43 42 44 48 50 52 52 49 50 53 50 51 51 52 52 54 57 59 55 48
95 100 85 74 64 56 50 45 40 25 18 18 16 17 12 12 15 28 28 18 13 25 36 44 42 42 42 44 51 51 51 48 52 50 49 47 46 48 50 53 54 54 49 42
91 92 68 66 46 47 46 39 39 37 16 16 16 17 13 24 46 63 45 20 21 30 35 39 41 41 41 40 43 45 48 44 43 43 44 42 45 46 46 48 50 46 40 36
94 93 78 82 50 45 52 49 47 35 58 39 21 28 29 58 74 81 88 35 20 30 34 36 39 39 40 37 38 39 37 45 44 45 43 42 45 45 39 38 42 39 35 32
67 99 77 84 60 59 54 52 46 54 53 56 66 63 60 76 79 85 95 73 34 24 24 27 35 39 38 40 37 42 47 46 43 45 43 44 48 47 46 46 43 40 40 39
44 97 75 81 63 55 58 61 70 62 64 49 63 70 63 68 58 76 92 87 58 36 35 36 36 42 45 42 39 42 42 37 41 40 39 43 44 45 48 49 47 45 46 46
76 84 98 68 86 84 73 71 54 44 75 38 55 60 83 69 92 90 95 97 69 43 37 39 41 44 45 44 41 40 41 41 37 36 35 40 39 42 43 42 43 43 46 49
100 95 87 74 95 80 71 74 44 73 65 47 46 51 58 80 85 87 89 99 98 60 42 39 41 42 43 43 43 43 41 37 31 37 40 39 36 37 39 40 42 43 45 48
100 100 100 98 99 98 69 73 77 70 58 59 54 51 48 47 68 73 75 92 93 73 48 40 36 34 35 46 48 45 45 44 44 46 46 43 42 43 44 46 47 47 50 54
98 98 100 99 95 74 88 95 76 66 61 62 60 51 43 47 55 78 73 83 89 100 92 76 61 57 54 52 52 55 63 58 55 56 56 53 53 54 53 52 50 52 55 57
74 74 96 77 71 74 74 72 74 72 70 56 63 60 49 66 63 79 71 65 85 89 91 91 84 77 74 69 58 52 53 48 46 44 47 48 51 53 55 59 61 60 57 56
85 77 92 76 69 72 66 69 74 69 65 59 56 61 64 69 75 71 65 59 50 69 84 85 87 86 80 73 66 64 61 51 42 38 38 38 39 39 39 43 53 59 67 62
98 98 99 95 80 86 82 75 81 73 74 64 64 61 55 50 54 56 58 58 49 53 62 78 83 79 75 72 66 53 49 49 51 48 42 43 41 40 38 40 41 48 58 65

GFSCGP_850_rhum_042.txt.gz
RH
28 33 29 24 33 33 34 40 43 37 30 44 48 50 85 81 79 83 84 79 74 76 78 84 83 73 70 64 55 48 43 34 34 33 57 60 65 67 67 63 63 69 71 72
33 35 24 18 20 29 30 29 34 32 28 37 41 48 77 80 78 79 82 83 79 78 79 81 81 81 73 70 60 53 56 38 38 38 46 57 60 64 68 67 66 64 70 68
39 28 21 21 25 25 28 35 30 33 27 28 36 45 76 76 74 76 77 79 80 80 78 79 79 74 78 68 59 55 59 39 50 48 56 59 60 66 71 69 65 66 71 70
37 26 26 23 24 27 35 25 27 26 31 40 33 53 70 82 80 75 76 78 78 77 77 75 76 79 75 67 60 57 57 52 55 58 57 60 60 60 63 67 66 67 68 70
38 33 32 32 22 23 23 23 27 27 33 32 30 40 55 78 91 81 74 75 75 74 73 73 69 68 71 73 63 58 60 55 54 57 60 61 60 60 60 61 66 64 68 69
30 20 24 28 24 20 23 26 31 31 37 43 34 33 41 87 75 73 67 71 72 72 70 66 59 68 70 69 65 60 58 59 53 54 60 64 61 60 61 62 60 60 61 67
58 38 20 18 28 25 30 31 55 53 53 45 34 34 36 34 60 59 62 61 66 71 67 66 64 66 67 64 65 56 55 54 55 54 54 59 62 59 60 59 51 46 50 50
94 49 29 23 26 33 32 35 55 62 57 39 36 45 35 22 38 51 52 52 58 63 68 63 66 62 62 59 58 50 49 51 52 56 53 56 60 60 59 62 56 44 38 41
94 81 50 38 29 24 36 40 33 44 38 48 30 30 20 22 24 43 46 49 52 57 61 63 62 63 61 60 56 55 48 48 48 51 53 54 57 58 57 59 60 55 43 45
76 93 59 47 39 27 31 30 43 49 55 48 40 28 34 25 29 32 41 43 47 51 54 57 59 59 58 56 56 58 55 51 49 49 52 54 55 52 54 58 61 60 55 52
82 94 68 56 51 32 31 38 38 35 45 47 39 33 25 25 22 28 29 42 39 45 47 48 50 53 52 56 55 54 56 52 54 51 51 52 54 52 53 55 59 62 58 56
74 99 95 72 52 50 58 35 41 42 46 42 41 33 15 18 20 19 17 30 31 35 40 40 41 46 50 52 54 52 52 52 51 49 50 51 51 51 52 54 56 62 58 54
84 97 92 78 45 41 45 33 31 33 36 40 44 43 17 15 15 12 13 13 18 24 36 39 41 45 48 49 50 51 50 50 49 50 49 50 50 50 50 53 55 58 62 55
78 97 97 89 62 64 66 52 31 36 34 40 36 33 27 22 16 15 12 10 13 24 32 37 41 43 46 47 48 48 50 49 50 53 51 51 49 48 50 50 53 56 59 60
89 99 89 78 80 75 69 59 49 48 36 34 28 28 24 24 22 19 11 12 10 10 16 30 37 42 48 51 50 46 46 48 50 54 54 52 50 50 48 50 51 53 56 57
91 98 96 94 66 61 61 47 44 42 38 26 19 20 37 18 28 67 77 80 58 30 18 15 26 37 47 48 43 38 44 46 47 52 50 50 50 50 48 49 49 50 51 54
100 100 97 92 56 52 62 51 59 63 67 60 29 42 68 59 93 98 98 100 91 56 27 19 26 36 40 42 39 33 36 45 47 50 48 49 49 48 46 46 46 46 48 48
96 100 99 91 69 71 71 60 51 55 52 60 68 68 77 70 90 95 96 98 99 64 28 20 31 27 35 33 39 40 41 42 42 42 43 46 48 47 47 47 46 45 46 45
75 100 94 94 75 66 61 70 79 80 63 54 56 62 69 82 74 82 96 97 99 95 33 34 37 30 37 38 40 43 38 41 42 37 38 38 40 44 46 47 46 43 44 41
83 95 100 97 95 94 88 72 70 63 79 55 59 53 62 82 94 88 98 100 99 84 42 32 34 38 42 44 43 43 38 36 37 33 35 40 42 42 41 42 44 46 48 47
100 100 97 98 95 95 81 79 60 74 79 62 63 55 55 74 80 94 100 99 99 99 56 41 38 39 42 42 43 44 42 32 34 37 40 40 41 41 42 45 47 50 51 52
100 100 100 100 99 99 83 71 81 72 61 62 66 68 55 78 84 94 99 98 100 100 79 59 46 45 45 45 43 43 42 42 39 41 42 41 42 44 46 47 48 50 54 57
99 100 100 100 100 88 93 88 84 79 73 74 72 72 77 84 82 69 86 90 100 100 99 91 71 55 55 52 50 48 48 45 44 46 47 47 46 47 47 49 50 53 54 56
96 91 99 98 86 86 87 85 78 85 88 68 65 68 71 74 69 60 52 60 74 92 99 96 87 87 86 71 64 62 64 56 53 52 52 53 53 54 56 57 57 58 58 59
98 94 99 95 74 81 78 76 79 74 77 68 57 63 66 62 50 46 42 38 37 55 82 95 95 90 83 76 76 75 70 64 55 50 53 57 61 63 64 63 65 64 64 61
97 98 98 98 88 96 92 83 82 78 74 73 70 56 61 67 56 47 42 36 31 28 37 74 86 82 82 78 66 58 56 56 55 52 48 44 43 42 45 48 50 52 51 56

GFSCGP_850_rhum_045.txt.gz
RH
27 22 26 20 22 18 28 32 24 33 28 34 35 35 53 68 69 67 67 66 65 66 69 78 83 85 84 61 58 53 38 35 37 35 49 64 65 64 66 69 67 68 71 70
24 23 17 16 18 24 21 30 30 28 28 33 34 35 34 60 65 68 66 64 63 64 68 77 82 83 87 70 57 55 43 34 34 34 48 58 58 62 67 64 64 65 69 69
28 22 18 20 18 20 22 21 28 28 24 25 29 33 32 54 60 66 68 65 63 61 64 74 80 83 84 87 64 56 43 35 33 33 36 52 57 63 67 67 67 66 66 69
33 26 22 20 19 17 18 15 21 27 29 32 28 43 34 34 60 61 64 69 67 65 65 67 76 81 81 83 62 59 46 45 43 33 36 37 48 58 60 61 65 63 66 71
31 30 31 30 24 18 18 15 16 16 27 31 29 36 32 39 48 55 58 62 65 68 67 67 71 77 77 83 64 66 64 47 57 42 41 39 49 53 53 57 65 66 66 67
28 28 23 26 22 18 17 18 19 17 16 26 32 33 31 33 44 45 49 58 62 66 68 70 70 74 78 79 76 59 62 54 57 45 51 52 52 55 58 61 63 65 67 65
30 21 20 18 24 22 22 25 31 31 30 21 17 32 30 24 32 33 41 54 60 64 67 68 71 72 78 78 81 67 62 59 58 52 55 58 58 59 59 59 60 62 62 61
42 11 32 37 22 24 26 25 28 35 28 16 16 32 28 21 20 30 35 42 55 62 64 66 67 70 74 66 61 65 64 61 58 58 53 54 56 60 61 59 59 60 60 54
50 46 37 30 35 32 24 31 20 23 31 27 14 17 20 20 20 19 30 39 50 57 60 62 65 67 64 61 49 55 57 54 56 54 54 52 51 55 58 58 57 60 61 57
57 27 36 40 35 27 31 19 33 29 36 33 22 20 18 22 22 21 21 31 41 48 56 59 63 64 59 46 46 48 50 48 47 49 50 50 50 52 56 58 57 57 62 59
50 45 22 29 34 30 26 30 26 26 29 28 26 21 16 17 23 21 22 22 31 41 49 54 58 60 54 57 54 47 48 49 48 47 48 50 50 52 54 56 56 56 60 61
55 78 66 30 21 26 34 50 28 33 41 32 29 21 16 15 16 16 16 19 23 35 41 46 53 60 61 63 58 49 48 50 48 48 48 48 49 49 52 54 55 54 58 62
64 73 47 18 17 26 36 33 39 26 26 37 36 28 16 18 18 18 18 17 28 34 38 45 49 56 61 63 59 54 46 50 47 48 50 51 49 50 50 51 54 52 55 60
60 72 52 35 26 43 58 44 42 36 30 36 32 26 20 20 19 16 17 18 20 31 40 45 47 51 56 61 62 59 49 51 48 47 46 50 50 49 48 49 50 50 53 57
66 71 56 53 47 46 50 51 48 51 34 33 31 30 24 22 22 19 19 18 21 20 30 42 41 40 47 56 59 61 63 50 47 47 46 45 46 48 48 49 48 47 50 54
72 66 60 60 36 45 58 49 46 44 40 31 27 26 29 31 27 23 26 44 44 44 34 35 45 39 40 45 48 43 52 48 47 45 43 45 46 48 48 48 48 49 49 51
79 81 73 54 37 52 59 45 42 40 33 29 28 24 47 45 56 68 72 73 72 73 72 63 38 40 31 32 41 44 40 49 46 42 43 44 46 46 46 48 49 49 49 50
79 93 79 64 58 90 38 40 31 47 56 48 42 52 56 62 73 86 91 93 90 84 81 78 49 36 33 31 49 51 58 48 44 43 42 40 42 44 47 49 48 48 48 48
56 96 84 90 91 83 70 57 46 50 66 58 57 57 62 73 79 74 90 99 99 98 98 90 62 22 37 45 42 48 54 52 46 42 41 39 40 40 46 48 47 47 49 48
65 78 96 93 95 98 88 66 62 55 73 59 60 60 67 66 68 75 98 98 100 99 100 84 33 30 43 46 48 48 51 46 37 36 37 39 40 40 41 42 45 44 44 44
98 100 97 86 92 93 83 68 57 75 77 62 67 70 85 89 90 99 100 100 100 99 100 60 52 45 46 51 46 47 54 35 32 45 42 41 38 36 37 39 42 44 46 46
93 97 98 92 96 96 86 69 71 68 70 73 79 77 86 81 79 80 89 98 100 100 99 90 68 55 43 42 38 42 44 41 45 43 41 40 40 41 42 44 47 51 51 52
100 100 100 100 100 99 90 78 77 80 80 82 80 78 76 69 62 50 51 76 100 100 100 100 98 82 68 56 50 47 46 44 44 44 42 43 44 46 48 47 50 54 54 58
96 97 100 100 96 94 84 83 82 84 86 88 82 76 80 79 71 59 43 36 71 100 100 100 99 88 76 68 68 62 56 54 53 47 45 46 46 48 51 53 56 57 56 59
98 96 100 98 92 90 87 90 99 96 91 75 68 75 68 70 82 72 66 50 35 42 97 98 99 98 97 92 87 81 69 65 59 58 52 49 49 51 54 62 72 69 65 74
98 99 100 100 97 99 96 99 100 98 97 92 81 64 63 62 80 77 71 65 46 27 29 79 99 94 94 88 84 80 83 87 84 91 85 74 68 61 66 62 64 63 64 64

GFSCGP_850_rhum_048.txt.gz
RH
17 19 19 13 13 10 14 13 13 17 19 30 30 27 30 42 42 47 51 55 57 57 57 58 62 62 65 70 76 80 84 88 79 70 73 78 78 81 83 83 70 68 74 67
18 18 12 12 12 14 12 19 21 17 19 26 28 28 23 36 39 44 48 50 53 53 55 57 61 62 65 71 77 82 82 89 56 66 68 72 74 72 76 83 66 65 68 67
18 13 11 12 15 16 15 13 14 20 22 20 27 30 26 26 38 41 45 46 49 49 52 58 60 62 64 70 79 84 74 56 41 68 68 78 83 83 85 83 76 71 65 66
17 12 16 14 16 13 14 10 11 13 20 27 22 33 28 24 34 37 42 45 46 48 49 54 60 63 62 68 78 82 82 50 37 40 66 68 70 66 64 73 73 80 64 67
22 21 20 21 18 13 14 10 10 11 13 20 25 31 25 22 28 35 36 40 43 47 48 50 57 62 61 64 73 82 90 59 47 34 56 66 59 56 62 68 77 82 68 65
19 21 20 18 17 17 15 15 14 13 11 13 19 26 26 22 24 23 29 34 40 45 46 49 52 58 63 64 69 78 84 57 42 35 32 50 60 54 62 70 70 71 74 83
16 19 18 18 20 18 18 18 22 22 17 13 10 17 24 18 17 21 22 29 35 41 47 49 51 55 62 65 68 72 81 56 46 41 40 37 44 51 72 80 74 66 64 67
13 13 15 24 20 20 21 18 22 28 16 12 9 13 14 15 16 17 22 23 31 37 42 49 53 54 59 65 69 72 77 81 59 48 42 47 40 71 72 74 72 70 63 63
17 14 22 21 24 23 21 22 15 18 15 14 9 9 7 10 15 16 18 22 24 34 39 46 51 56 57 64 68 74 76 63 74 75 43 48 41 57 75 74 73 75 76 67
25 16 13 18 18 20 25 15 22 20 31 29 17 15 10 12 17 16 16 18 22 30 38 42 48 53 56 60 64 72 78 77 62 80 66 61 47 52 58 78 70 77 77 67
23 21 16 14 9 11 20 25 23 19 20 25 25 16 10 10 11 16 16 16 18 26 35 40 44 48 54 56 60 66 73 80 80 70 74 68 67 60 50 65 56 57 60 61
27 27 33 17 8 10 14 27 21 24 29 22 22 18 9 11 10 10 13 15 16 20 28 35 38 44 48 54 56 61 65 70 73 60 54 58 53 52 75 51 55 54 56 57
33 32 33 13 10 12 15 14 22 25 25 30 27 23 13 13 14 12 11 11 16 18 22 31 34 39 45 50 54 54 59 59 63 71 60 63 68 63 54 48 50 54 53 55
35 26 32 21 14 16 28 26 21 25 31 28 26 23 18 16 14 14 15 16 13 14 20 25 30 33 42 46 54 56 55 54 56 64 67 65 47 54 50 48 49 50 52 52
40 58 34 28 25 23 21 17 24 36 36 39 26 22 19 18 16 14 14 15 17 18 20 28 30 34 42 49 53 60 57 57 54 61 64 64 43 44 46 47 48 48 49 50
39 55 36 34 26 26 24 17 15 21 29 33 32 31 21 16 18 16 15 16 19 24 23 20 28 32 40 48 54 61 64 59 59 62 65 66 44 42 45 47 47 48 47 48
58 56 51 43 24 20 23 19 20 17 22 29 36 26 19 21 23 22 21 22 30 36 39 40 34 30 35 44 52 57 64 63 64 67 70 67 49 42 42 44 46 47 47 47
54 69 65 45 28 50 24 16 17 19 17 23 27 25 21 26 32 51 61 61 61 60 58 56 50 45 35 36 42 56 62 67 69 72 64 58 55 47 44 45 46 47 47 48
43 68 73 72 51 36 32 28 32 21 21 24 27 24 20 23 33 58 76 84 87 84 83 78 69 59 53 40 38 49 59 70 73 73 60 51 47 48 47 48 49 47 48 50
51 59 87 62 71 69 44 70 72 58 46 44 43 33 24 29 38 34 88 90 91 95 93 91 82 69 62 60 39 42 60 66 77 72 41 44 44 43 45 45 46 45 48 46
73 88 94 74 71 56 41 65 79 99 62 52 58 70 69 39 66 91 92 95 99 94 97 91 79 71 62 58 40 44 59 63 57 76 80 79 59 42 48 48 42 42 44 56
78 87 87 83 87 88 79 94 98 80 74 82 78 73 71 71 71 75 84 98 98 98 99 74 56 49 44 41 46 53 63 63 77 77 79 73 50 51 70 52 50 52 48 47
99 92 100 96 88 88 97 99 96 90 99 92 79 71 62 58 66 71 73 85 97 100 100 89 68 57 56 59 54 65 72 76 82 82 84 81 68 46 72 64 68 81 69 83
98 99 100 100 94 98 95 98 98 100 100 97 87 83 79 74 68 72 73 78 84 98 99 100 94 95 80 71 71 74 83 82 87 89 92 94 96 90 87 89 92 90 86 87
99 98 100 100 97 95 96 98 98 100 100 100 92 94 92 78 74 73 83 79 73 79 99 100 100 98 99 99 99 99 98 96 91 92 92 94 92 97 97 91 86 86 80 78
98 99 100 100 98 98 96 98 97 100 99 98 94 94 96 90 89 81 85 84 83 73 78 96 99 100 100 100 100 100 100 100 92 92 84 81 78 88 88 91 93 88 82 85

GFSCGP_850_rhum_051.txt.gz
RH
20 21 18 16 15 11 8 7 10 10 14 24 29 39 85 28 29 37 42 45 46 47 47 49 50 50 52 56 62 70 72 72 81 81 79 72 67 69 68 72 82 88 84 88
14 16 13 11 10 10 10 10 11 9 13 24 28 33 28 27 28 35 38 43 43 45 47 49 52 50 50 55 61 70 76 77 80 75 75 69 64 63 65 65 83 88 88 90
18 12 10 11 12 12 11 11 11 15 14 17 27 33 28 31 27 32 34 38 42 42 45 49 52 50 51 54 62 70 78 80 79 70 69 71 68 65 65 71 77 82 87 90
13 10 11 12 11 11 14 10 9 10 18 24 20 37 34 30 30 29 32 34 38 39 43 47 50 51 50 53 63 69 76 81 80 70 64 68 67 61 58 62 63 76 85 87
16 12 11 14 11 11 13 9 8 8 10 15 19 27 28 24 45 27 28 33 34 38 39 43 48 51 50 52 61 68 77 80 76 64 62 67 67 60 58 56 66 69 81 87
16 13 12 11 11 11 11 11 11 10 9 13 15 21 22 26 25 27 23 29 32 35 37 39 45 48 51 52 57 66 77 79 66 52 47 66 65 58 52 56 64 68 73 79
11 12 15 14 15 12 14 15 20 20 15 13 8 16 20 15 22 20 20 25 29 32 36 39 42 47 53 53 57 64 75 81 56 48 36 58 62 52 57 62 62 59 57 59
9 11 9 11 15 15 16 15 17 26 18 12 8 11 14 13 13 30 40 24 25 30 33 37 41 45 52 54 57 62 73 82 81 47 35 34 43 62 58 62 61 62 54 53
9 10 12 14 12 14 16 18 12 13 12 13 9 7 6 8 11 14 17 20 27 26 30 35 38 43 49 54 58 62 68 79 74 82 47 31 32 39 58 54 60 72 61 54
13 19 9 10 15 15 19 15 19 16 24 24 15 12 8 7 9 10 15 17 21 25 28 30 37 41 46 52 56 62 67 78 72 75 67 51 40 31 45 63 73 73 66 63
12 17 10 9 15 11 10 15 19 17 15 19 21 14 8 8 7 8 10 14 17 19 24 28 33 40 44 48 53 60 66 72 83 81 78 65 57 64 38 66 68 74 77 75
13 15 16 11 7 4 5 10 10 19 27 18 15 14 8 8 7 7 9 12 14 16 20 27 30 37 42 47 50 56 60 66 77 79 84 76 64 61 71 53 70 70 72 79
19 23 21 19 13 10 9 9 13 14 13 22 20 16 9 9 10 10 9 9 13 14 16 24 28 32 38 44 48 50 56 58 63 76 78 81 76 63 64 58 54 67 60 54
27 24 24 20 18 14 13 9 9 13 19 19 19 17 12 13 13 12 12 10 11 14 15 20 26 28 35 39 47 50 51 53 55 64 68 76 79 78 66 64 46 50 48 49
27 34 27 22 19 18 16 15 14 16 16 18 16 19 18 16 17 14 12 13 13 12 16 17 22 27 34 38 44 51 51 53 51 55 61 68 76 70 69 62 65 44 48 47
27 44 38 38 21 18 17 15 15 13 11 18 22 23 16 18 18 19 18 14 15 16 17 17 20 24 30 37 43 50 53 52 52 53 58 60 69 72 61 49 51 47 51 49
44 42 48 50 26 21 25 19 15 13 11 10 14 17 17 19 19 19 17 15 15 15 18 21 19 24 26 32 42 46 54 52 53 54 58 60 68 68 64 51 46 45 47 48
52 61 70 63 36 47 20 11 10 10 10 10 11 11 12 16 17 18 23 36 39 35 30 34 34 29 26 28 32 43 49 58 56 56 61 62 67 72 66 72 54 44 45 46
34 57 87 81 54 32 20 14 13 47 42 35 37 24 11 12 15 18 22 48 54 56 55 54 52 45 39 31 29 36 47 60 62 62 61 66 69 77 75 70 65 50 47 45
31 40 85 60 65 61 26 17 47 47 55 26 29 29 17 11 17 18 44 61 63 64 65 65 64 60 55 54 38 33 44 52 65 65 67 70 74 78 80 62 62 58 49 45
65 82 96 76 68 51 27 36 50 66 43 45 66 28 14 15 16 21 68 75 81 82 84 84 80 73 68 61 52 37 37 50 58 68 72 77 81 82 77 75 69 62 51 74
70 80 85 76 80 84 65 57 72 52 83 73 90 19 23 31 58 70 81 83 89 94 86 76 86 64 63 64 61 53 40 44 56 68 74 79 86 85 86 90 86 86 88 85
97 85 99 87 70 75 81 91 86 97 99 96 96 57 53 61 68 77 87 90 98 98 97 85 95 61 47 48 62 58 43 51 59 68 77 80 88 90 83 89 90 92 90 85
94 96 100 100 86 88 86 96 98 97 99 92 99 72 58 66 72 86 91 97 100 100 99 98 96 98 78 59 51 51 56 59 68 77 80 84 89 90 86 92 97 88 84 87
98 98 100 100 95 98 98 97 98 99 98 98 98 99 90 77 81 91 94 92 95 99 99 100 100 100 99 90 80 66 73 74 77 76 85 87 86 92 90 88 82 81 74 68
95 99 100 100 99 99 97 99 98 99 91 99 100 95 89 96 99 96 93 79 91 92 96 100 100 100 99 100 100 96 91 82 82 85 86 85 76 88 86 88 81 78 77 75

GFSCGP_850_rhum_057.txt.gz
RH
28 38 38 28 24 21 20 20 17 12 10 28 46 78 86 82 71 76 73 60 59 56 55 50 43 44 45 47 48 54 61 64 58 70 59 68 75 73 70 78 81 70 75 75
31 39 29 22 21 20 19 20 19 15 10 14 47 63 66 74 70 82 86 60 56 53 53 46 42 45 46 50 51 56 57 67 62 67 69 73 74 65 72 73 82 83 80 73
30 24 21 21 22 17 18 21 19 17 12 23 54 66 65 57 58 78 82 59 54 46 48 47 42 48 48 49 54 57 56 66 66 63 69 74 64 63 72 76 73 74 72 68
24 19 17 20 20 17 21 14 13 12 14 21 44 76 70 63 71 76 74 66 60 51 43 48 44 49 50 50 50 53 56 69 67 62 69 75 76 71 66 69 68 75 62 68
20 17 20 20 15 12 15 13 13 14 15 16 14 19 65 59 87 76 76 54 58 54 47 46 45 45 52 51 52 53 55 67 70 68 60 71 72 66 67 61 72 68 66 74
13 10 14 17 14 12 11 12 14 15 19 24 16 16 24 68 72 76 61 47 43 45 49 47 47 46 51 53 52 54 54 62 67 69 55 66 66 65 62 56 67 70 74 66
15 14 12 11 15 12 12 16 28 30 27 27 15 15 15 53 53 63 61 60 54 53 44 49 49 48 49 56 53 54 55 55 52 66 62 56 60 63 61 62 55 67 72 68
16 16 9 10 16 20 16 17 31 34 33 24 17 21 18 9 44 52 51 59 62 53 48 45 50 48 48 53 54 53 54 55 52 44 61 54 50 55 60 63 60 62 60 57
24 19 13 10 11 16 20 25 14 21 19 26 20 16 13 11 27 47 47 49 49 50 52 53 49 49 49 50 56 53 53 55 55 37 40 56 50 52 59 62 61 69 68 66
22 27 16 11 9 14 18 16 26 23 32 36 26 24 24 16 11 41 48 50 65 50 50 52 53 55 53 51 55 60 57 55 57 55 35 40 46 38 51 57 61 56 60 62
20 22 22 14 14 14 17 21 20 24 32 37 32 25 16 19 24 40 45 46 57 41 38 48 45 58 57 55 54 58 62 62 60 60 54 36 44 43 36 55 57 56 51 54
24 26 31 21 14 12 13 15 18 28 30 34 39 34 17 21 30 30 37 38 57 43 62 58 37 31 57 56 54 54 60 64 61 59 62 55 32 38 36 32 51 50 58 52
30 37 41 29 16 15 18 14 12 13 13 16 23 29 26 24 25 28 32 34 49 71 76 55 35 35 50 54 56 56 58 63 66 66 64 66 61 33 30 30 29 39 38 46
25 32 38 46 38 29 29 23 19 18 16 17 17 17 11 26 26 23 28 26 39 68 76 55 43 44 53 51 53 56 59 63 70 70 70 68 67 62 36 24 25 28 28 34
35 42 38 32 27 25 26 24 21 22 22 24 16 16 27 24 23 22 20 20 23 27 68 66 62 57 56 44 48 59 57 61 68 76 76 74 70 72 70 50 28 25 26 26
40 57 38 40 29 28 31 28 26 24 19 17 17 14 12 13 12 14 13 13 15 16 19 20 33 44 45 47 46 53 60 62 62 70 77 78 82 78 81 74 52 38 30 28
56 74 77 65 41 41 49 30 28 26 22 18 20 19 16 20 19 16 16 18 19 17 13 34 52 57 46 38 28 27 55 62 62 65 72 76 77 81 82 85 79 62 52 46
48 77 88 81 61 86 48 31 28 30 26 24 22 17 22 23 20 19 17 18 29 28 43 32 60 74 63 57 63 55 71 66 62 62 66 68 70 70 76 82 84 85 76 63
40 51 78 91 84 55 42 32 32 38 42 31 30 29 30 42 32 24 25 37 38 33 32 57 54 69 86 64 62 75 91 75 70 69 58 60 61 63 68 73 73 77 82 78
55 64 85 98 89 77 39 27 22 29 45 27 47 51 53 53 60 47 44 42 31 22 22 59 53 32 34 76 79 69 76 57 61 71 62 55 58 59 60 59 66 70 74 77
88 84 93 93 99 87 68 63 45 62 68 74 65 62 62 67 60 61 62 40 30 19 19 54 54 31 34 55 87 75 62 49 50 62 72 56 55 56 57 59 62 64 67 71
89 100 99 98 95 92 68 70 91 88 84 86 83 79 70 68 67 62 71 53 24 16 19 66 39 39 44 56 58 86 91 66 54 67 68 60 56 57 61 61 61 62 65 69
94 98 100 99 97 66 71 84 87 93 95 95 96 89 82 81 65 60 67 48 27 68 57 60 35 45 54 42 41 55 53 52 59 48 63 66 63 60 62 65 64 65 69 71
79 89 99 95 68 73 94 95 93 94 97 95 89 97 99 96 78 55 58 54 93 92 88 73 48 64 60 48 55 45 32 45 57 69 54 67 64 64 67 70 72 71 72 78
98 97 95 98 90 97 90 96 100 100 100 100 99 90 92 97 90 85 88 92 99 98 92 99 93 98 98 86 70 49 32 26 46 62 67 60 70 65 67 72 76 79 76 75
99 96 99 99 83 99 98 99 99 98 98 97 100 99 95 100 100 99 97 100 99 96 96 95 100 96 94 99 94 76 60 39 40 58 68 76 64 70 70 75 80 87 88 88

GFSCGP_850_rhum_060.txt.gz
RH
26 42 51 43 33 28 26 27 27 21 17 20 68 86 88 85 79 71 71 66 61 64 54 51 56 53 50 54 56 57 54 55 67 61 70 72 70 68 74 74 79 69 77 74
37 49 38 30 26 26 27 29 27 21 16 21 84 92 86 81 74 70 70 69 64 63 60 52 56 56 50 53 52 54 50 51 67 62 64 64 65 69 74 74 86 68 76 77
44 34 28 30 31 29 30 31 27 24 18 57 72 90 92 83 74 73 73 70 68 60 56 58 56 52 52 47 49 49 50 50 59 64 61 70 67 72 73 77 82 76 77 65
37 28 25 28 31 26 34 21 18 19 17 31 52 85 84 87 85 88 68 68 66 68 60 54 55 50 47 46 47 49 51 52 48 57 56 63 68 73 68 71 72 72 80 61
26 22 27 27 23 22 26 18 18 15 17 18 18 22 63 75 83 92 70 60 57 62 61 51 53 48 46 47 49 50 51 52 46 58 51 59 75 69 69 71 69 74 73 72
15 11 13 19 18 19 16 16 17 21 23 28 20 19 74 79 82 83 80 80 79 66 57 52 51 47 47 47 48 50 52 53 50 60 56 67 70 74 74 69 70 74 67 77
14 13 12 12 15 17 15 23 31 28 28 30 21 20 19 59 49 70 75 74 68 60 56 52 53 50 50 49 49 50 52 53 51 56 60 60 69 76 75 67 63 71 72 71
17 17 10 12 15 21 18 22 32 31 34 31 21 23 17 33 44 52 62 60 53 54 52 53 51 50 49 49 50 51 52 53 52 46 62 50 63 68 71 73 60 61 67 63
27 22 16 12 12 15 21 25 20 26 26 30 27 22 17 24 24 57 54 50 50 46 49 47 51 50 49 48 48 51 51 52 52 52 46 57 47 64 66 67 65 61 61 58
22 23 18 14 13 16 19 19 26 35 33 32 32 26 28 37 45 50 58 56 50 54 46 52 51 51 50 47 47 49 50 50 50 52 52 45 48 48 64 64 65 62 64 70
29 27 25 16 20 19 19 24 26 30 39 44 39 31 26 40 38 42 54 53 52 64 50 53 52 52 51 51 51 50 52 52 51 52 52 52 46 45 50 57 63 68 68 73
31 34 38 25 21 16 16 28 28 35 26 39 45 36 26 30 31 27 34 48 58 64 66 53 48 52 51 53 53 57 54 53 52 50 52 54 49 40 42 43 58 63 68 65
32 43 47 28 28 30 30 28 28 28 23 20 22 22 23 26 29 26 27 56 62 63 62 59 57 59 63 66 57 57 59 54 53 53 52 54 57 49 38 40 43 58 61 65
29 42 44 51 41 33 35 29 28 29 31 28 22 19 25 21 20 18 23 38 71 83 82 71 50 53 56 54 70 65 62 58 56 54 54 54 55 58 55 35 37 40 57 59
43 45 40 38 32 31 32 32 30 35 32 29 24 22 17 19 19 15 17 17 33 53 83 70 45 37 43 50 48 69 64 65 62 58 57 56 57 56 59 60 45 30 36 50
59 64 63 58 41 41 43 38 35 30 29 30 28 23 20 20 20 20 20 23 40 46 34 54 81 70 66 52 44 49 61 67 66 62 61 59 59 61 62 61 62 60 30 34
56 71 79 75 57 52 52 39 37 35 31 29 38 32 25 32 29 27 43 47 53 44 31 27 57 57 52 85 70 46 51 59 69 66 67 68 66 65 65 67 65 67 63 39
61 79 89 90 70 87 44 39 35 35 32 36 34 40 50 51 40 52 50 43 40 42 24 20 22 77 70 68 79 74 67 56 66 71 75 76 76 68 72 72 70 72 71 63
64 76 87 90 91 63 47 54 62 60 47 68 71 65 60 61 42 38 51 55 38 29 26 18 15 28 76 50 44 71 65 65 59 65 70 82 86 79 77 73 68 70 78 70
71 81 88 98 98 95 87 66 61 61 57 82 81 82 81 74 73 59 54 58 54 29 21 20 14 16 75 60 54 59 54 59 71 66 63 74 83 92 85 66 67 65 73 75
88 90 93 96 98 90 69 67 64 68 70 86 90 91 90 87 78 75 71 55 60 44 26 20 18 27 35 51 61 54 60 58 57 50 63 67 75 87 93 74 68 64 67 74
91 96 94 97 96 97 71 69 82 87 93 91 89 92 98 99 98 91 84 76 57 40 30 22 26 65 48 47 33 53 60 65 59 58 50 54 60 69 87 87 74 68 71 69
91 91 93 97 90 69 79 92 97 100 100 97 97 100 100 99 99 84 62 68 66 42 31 26 20 42 68 71 42 36 30 55 57 53 60 65 53 71 77 80 82 74 70 72
87 90 98 97 74 74 81 85 85 96 99 99 100 99 100 100 98 90 76 61 65 49 35 28 27 25 80 62 67 60 38 31 40 43 37 56 66 74 80 70 79 74 64 67
84 94 86 90 86 84 87 92 91 99 98 98 99 99 100 100 92 95 98 94 97 95 59 48 34 44 64 54 62 79 66 60 76 48 42 40 64 66 63 78 83 74 65 63
92 92 97 97 68 84 88 85 86 97 99 98 98 97 98 100 99 99 98 96 81 77 88 89 83 83 69 68 66 68 90 66 79 60 47 44 61 59 61 71 79 74 81 78

GFSCGP_850_rhum_063.txt.gz
RH
26 34 45 41 41 36 29 30 31 26 21 20 79 77 86 78 80 75 75 70 63 62 60 58 57 56 56 54 58 64 60 58 69 70 66 67 73 71 74 78 79 74 70 69
43 46 39 35 33 31 30 32 33 26 20 24 39 81 86 85 78 74 73 71 65 63 60 60 58 56 55 53 56 63 55 56 62 66 63 64 69 73 73 76 76 78 78 74
44 36 32 35 36 34 32 36 33 30 24 66 84 87 94 89 78 74 74 71 68 63 62 61 59 57 56 55 56 58 56 53 55 62 61 63 74 78 75 77 76 80 80 74
37 30 32 32 36 36 42 30 27 25 22 25 60 77 88 90 90 80 79 75 71 64 62 63 59 56 56 56 56 54 55 49 51 59 62 59 62 73 67 72 72 73 79 70
34 24 36 34 28 29 34 26 25 22 20 20 23 38 57 95 94 84 84 80 75 69 62 62 62 55 54 55 58 56 54 50 52 52 62 62 59 63 63 71 75 76 75 79
14 12 16 24 22 24 21 22 20 25 26 28 22 23 57 90 80 74 76 80 77 72 68 63 60 58 56 55 54 54 53 50 50 51 52 58 59 60 64 70 73 75 69 77
12 12 12 13 16 16 20 25 33 29 32 30 23 23 22 61 68 61 68 73 68 66 68 65 61 57 55 58 54 53 52 50 50 51 51 50 50 55 60 68 71 75 74 68
18 16 11 13 14 19 22 24 34 32 36 29 24 23 21 34 39 54 58 59 63 61 57 66 59 57 54 56 51 48 51 50 51 52 51 49 48 61 61 67 75 69 72 69
26 21 17 13 13 16 21 25 21 35 31 28 28 22 21 39 42 43 59 69 69 69 58 59 60 56 54 53 51 47 47 49 50 51 52 46 45 63 65 66 73 71 67 70
25 24 20 17 15 15 18 21 28 34 35 31 31 31 48 46 40 41 64 65 69 69 68 63 61 56 54 52 48 47 46 47 48 50 51 49 41 45 60 68 71 70 62 64
31 27 22 18 23 22 29 34 34 36 37 42 40 46 33 45 38 38 50 59 63 62 62 62 59 58 54 52 50 48 48 49 50 50 50 51 48 39 44 60 67 69 66 63
33 40 34 28 27 22 26 32 36 41 33 42 45 47 25 35 30 27 72 54 55 54 57 62 59 63 63 65 61 57 53 50 50 50 50 50 50 49 36 40 58 67 66 64
34 45 40 27 26 33 35 32 32 36 32 33 28 32 20 22 20 24 62 83 85 77 81 76 71 73 76 74 70 67 61 56 54 52 52 51 52 51 52 36 37 58 64 65
34 51 46 50 43 37 37 34 33 38 47 41 28 30 23 25 25 22 34 52 90 84 77 87 73 67 64 60 54 64 74 73 68 60 55 53 52 52 51 52 35 34 45 57
45 61 55 42 39 38 36 41 37 35 34 40 33 32 24 28 27 31 44 52 51 47 37 61 83 73 74 53 64 55 68 72 70 70 67 58 56 54 53 53 54 40 30 37
60 69 60 60 55 48 44 38 36 36 32 33 34 32 29 33 34 50 51 47 47 48 33 26 46 76 76 65 77 64 53 64 72 71 70 66 61 61 56 54 55 56 54 30
62 71 75 72 70 52 50 45 43 38 33 34 41 43 58 58 54 63 60 52 53 44 42 28 20 30 67 70 71 80 75 55 67 70 72 72 68 66 60 57 57 58 58 59
67 76 82 80 67 76 46 65 51 42 67 76 68 70 73 73 64 62 59 56 46 41 35 34 23 16 31 50 79 76 69 68 64 66 67 71 72 71 67 63 62 61 62 62
69 83 92 90 91 68 55 76 75 82 82 81 86 79 79 71 60 52 54 48 50 48 38 34 29 19 15 26 40 57 81 78 72 65 73 80 78 74 74 72 70 68 68 68
75 84 88 95 93 93 77 64 62 71 90 81 83 86 88 85 84 59 49 46 43 40 38 34 28 23 14 16 21 32 60 75 80 76 76 78 96 92 80 75 75 79 75 75
91 93 94 86 95 87 76 68 62 88 85 91 88 89 90 84 78 72 68 52 51 40 35 32 31 26 17 13 31 32 38 38 62 74 66 76 81 99 100 92 77 74 90 87
91 93 98 94 96 95 79 75 74 83 94 89 87 90 89 92 95 95 96 96 66 51 32 28 29 25 20 15 14 30 25 34 40 47 61 62 63 69 92 95 95 78 87 90
96 88 92 89 88 74 83 82 80 83 89 88 90 92 93 97 95 92 94 100 96 76 56 36 28 24 21 17 12 13 29 44 26 27 38 54 48 67 64 62 76 72 81 86
80 90 98 94 67 70 68 71 78 81 84 87 86 95 100 99 100 99 100 100 99 98 95 68 47 25 17 16 15 9 24 53 42 30 31 39 47 43 60 62 69 76 88 86
85 92 80 88 78 71 63 66 71 78 82 82 89 94 98 99 97 100 98 96 92 93 90 80 71 50 26 18 15 9 12 56 48 34 30 23 39 44 48 61 62 62 74 74
77 88 95 94 66 67 66 69 78 79 82 83 96 96 99 100 99 99 98 99 95 99 98 85 67 65 51 54 27 22 13 41 47 43 27 27 28 47 41 47 57 60 59 66

GFSCGP_850_rhum_069.txt.gz
RH
24 30 36 40 40 33 30 28 28 25 31 32 23 25 48 74 80 76 79 77 72 71 77 79 66 64 57 44 41 47 46 49 52 54 69 71 70 70 72 74 78 79 78 76
24 26 28 34 36 34 34 32 30 24 22 24 24 29 65 62 70 77 70 69 68 70 72 77 70 68 60 48 52 52 50 50 56 63 67 67 69 71 70 74 77 75 78 73
22 19 25 33 35 37 34 34 31 26 23 36 54 54 67 71 73 77 78 69 67 66 66 70 75 76 62 57 55 58 54 54 60 63 66 69 70 71 70 72 70 77 78 78
27 23 30 37 37 33 39 28 27 27 26 22 37 27 57 67 73 75 74 75 67 67 66 65 70 73 66 60 57 55 57 58 58 64 64 69 69 70 67 64 70 83 79 80
30 33 30 38 35 31 36 27 27 26 26 22 26 30 40 63 70 75 75 74 67 66 66 65 66 68 58 59 59 58 56 58 58 54 59 68 73 62 66 67 68 73 74 73
22 19 28 31 26 25 25 22 21 21 21 25 19 26 27 39 44 38 58 71 71 67 65 66 65 68 57 56 56 57 58 57 57 58 55 62 70 63 63 67 67 71 76 72
15 14 13 17 22 25 24 24 30 30 29 26 21 22 38 32 31 34 43 48 70 69 67 66 67 67 68 59 57 56 56 57 55 59 56 55 71 68 62 57 64 64 69 72
28 28 14 13 14 17 24 23 25 33 30 23 22 20 34 23 30 46 62 56 60 73 67 66 69 70 70 62 58 57 55 55 56 56 55 52 62 73 67 59 60 62 64 66
20 19 14 15 15 17 21 24 17 22 25 21 20 25 24 20 33 53 72 68 63 68 70 68 68 70 71 63 60 58 56 54 55 53 55 52 56 65 69 64 60 63 62 66
23 21 19 18 16 18 20 20 21 22 30 26 32 40 32 31 47 63 83 84 64 67 74 72 69 71 73 64 62 59 56 53 52 54 54 53 52 57 62 63 60 58 60 63
24 19 23 21 26 28 22 23 25 22 25 23 31 37 21 38 63 74 70 90 95 79 74 76 75 76 76 70 63 59 58 54 52 55 56 54 51 56 58 58 59 55 59 64
32 23 30 28 24 24 24 28 26 24 35 31 27 31 25 45 57 59 73 76 86 98 100 98 89 83 81 73 69 62 59 57 54 53 55 56 50 54 59 56 53 51 60 59
31 29 31 28 23 23 28 27 26 21 23 35 26 26 27 48 51 51 57 65 68 72 81 90 96 99 100 93 87 76 68 67 63 59 57 58 58 52 56 55 53 51 56 62
33 35 31 21 29 29 32 29 26 24 24 29 28 29 33 48 48 46 48 51 49 50 56 60 76 96 100 96 96 90 80 82 83 73 62 60 59 56 53 55 54 53 48 50
36 40 39 39 34 32 32 30 27 26 28 26 29 28 40 51 49 49 48 48 48 41 37 41 40 48 71 98 98 95 90 84 82 90 85 64 59 56 55 55 55 54 55 50
41 51 44 48 41 36 33 34 31 28 25 25 25 37 52 55 55 56 56 54 54 54 56 36 38 32 33 50 83 84 89 88 83 83 83 88 74 66 61 58 57 55 56 56
50 51 46 45 48 39 33 41 37 35 47 37 29 56 61 54 57 59 57 63 66 65 62 58 39 32 30 29 32 52 76 96 95 78 59 72 84 73 70 67 65 62 59 57
49 65 65 49 44 45 50 48 49 48 63 59 57 63 64 65 63 56 57 69 70 70 69 60 50 32 28 28 26 27 37 71 93 98 70 70 72 78 80 79 72 64 63 62
51 54 75 63 49 48 51 51 50 50 64 68 64 62 62 64 56 55 73 70 70 72 72 70 62 42 31 28 26 24 24 28 70 89 95 87 96 78 79 86 77 70 69 66
53 57 61 74 58 51 54 49 55 56 46 71 69 66 64 63 48 38 68 68 64 74 65 66 62 51 38 30 26 23 22 22 26 54 73 99 92 92 97 82 83 85 82 74
65 74 75 68 67 58 54 53 64 66 61 74 74 69 70 64 67 71 72 73 77 79 80 56 49 76 67 43 32 25 20 20 22 22 61 45 66 78 81 86 93 97 95 93
65 78 86 83 88 77 60 56 60 62 76 74 73 73 75 74 75 75 75 78 82 82 84 86 84 56 75 65 50 38 27 20 20 20 18 35 36 63 75 80 86 89 90 92
88 74 86 73 67 59 66 54 63 66 66 71 74 70 70 73 76 79 81 83 85 88 88 91 89 91 81 89 82 55 52 37 22 20 18 15 33 43 30 43 61 69 90 98
73 76 88 83 58 61 66 74 74 75 72 75 73 68 70 82 84 81 83 91 94 98 100 99 98 94 94 94 96 85 72 75 46 29 20 17 15 36 33 34 41 53 86 92
71 80 80 79 65 68 69 71 70 75 76 77 81 84 85 89 81 82 89 96 98 98 98 98 100 100 98 98 97 96 68 68 79 52 38 26 20 15 40 32 28 38 56 87
76 75 88 89 61 58 55 50 56 75 80 83 88 87 89 94 89 89 92 92 89 87 92 90 96 98 99 97 99 96 78 71 92 83 56 50 34 24 42 46 24 21 23 36

GFSCGP_850_rhum_072.txt.gz
RH
17 20 19 17 17 18 16 22 25 22 30 27 24 20 40 52 59 67 82 63 59 56 57 60 74 84 72 74 73 80 86 92 84 88 86 84 82 84 86 88 83 75 83 72
18 19 14 16 20 26 23 24 24 20 18 21 17 17 33 36 48 59 74 74 59 56 56 59 70 71 66 69 69 79 82 90 68 81 83 80 80 78 82 87 86 90 78 70
16 13 15 25 29 29 24 22 24 22 19 18 22 24 39 41 43 58 61 58 56 54 54 60 67 69 61 66 69 66 72 85 61 83 85 94 93 87 73 87 88 87 77 74
13 13 17 24 28 24 24 20 22 24 22 22 18 26 32 46 48 64 65 57 52 54 54 57 60 63 59 61 70 74 62 86 69 73 87 92 77 70 71 78 80 89 82 73
17 15 18 23 24 23 22 22 23 22 23 21 17 21 38 35 47 70 69 64 53 57 60 54 57 60 57 60 65 75 81 62 90 66 80 90 78 72 78 75 82 90 70 74
18 15 16 20 23 24 23 23 21 21 20 26 17 18 24 29 33 31 48 59 57 51 59 56 54 56 58 58 64 71 82 58 61 73 60 70 87 82 70 78 81 79 83 87
20 22 18 20 27 24 24 22 24 24 23 21 14 18 31 26 29 35 37 36 54 52 53 54 55 56 57 56 62 69 83 62 57 58 60 56 62 70 90 83 75 76 79 78
21 25 19 19 23 26 25 20 18 26 21 17 17 19 26 25 38 49 50 39 37 52 50 53 55 56 58 60 66 70 77 56 59 58 56 58 56 84 84 84 69 74 72 75
20 20 12 13 12 14 23 24 13 16 15 14 16 27 20 24 42 52 65 48 43 49 52 53 55 57 58 62 66 73 76 54 55 56 57 56 56 58 79 83 87 78 78 74
16 23 15 14 12 13 16 15 21 17 22 22 17 24 27 36 54 53 72 86 58 53 54 53 57 58 59 62 65 72 74 76 54 54 60 57 54 54 55 82 93 84 77 83
16 17 18 15 18 18 16 17 17 14 15 17 21 24 23 45 60 62 67 77 86 94 84 74 70 63 63 64 64 68 72 76 80 67 67 63 68 55 52 54 80 89 89 88
20 14 18 19 18 17 18 18 17 18 24 18 17 28 31 40 55 66 66 67 70 74 83 99 88 81 76 68 66 65 69 70 74 77 79 64 61 77 81 55 54 69 85 89
24 21 24 22 18 19 19 19 18 17 16 20 17 29 34 42 50 59 57 59 62 63 69 85 98 100 98 94 88 73 67 65 68 85 83 62 62 63 75 70 55 55 62 66
28 22 29 20 20 17 24 20 18 18 18 19 19 34 40 40 43 46 49 51 53 57 58 56 58 89 99 100 98 97 96 85 72 72 83 87 66 60 75 74 57 53 56 57
25 28 26 26 22 20 19 19 18 20 20 21 23 27 38 39 39 40 41 43 50 54 56 56 47 37 47 76 96 99 99 98 100 93 82 84 93 91 84 86 86 55 54 57
24 34 29 30 26 24 23 22 21 18 19 20 20 34 34 41 43 42 44 45 47 49 54 57 54 40 33 32 40 74 91 97 98 96 98 95 89 93 97 79 58 76 73 55
31 31 34 26 29 24 23 21 20 20 23 21 23 36 38 38 42 44 42 47 54 54 55 54 55 50 36 31 32 28 52 84 94 100 93 88 91 97 100 100 99 71 60 70
33 39 32 25 29 29 36 31 28 24 35 32 40 43 44 46 44 42 50 53 54 55 57 57 52 55 60 37 27 25 26 30 71 99 99 99 91 97 98 98 100 99 99 97
33 33 36 39 28 30 32 34 31 36 42 41 39 41 41 42 37 47 54 54 53 54 55 58 59 60 66 68 51 27 23 24 23 41 92 100 100 98 89 97 94 95 98 100
32 38 43 39 47 37 35 35 38 33 34 47 45 44 42 38 24 45 54 53 54 57 59 62 63 64 62 70 68 65 64 26 21 22 30 73 99 99 65 86 89 93 97 95
48 49 63 44 51 38 37 38 41 40 49 50 48 48 46 40 47 54 55 58 62 63 66 68 65 66 67 72 76 76 76 71 30 21 22 24 52 67 73 93 94 87 97 94
49 64 67 52 58 77 40 44 47 51 51 47 50 50 52 52 52 56 57 61 66 69 71 72 72 71 72 75 79 80 83 86 49 23 19 19 19 28 49 76 89 92 91 90
73 54 71 57 55 48 47 42 52 45 48 50 49 49 50 49 54 58 57 60 67 74 78 79 82 84 83 80 82 85 87 93 89 53 22 18 19 24 28 45 43 46 94 94
46 51 75 65 34 45 50 49 52 51 48 53 51 51 52 55 58 58 58 61 66 72 81 84 90 89 88 88 87 87 89 90 92 89 72 26 19 18 20 42 68 73 66 82
46 53 57 61 47 48 47 49 52 56 58 58 56 59 61 62 61 62 62 65 68 74 81 90 92 96 94 92 96 96 90 90 88 88 85 80 64 25 31 59 68 71 56 89
50 53 73 73 45 49 40 51 58 59 60 61 61 63 63 65 66 68 67 70 79 78 91 98 97 99 99 98 96 99 99 97 97 94 83 75 71 68 64 67 66 62 47 22

GFSCGP_850_rhum_075.txt.gz
RH
15 15 18 14 13 10 11 15 18 16 20 22 25 45 40 45 50 53 68 76 52 49 48 51 47 56 60 61 67 74 75 84 82 82 71 68 74 79 78 84 91 70 95 72
14 16 12 11 10 11 13 13 16 17 20 20 18 18 31 38 43 53 68 74 58 51 49 50 49 60 65 61 68 73 78 90 87 78 71 64 71 69 73 80 86 89 91 86
14 10 10 10 13 16 17 16 16 19 17 18 16 18 28 27 33 50 62 60 62 53 50 49 53 59 63 60 65 74 81 90 89 74 78 79 67 76 80 81 75 84 82 92
12 9 10 12 16 18 18 12 13 16 19 22 16 23 27 28 31 54 66 57 53 54 51 48 53 60 69 57 58 70 82 88 90 83 72 78 74 68 65 70 72 80 90 95
13 10 11 17 19 17 15 12 14 17 18 15 18 20 43 31 37 51 53 49 50 52 51 52 56 58 62 53 59 72 88 90 84 82 79 80 70 67 64 72 85 81 92 89
12 10 10 11 13 16 16 17 17 16 16 19 15 14 39 33 57 43 46 60 51 48 51 54 55 59 61 50 53 67 89 92 92 94 72 90 79 72 66 67 83 77 76 83
18 16 11 10 14 17 19 21 24 25 21 19 13 13 28 25 25 25 38 46 49 50 47 54 56 55 57 52 48 59 84 94 90 94 93 92 92 81 79 82 72 74 76 68
18 21 13 11 16 21 21 18 17 23 18 15 12 17 27 27 35 39 36 31 46 46 51 48 51 60 57 53 49 53 73 91 93 89 94 94 93 82 77 76 68 67 75 77
17 16 13 14 15 16 20 22 12 12 10 11 15 23 23 31 37 50 60 36 30 43 46 49 50 53 54 57 51 51 63 86 92 90 94 95 94 75 69 70 71 72 73 75
17 20 13 13 13 14 15 14 19 15 20 17 15 24 23 36 42 52 60 64 73 78 86 68 63 53 53 55 53 52 59 78 86 85 90 92 95 93 67 78 82 71 71 74
12 17 17 13 15 15 15 18 16 13 12 15 18 27 27 45 48 53 63 64 68 85 93 94 85 75 70 68 57 57 58 67 79 81 81 85 89 90 95 87 88 87 82 85
12 14 18 17 13 13 13 13 15 18 20 13 14 31 30 46 52 57 63 65 68 75 89 100 98 83 71 77 78 81 57 58 65 71 78 80 84 86 86 94 89 92 90 86
16 13 20 20 16 14 16 14 14 12 12 17 16 37 31 52 55 58 58 60 64 64 70 88 95 95 89 83 83 78 78 71 56 62 68 74 77 83 83 85 91 90 88 83
30 15 22 23 17 14 18 15 14 14 16 16 17 41 37 42 50 51 53 56 57 60 59 64 77 86 96 100 93 87 85 85 78 78 65 74 84 83 90 87 86 90 88 67
18 23 20 18 15 14 15 16 14 16 14 16 31 36 36 36 37 44 48 49 52 55 56 56 60 44 63 77 94 95 99 97 90 80 83 86 79 83 82 89 87 89 91 85
16 25 23 23 19 17 17 15 15 14 15 16 23 36 30 33 37 39 42 45 48 51 50 52 56 55 44 39 43 70 91 92 92 90 90 97 91 89 93 92 95 95 94 92
26 19 25 25 21 21 24 17 15 13 13 17 24 32 32 33 35 36 39 45 45 46 48 47 50 55 65 62 58 57 44 66 96 97 88 83 80 89 91 93 91 95 97 96
28 31 25 24 24 36 22 22 15 15 18 27 31 29 29 34 36 35 41 44 45 46 47 48 45 50 60 65 56 50 58 28 29 71 100 100 93 91 92 88 92 90 92 92
19 27 32 31 27 22 26 26 24 27 32 27 32 32 32 32 32 43 44 44 44 46 46 49 50 52 57 59 63 62 58 40 32 23 35 87 100 100 99 91 95 97 88 91
20 28 32 31 35 28 29 23 25 21 35 31 30 30 28 27 24 41 47 46 47 49 52 55 55 52 53 61 61 64 65 66 71 48 24 23 46 91 93 95 99 100 97 100
35 34 44 37 39 30 30 28 27 34 38 34 30 32 31 26 41 46 46 49 52 55 58 62 61 60 63 64 67 71 71 70 79 79 66 40 21 22 47 74 85 89 99 98
38 53 54 40 41 63 31 31 34 43 41 38 36 38 38 40 40 44 45 47 51 56 59 62 62 65 70 72 72 73 75 81 85 83 72 47 36 25 20 30 34 61 88 97
57 39 73 43 51 44 39 36 44 41 42 38 38 37 36 35 40 44 45 48 51 55 61 64 67 71 75 78 81 82 83 89 90 88 86 75 48 40 34 19 19 33 63 68
32 34 58 45 33 36 37 38 38 36 36 39 37 37 38 40 44 45 47 51 53 56 61 65 72 74 78 82 84 85 86 89 89 88 87 82 74 59 50 56 22 24 50 58
38 36 43 42 35 35 36 38 39 41 40 42 41 43 46 48 47 50 51 55 58 62 64 71 78 80 81 84 89 88 88 90 90 87 82 78 72 67 60 57 58 55 51 61
35 40 58 64 36 38 38 36 41 45 46 46 45 49 52 53 53 54 54 60 67 64 67 75 80 86 85 89 89 91 94 98 97 91 83 75 72 67 60 59 56 51 52 46

GFSCGP_850_rhum_078.txt.gz
RH
18 18 17 16 13 13 14 15 18 26 25 20 44 71 73 44 45 46 46 47 44 43 49 48 50 46 50 60 66 67 68 74 72 72 77 73 76 77 80 81 91 87 70 64
14 16 11 12 12 12 12 12 13 28 29 38 48 55 62 48 46 48 46 62 50 47 48 50 48 53 57 62 66 70 75 77 73 66 71 70 71 77 77 78 91 90 76 62
13 10 9 11 12 12 10 11 14 27 44 33 32 54 66 47 43 47 52 60 57 54 49 51 49 58 60 65 66 72 77 81 73 72 70 79 72 82 78 76 86 81 80 66
11 8 8 10 12 10 13 10 12 22 23 23 18 31 35 37 52 53 54 55 61 57 52 53 55 59 66 64 68 71 76 80 68 77 68 69 75 75 70 68 80 80 72 73
12 10 10 10 11 10 14 11 13 19 19 17 16 19 27 36 65 58 55 53 54 54 54 51 48 56 66 63 64 68 73 83 69 73 74 71 66 68 71 77 79 85 84 81
9 8 8 9 9 12 13 14 11 14 19 21 17 17 45 56 71 69 52 53 53 49 52 50 49 55 59 61 56 65 74 80 76 62 73 73 78 78 72 78 59 75 72 74
15 12 7 8 11 13 14 18 20 23 25 22 13 16 36 59 73 80 39 53 58 65 52 50 50 58 62 60 56 66 77 77 71 61 72 72 74 84 90 75 66 76 78 76
20 20 14 10 10 13 16 17 20 28 22 17 13 17 33 36 70 75 34 39 48 52 57 58 54 57 60 56 57 63 65 68 70 69 60 57 58 67 81 68 83 73 64 72
24 18 11 10 9 11 16 20 15 14 13 14 18 30 32 36 43 46 52 58 83 94 87 82 60 60 59 57 55 61 53 53 56 60 73 65 58 52 73 67 67 70 74 77
17 25 13 10 9 12 17 15 19 17 25 28 23 34 40 42 48 51 53 62 79 99 99 83 81 70 59 65 57 59 56 53 51 71 71 76 68 63 68 70 74 75 80 79
15 19 19 14 16 17 19 25 18 16 16 22 33 44 31 44 46 54 54 65 82 97 98 93 71 85 87 71 59 74 66 61 66 82 87 84 78 70 58 60 59 67 70 70
13 14 27 16 11 11 13 16 16 21 26 18 48 63 41 45 50 57 60 65 71 91 98 98 91 96 90 76 86 84 75 85 62 82 85 83 84 81 83 69 63 66 56 59
21 16 22 20 14 12 13 13 13 12 14 23 40 43 43 50 54 58 60 62 65 72 84 91 100 100 92 83 94 85 79 74 88 86 75 81 82 86 87 82 80 80 83 59
24 16 25 46 27 15 16 14 13 13 16 17 36 55 55 55 55 56 57 59 60 62 69 64 78 89 97 95 93 92 80 67 83 84 90 80 76 79 79 83 82 84 83 86
15 18 17 19 16 14 13 13 13 15 16 26 44 48 51 53 51 52 54 54 55 54 57 62 62 58 78 84 90 99 96 90 86 93 76 71 95 85 83 83 85 86 87 83
14 22 27 25 16 16 17 13 13 13 13 16 33 38 34 42 47 47 48 49 50 50 51 54 59 63 48 43 61 75 91 98 92 93 98 81 80 87 86 82 83 88 86 86
20 22 35 32 18 19 23 17 14 14 12 41 50 40 32 35 37 41 44 45 46 47 47 48 54 59 62 59 47 53 50 67 84 87 98 92 74 59 62 93 90 87 86 86
25 35 29 34 26 38 20 13 14 15 16 26 34 34 32 33 34 38 41 43 44 45 47 46 46 55 59 65 46 38 52 35 36 49 61 96 98 91 81 91 95 91 89 87
16 23 32 36 59 36 26 23 20 17 22 25 29 29 31 33 37 40 40 41 43 45 47 49 50 51 56 61 62 62 68 63 68 45 26 39 71 96 100 99 96 93 91 89
17 22 35 31 34 35 30 20 19 18 32 28 30 30 31 29 39 39 43 42 45 48 53 56 54 52 56 65 62 68 67 68 76 64 48 29 24 29 64 88 93 98 95 92
29 30 38 36 35 38 30 23 22 35 32 28 27 28 27 28 42 46 45 49 50 54 57 58 59 62 69 70 68 73 75 75 81 80 63 46 32 24 26 26 52 75 82 84
38 48 50 34 43 57 27 27 30 40 34 30 30 34 34 41 42 42 44 46 49 52 56 56 60 68 72 79 80 82 82 84 82 70 65 63 48 38 31 25 21 19 22 45
54 38 72 43 59 43 35 36 43 39 37 35 35 36 36 36 39 41 42 46 48 52 58 58 63 66 74 81 88 88 90 85 78 78 64 47 42 38 35 34 41 27 20 18
31 28 46 46 37 36 38 37 40 38 40 38 36 34 31 32 39 41 44 48 51 56 60 64 69 72 76 81 84 88 86 88 88 81 79 83 72 45 37 39 43 49 53 34
38 31 35 38 33 32 32 34 34 34 33 36 34 33 34 39 42 44 48 52 58 60 64 71 75 77 81 86 90 90 91 87 71 67 70 71 77 71 68 64 62 58 55 56
33 41 59 64 36 38 36 32 36 38 37 38 37 40 43 46 46 49 50 60 63 62 64 72 75 82 84 87 90 92 94 95 90 75 73 80 78 78 76 72 61 53 58 60

GFSCGP_850_rhum_084.txt.gz
RH
23 26 29 26 28 26 24 24 29 44 57 76 84 84 80 71 77 58 49 47 45 47 48 46 48 51 63 60 60 60 62 62 55 70 72 76 75 72 71 73 71 69 65 74
26 31 25 22 23 24 24 24 22 49 50 64 79 80 73 73 78 68 52 48 47 45 47 50 51 59 54 57 58 60 65 65 51 68 76 76 73 71 74 74 72 68 70 76
31 25 21 23 23 22 22 24 23 48 58 63 72 76 71 60 59 73 54 47 49 48 50 47 49 49 49 54 51 54 62 66 68 54 70 78 82 78 72 72 70 77 74 71
24 19 21 24 24 19 26 18 16 47 52 64 56 69 84 75 65 70 59 49 50 48 52 53 50 49 48 50 52 56 61 68 71 65 71 77 77 75 69 68 74 74 78 76
22 18 19 19 19 15 17 15 17 34 47 68 65 76 72 78 83 81 67 56 52 50 50 55 51 51 50 49 53 54 59 64 69 63 71 78 80 76 71 72 75 78 76 72
18 12 14 14 12 12 12 15 28 37 43 54 51 65 75 80 73 70 73 59 54 55 55 55 56 52 49 51 58 61 57 54 58 64 72 77 79 74 72 69 72 78 71 75
22 19 14 11 13 12 14 30 40 37 50 54 42 60 52 64 67 67 71 54 57 54 57 56 58 53 53 56 61 62 63 62 60 62 80 76 74 77 72 76 68 74 74 74
31 27 17 12 13 14 17 29 44 36 49 39 36 64 73 80 63 70 68 65 56 60 57 58 56 56 56 60 60 59 64 63 66 58 74 78 78 72 71 65 71 70 74 72
29 28 21 18 11 13 15 24 25 28 31 30 78 74 68 79 84 85 90 99 100 82 75 65 65 63 65 65 61 62 61 62 60 53 62 76 72 70 65 70 70 68 73 69
23 31 20 18 13 12 15 19 28 39 38 37 87 91 92 90 90 85 88 97 100 100 98 83 70 72 68 72 72 68 65 56 47 41 44 66 68 65 62 68 66 73 73 71
27 26 24 23 20 18 26 29 38 37 41 43 83 91 83 89 88 89 91 98 99 100 100 100 90 85 68 73 80 72 78 66 65 59 60 60 56 64 54 62 65 72 73 70
29 28 30 32 24 22 23 26 36 41 36 66 84 97 74 85 88 86 89 93 98 99 100 100 100 99 90 98 88 80 89 74 73 68 63 64 59 63 62 62 62 74 72 71
25 31 41 35 27 29 23 19 21 32 45 57 59 94 81 84 82 79 84 86 97 100 100 100 100 100 100 100 99 83 86 85 76 74 68 69 67 70 74 71 70 70 68 72
25 28 32 44 40 31 26 21 21 26 34 58 80 95 86 79 77 74 75 80 94 99 100 100 100 100 100 100 99 96 88 76 72 77 88 77 71 70 75 75 69 72 66 62
24 33 25 25 25 25 23 22 22 23 28 45 84 84 82 74 69 68 70 75 76 80 87 94 98 99 100 99 100 94 75 64 67 92 80 79 79 70 67 72 72 77 81 80
32 42 32 34 32 31 28 24 32 37 50 71 81 91 66 64 62 60 60 63 68 68 64 64 72 72 81 91 94 94 87 89 84 88 85 88 74 76 67 66 63 73 68 73
42 47 49 43 44 27 36 31 28 48 51 70 85 80 63 62 57 56 55 58 61 64 65 66 62 61 66 64 62 70 84 99 100 100 98 92 82 85 78 75 58 65 65 69
34 49 57 54 48 47 31 27 24 46 56 63 67 63 59 58 56 54 54 54 55 55 58 61 63 65 67 68 65 70 64 55 72 83 98 96 95 92 82 79 75 70 60 71
30 48 49 56 65 48 33 27 26 31 60 58 60 57 56 56 54 53 49 52 55 54 55 63 67 66 69 69 71 78 79 73 58 58 56 66 80 94 82 80 95 81 71 75
35 50 52 66 63 53 40 27 26 25 53 52 52 53 50 48 64 57 50 49 50 51 53 63 64 63 62 67 70 70 75 74 69 64 56 52 46 48 60 77 72 76 82 85
68 55 56 66 68 61 46 36 23 52 54 43 48 47 46 59 48 51 50 52 52 53 53 55 58 60 59 58 58 62 68 71 67 66 60 51 43 39 37 35 38 38 37 36
67 78 86 67 63 64 44 40 43 49 49 48 46 47 46 46 48 53 52 54 54 52 53 53 52 55 61 58 55 56 58 59 54 47 41 35 31 28 26 24 25 26 26 28
64 66 80 74 79 53 43 44 38 37 43 48 45 48 47 50 50 51 53 54 55 55 55 58 59 67 72 70 65 65 58 50 44 38 36 34 32 29 27 27 26 25 25 25
49 45 73 61 54 45 42 42 39 36 36 40 41 45 45 47 48 49 50 52 53 56 57 60 61 62 66 71 70 65 60 53 46 39 32 29 28 27 28 28 29 28 31 35
56 45 51 58 50 40 44 40 40 40 38 37 38 39 41 43 45 47 49 51 56 60 60 58 56 52 54 60 56 51 47 44 40 37 35 33 31 28 27 27 26 26 29 33
46 58 78 82 56 52 45 42 41 40 39 40 36 35 36 40 44 46 50 51 56 60 58 61 64 55 54 60 55 49 44 38 29 27 30 32 31 32 32 29 24 27 25 25

GFSCGP_850_rhum_087.txt.gz
RH
26 31 32 29 27 25 26 26 26 48 59 70 73 80 79 75 76 54 47 49 50 55 60 54 50 57 65 62 62 65 66 68 65 66 72 71 69 73 73 75 75 74 69 74
31 33 25 22 24 25 25 26 35 70 71 73 81 78 77 78 80 61 51 50 51 55 60 57 51 60 64 63 62 63 64 64 64 60 64 65 70 76 76 75 74 78 68 69
34 24 23 22 24 24 24 26 24 65 75 74 77 82 80 74 79 73 62 53 52 52 59 56 60 61 63 62 61 61 64 62 59 56 65 72 77 79 72 78 74 69 72 70
27 23 22 24 27 24 25 21 21 64 64 77 67 78 84 75 77 77 75 65 54 51 48 52 59 62 60 54 58 60 66 66 66 60 67 66 68 73 71 75 75 79 78 67
27 22 22 25 25 21 24 17 18 55 56 67 71 71 61 72 77 76 83 64 54 54 52 52 56 54 54 52 55 55 60 64 67 69 55 69 71 71 74 71 74 74 78 68
21 16 18 20 17 18 15 15 31 46 55 67 61 59 70 86 67 69 76 64 56 56 54 51 59 55 53 60 58 54 58 65 68 66 55 65 76 72 76 70 69 74 80 77
25 22 17 13 15 14 18 29 41 63 64 64 56 66 58 86 64 66 73 70 62 59 54 55 56 60 62 57 58 54 57 61 66 64 56 61 70 74 75 72 71 72 72 73
34 28 20 14 17 17 23 24 44 46 62 49 59 62 81 89 84 64 72 74 70 70 63 57 57 58 63 60 58 56 60 60 64 62 60 58 72 72 71 70 72 69 69 72
34 30 21 17 13 14 20 28 26 36 36 42 84 84 79 79 88 96 98 84 82 75 77 69 66 65 64 60 54 57 59 62 64 66 66 59 69 70 69 70 67 69 71 73
25 34 22 20 15 15 17 21 29 40 40 43 91 92 87 91 93 93 96 100 99 96 88 79 72 70 70 63 58 61 64 67 68 70 71 66 68 70 71 72 76 70 67 71
27 26 23 25 26 19 23 32 42 39 45 57 94 88 83 91 92 95 98 100 99 99 100 96 84 78 72 74 67 74 68 73 78 73 74 68 67 75 71 70 74 69 65 69
28 30 29 30 24 26 22 25 40 41 45 73 82 90 82 89 90 93 97 98 100 99 100 100 100 98 78 70 72 76 81 80 83 76 67 72 71 71 72 68 66 72 70 72
23 34 43 36 34 31 25 22 22 43 58 68 63 80 83 89 89 90 91 94 99 99 99 99 100 100 100 94 86 76 83 82 82 81 80 67 71 70 67 67 69 65 68 73
25 32 36 52 38 34 28 26 22 28 37 59 62 91 96 93 87 81 81 92 99 99 99 100 100 99 100 100 96 84 72 89 85 82 97 72 72 73 72 70 71 76 72 78
26 36 30 33 30 30 28 27 35 27 29 42 68 93 90 88 82 78 79 88 89 94 99 100 100 99 99 98 100 99 97 83 82 78 92 91 80 80 78 78 71 70 76 68
38 42 32 42 35 33 33 30 30 53 74 86 88 91 79 72 71 74 75 74 73 76 82 85 94 99 100 100 100 100 96 78 76 86 88 81 68 69 87 76 73 72 67 72
47 46 47 46 48 44 55 35 35 51 68 79 77 77 73 72 66 66 68 69 69 67 68 73 71 70 77 94 99 100 99 98 96 89 85 93 98 92 88 81 78 78 68 65
36 59 61 49 43 64 46 28 38 66 68 73 78 73 67 65 61 60 62 65 67 66 63 66 68 70 73 77 70 74 89 97 100 100 99 100 100 96 80 73 82 76 74 65
37 53 65 55 60 46 34 28 27 41 69 68 70 65 63 60 56 57 56 56 61 62 65 67 72 71 73 82 86 78 72 72 74 81 90 96 99 99 86 87 86 89 85 76
46 52 54 73 57 43 38 32 29 30 60 59 61 63 62 56 75 71 56 56 57 60 65 66 68 70 69 78 85 77 74 71 59 59 58 59 63 73 83 87 82 79 73 78
66 64 58 72 67 60 46 41 34 44 51 57 60 59 58 56 56 55 57 54 52 55 63 64 64 63 62 64 68 68 67 67 62 60 58 52 46 43 41 42 42 52 70 62
62 75 85 70 66 59 43 41 34 43 49 51 58 57 56 52 52 53 54 53 54 54 56 57 57 57 55 50 47 48 51 49 48 43 39 36 33 31 30 29 28 28 28 37
68 68 80 72 76 50 50 42 36 35 45 54 52 53 52 48 51 53 55 54 54 52 49 47 44 43 45 46 45 42 41 43 40 36 33 31 30 30 29 28 27 28 26 25
50 56 78 68 60 48 44 38 36 35 34 43 49 50 53 54 54 56 56 55 53 51 49 50 51 51 50 48 43 38 41 38 31 28 27 26 26 26 26 26 25 25 26 27
60 48 59 59 49 46 45 43 40 37 38 37 41 43 46 47 52 54 54 54 53 54 56 60 59 56 51 48 45 40 39 36 35 31 29 29 28 28 28 26 24 25 27 25
53 60 78 80 41 45 40 43 42 40 39 39 40 45 48 46 48 50 51 52 52 55 58 57 52 49 47 48 48 43 41 34 26 25 27 29 30 30 29 27 28 28 24 25

GFSCGP_850_rhum_093.txt.gz
RH
28 37 44 31 22 25 47 49 53 47 57 62 68 82 82 83 70 70 64 67 70 73 67 67 64 63 67 67 65 66 76 75 75 73 69 69 71 75 74 73 77 74 68 68
30 39 32 26 22 21 26 36 35 63 58 67 78 82 82 71 67 63 62 64 66 66 71 71 63 62 62 65 65 65 70 70 72 72 72 72 70 73 74 76 77 76 67 66
26 29 25 26 25 23 22 24 55 49 75 72 79 88 78 67 70 64 65 59 61 61 67 73 70 60 56 62 63 62 66 65 67 72 75 75 72 77 77 74 75 77 77 68
30 23 24 22 24 22 24 19 30 62 55 74 62 88 72 66 74 72 58 56 57 59 64 70 69 60 54 57 62 61 65 64 69 70 75 75 67 68 72 72 77 71 70 71
26 24 25 24 22 22 23 18 24 54 56 58 65 79 56 67 73 76 66 58 51 53 60 65 66 53 53 54 59 60 64 65 70 72 68 70 73 72 73 74 76 72 76 75
22 20 19 19 19 21 19 26 36 46 45 45 50 48 48 71 63 58 62 66 63 55 57 59 48 53 55 54 60 60 63 66 70 72 65 69 72 73 73 73 73 75 72 75
24 20 16 16 17 19 17 18 39 37 43 29 44 55 36 58 67 63 55 62 70 61 60 70 59 54 58 58 56 60 61 64 68 68 68 69 65 74 75 74 72 70 72 70
27 29 20 16 17 18 20 17 28 39 44 36 51 42 39 69 82 85 77 57 68 66 63 65 63 56 51 58 60 64 60 63 68 68 68 72 65 68 76 76 73 72 76 76
26 24 19 16 15 14 20 19 16 30 35 32 44 49 68 72 84 82 69 63 69 70 68 68 77 69 59 63 67 71 63 64 66 69 69 72 74 62 72 75 74 70 73 73
25 25 20 19 14 18 17 15 20 24 38 38 55 56 42 74 91 92 88 96 97 93 83 70 71 84 71 65 68 73 76 76 74 70 71 76 78 72 68 76 75 74 72 74
21 24 24 24 22 18 21 20 25 20 28 27 36 42 66 64 77 91 98 100 99 100 96 87 71 67 72 67 74 75 80 78 74 74 75 77 78 79 76 76 76 79 77 78
22 21 27 25 21 19 19 26 25 19 39 45 33 36 72 70 75 85 94 98 100 100 99 97 85 74 70 73 75 70 78 82 78 78 77 77 80 84 81 73 74 78 76 78
25 28 30 26 22 22 28 26 29 32 35 42 26 30 72 80 87 92 94 100 99 100 100 100 100 93 80 74 75 72 80 87 87 84 81 82 85 82 81 74 68 75 72 75
26 30 30 27 28 27 37 37 25 22 21 35 27 46 83 79 79 90 93 100 99 99 100 100 100 100 99 94 84 77 83 93 88 83 82 88 91 78 78 78 73 67 65 62
28 34 30 29 29 27 31 43 42 24 28 27 33 34 54 70 71 79 88 98 99 99 100 99 100 100 99 99 96 96 97 99 91 80 82 92 94 88 88 87 80 71 67 66
30 45 38 36 33 34 27 34 48 49 51 50 54 46 62 70 77 80 86 92 93 98 100 100 100 100 100 100 100 99 100 100 100 98 100 99 100 97 92 85 77 74 70 68
39 35 48 43 39 35 36 31 33 43 51 50 40 53 70 72 72 76 82 86 86 90 97 99 100 99 99 100 100 99 100 100 100 100 97 98 99 99 96 98 88 81 82 79
41 46 42 38 43 41 37 30 34 38 48 53 59 63 66 69 72 76 77 78 84 85 92 98 100 100 100 99 100 99 98 100 99 97 99 100 99 100 100 99 86 82 85 76
37 40 47 45 42 36 32 32 32 33 35 54 60 64 67 67 69 71 72 75 80 83 88 91 95 98 100 100 100 100 100 100 100 99 100 100 100 100 99 98 98 96 90 82
32 41 33 45 36 39 34 32 36 33 35 54 59 62 61 62 64 56 70 73 76 74 75 78 79 78 80 83 85 94 97 96 98 97 95 94 94 94 97 98 90 84 82 81
38 41 39 44 37 33 36 37 40 42 40 53 61 61 60 56 64 64 70 76 66 66 70 72 80 82 77 78 76 68 67 63 57 55 53 52 51 52 53 56 60 65 67 70
40 48 52 48 46 48 45 38 35 42 47 53 63 63 63 65 59 69 74 70 67 72 74 74 73 72 72 68 64 56 51 44 40 37 34 32 31 32 32 34 34 33 34 36
66 48 68 46 45 50 53 51 42 41 47 50 56 64 64 65 69 72 76 67 69 70 70 69 63 60 55 50 41 38 34 32 30 28 26 26 26 25 25 26 26 24 23 25
50 57 59 59 51 53 52 48 39 38 38 37 46 64 66 67 58 66 64 65 66 66 64 63 61 54 44 42 39 37 34 29 25 24 23 22 21 22 23 24 24 24 24 24
47 54 51 50 46 53 50 43 42 40 38 37 39 52 65 62 59 57 58 60 62 61 62 58 52 49 48 47 42 34 27 23 21 20 21 22 23 24 25 25 24 24 22 22
49 48 57 55 41 44 44 40 42 41 40 37 36 42 51 58 58 58 58 57 56 58 56 54 51 52 50 41 34 30 27 26 23 21 21 22 25 28 28 29 28 28 26 24

GFSCGP_850_rhum_096.txt.gz
RH
18 30 39 26 20 21 46 60 43 42 57 88 84 86 89 93 91 48 43 45 45 48 51 56 59 64 69 73 81 88 90 92 86 94 85 83 80 85 85 88 72 70 84 72
17 27 26 25 19 22 30 40 39 41 47 54 86 88 87 92 87 60 43 41 42 46 48 54 59 61 66 75 79 87 93 77 79 92 86 83 82 83 84 89 83 87 76 66
14 14 24 27 21 22 24 30 31 46 59 55 67 80 78 79 86 69 49 42 44 50 48 53 58 59 63 71 83 88 92 88 75 92 90 75 91 90 90 90 90 86 78 87
11 14 24 27 27 20 24 18 31 48 48 74 58 80 68 71 89 77 54 46 45 48 48 51 56 60 61 66 79 86 92 92 72 66 89 79 77 83 80 84 85 90 78 92
14 17 24 24 26 23 21 16 24 31 39 57 64 50 60 75 71 65 54 45 42 43 44 48 54 56 59 63 72 81 83 80 90 68 86 84 78 84 81 83 83 94 76 88
15 16 17 17 19 21 17 18 22 27 33 46 42 40 53 52 55 45 52 48 44 41 42 46 51 55 59 62 70 77 77 61 65 69 71 81 96 89 77 80 88 85 86 90
17 19 15 16 20 19 21 22 31 32 32 29 31 37 33 38 50 43 53 52 49 42 42 45 53 58 61 65 72 76 80 60 64 68 88 84 92 82 91 84 77 79 79 80
20 22 17 14 15 20 24 20 27 42 33 26 29 39 32 34 48 54 47 54 52 50 44 45 56 59 68 68 74 60 67 85 81 78 71 76 77 82 84 87 83 76 87 86
17 17 13 13 12 12 20 25 17 22 24 23 27 26 50 49 52 52 52 51 48 53 48 47 56 64 76 75 75 61 65 87 95 92 84 69 72 72 82 81 76 81 80 87
17 19 13 13 12 12 12 14 22 21 32 29 26 27 26 56 53 70 50 50 45 53 55 54 56 70 77 64 64 63 84 78 76 75 91 75 84 77 87 91 74 82 92 70
16 16 16 13 15 13 15 14 13 15 18 21 25 26 35 39 52 70 76 83 75 60 64 69 70 71 82 81 71 71 79 82 96 77 78 76 81 90 92 91 93 82 78 72
17 16 21 15 14 14 10 12 13 15 23 18 19 30 45 46 52 64 82 90 99 99 98 98 93 94 90 91 73 73 79 81 75 83 73 77 83 83 91 94 92 93 76 75
18 20 24 22 17 17 14 13 13 11 11 22 22 20 47 55 60 67 75 85 96 100 99 98 96 98 100 95 80 76 76 80 82 80 80 77 79 82 89 96 94 95 91 73
22 18 22 20 16 14 22 20 15 14 14 15 17 25 51 55 61 71 80 90 98 99 98 99 98 98 95 97 100 94 83 82 80 88 86 83 81 82 77 85 96 95 91 74
24 26 20 20 18 18 18 18 15 16 13 15 15 17 34 49 53 67 79 87 92 94 97 99 99 98 97 96 97 97 97 81 76 82 91 86 85 90 90 78 83 85 82 95
22 32 27 29 23 18 25 25 21 18 18 16 19 20 36 48 58 64 74 86 83 88 94 98 99 99 99 99 100 100 98 97 90 93 96 98 90 86 91 84 91 82 75 78
30 29 33 31 26 25 25 23 22 27 26 23 20 35 42 50 58 61 68 80 80 84 93 99 99 100 100 100 100 100 100 100 98 98 99 100 100 99 96 88 87 84 80 80
30 33 30 30 31 41 30 22 23 26 29 28 32 38 43 50 57 62 66 69 79 84 94 99 99 99 100 100 100 100 100 100 100 99 99 100 99 99 99 98 92 88 82 82
24 27 31 33 34 28 29 28 26 24 26 29 38 44 48 56 61 65 66 68 73 78 86 96 99 99 100 100 100 100 100 100 100 100 98 95 99 98 99 98 99 91 88 89
21 25 25 26 32 34 30 25 27 25 30 31 37 45 50 55 49 46 65 69 72 76 82 92 97 99 100 100 100 100 100 100 100 100 100 99 99 97 99 97 95 94 93 94
27 28 29 26 27 24 28 27 29 35 40 37 44 44 47 46 64 61 64 68 72 80 88 94 93 91 87 82 85 85 90 92 90 92 82 78 76 72 77 85 91 84 79 80
32 33 32 30 32 38 32 29 33 40 36 38 46 49 50 58 58 61 66 70 77 83 93 87 79 77 76 76 72 63 60 55 54 49 48 43 40 41 40 41 43 46 51 55
49 30 42 29 33 39 42 38 40 37 38 40 44 46 53 56 58 64 71 72 76 82 89 88 86 88 83 67 56 48 39 36 33 30 27 27 27 28 27 28 28 31 35 51
39 40 39 37 31 35 38 40 39 40 37 38 44 50 52 56 60 63 69 71 75 80 80 74 77 78 70 44 38 35 35 32 28 27 25 22 21 22 24 37 44 58 56 60
29 38 33 34 34 41 42 42 38 39 40 38 45 52 56 59 61 62 66 70 71 75 74 74 74 74 67 43 42 37 29 24 24 19 26 23 56 39 33 43 46 56 21 23
34 30 37 33 28 30 29 34 43 41 40 42 43 50 57 61 63 66 66 72 73 75 76 76 74 72 61 46 40 33 28 24 25 42 52 55 56 57 58 61 34 25 24 22

GFSCGP_850_rhum_102.txt.gz
RH
12 14 24 28 25 28 57 84 70 85 74 62 75 88 85 72 57 61 35 34 35 35 35 39 44 51 62 63 61 64 64 66 67 79 78 75 71 79 79 72 84 80 70 78
11 12 12 18 25 55 64 72 89 90 78 94 77 85 85 85 79 77 70 51 35 33 37 41 46 49 57 62 64 59 77 69 69 71 78 80 76 76 76 77 79 69 79 62
11 9 9 14 20 36 43 49 84 86 89 90 76 92 88 87 89 71 62 73 55 38 40 44 46 45 53 62 65 69 73 68 61 83 78 78 76 85 81 74 83 78 79 67
8 7 8 11 17 27 64 60 66 82 90 94 73 94 93 94 84 86 74 75 69 50 44 44 44 45 49 57 64 70 74 74 72 83 84 83 81 70 85 83 86 80 82 79
7 8 9 10 14 22 38 46 60 74 90 95 81 65 79 87 92 86 76 71 68 57 44 43 41 43 50 54 59 64 70 76 79 81 84 72 64 78 84 84 79 79 88 78
7 6 7 8 11 16 26 35 62 76 94 98 58 52 86 86 72 77 68 66 78 53 38 49 43 40 54 57 59 71 64 75 81 77 77 83 83 81 86 73 83 94 86 80
8 7 8 8 11 12 22 26 56 82 97 74 80 48 68 59 52 62 69 72 70 61 47 45 50 47 48 63 53 67 68 73 78 76 71 81 79 74 76 70 83 82 78 81
12 11 11 10 12 13 18 28 31 64 65 74 78 52 52 44 45 56 61 63 71 68 57 42 49 55 50 60 70 69 75 74 81 79 82 77 78 73 76 83 81 71 82 74
13 12 7 9 10 11 15 20 17 25 37 44 68 56 42 37 42 49 49 61 53 47 64 60 53 65 48 67 82 47 80 74 82 86 78 81 84 78 83 80 74 87 80 70
13 20 10 9 9 10 12 12 18 36 42 50 47 69 54 46 46 48 49 53 49 47 58 54 58 75 42 52 75 85 63 76 77 85 78 77 53 55 79 78 72 84 77 70
12 16 16 10 12 12 11 12 12 14 22 39 41 55 55 37 36 38 37 41 50 55 64 71 50 67 49 55 79 70 82 64 76 83 88 87 82 83 67 69 73 87 84 73
15 15 19 15 10 9 9 10 10 16 22 18 22 40 56 59 41 35 37 38 52 41 58 56 62 90 81 85 77 63 66 62 54 58 65 79 74 81 87 85 82 85 90 84
20 20 22 19 14 9 11 9 9 8 11 20 20 64 62 62 50 54 56 66 81 63 58 78 73 73 68 66 65 61 69 65 61 60 58 73 88 79 84 90 76 81 86 82
20 20 21 20 25 19 12 10 9 9 11 11 12 36 50 48 54 54 60 66 83 89 80 79 84 83 83 90 88 82 76 70 70 63 72 80 78 74 72 79 86 81 75 84
16 24 20 16 17 17 17 11 10 11 9 12 14 28 31 38 49 54 70 75 80 88 97 98 97 96 99 94 91 93 95 86 73 74 75 80 75 70 75 70 80 80 76 71
17 26 28 30 19 20 18 15 10 9 8 9 21 41 57 74 84 62 69 76 80 83 93 99 100 95 92 97 98 90 97 99 82 73 80 89 89 82 76 74 74 77 79 75
27 35 44 42 39 24 22 22 20 10 10 10 44 48 42 64 69 63 66 73 78 92 95 96 96 93 91 95 99 100 99 98 96 91 94 92 93 88 80 77 95 96 85 75
29 46 52 66 50 42 39 21 20 25 12 28 30 47 44 54 55 54 57 64 73 88 93 96 98 100 99 96 94 100 100 99 100 99 100 93 98 92 85 86 86 87 90 86
22 44 66 92 78 61 33 37 27 35 38 25 25 26 41 76 48 48 52 63 73 80 90 99 99 97 98 99 100 100 99 100 100 100 100 100 98 90 92 94 90 89 89 88
27 45 56 56 68 60 62 45 34 29 82 55 30 27 32 34 41 54 61 69 71 83 89 90 99 100 100 99 100 100 99 99 100 100 100 98 99 98 98 92 89 91 91 93
45 50 56 76 84 62 53 49 29 34 51 28 28 30 43 52 51 57 69 78 83 90 93 95 98 97 99 99 99 99 99 100 100 100 99 100 100 97 91 93 93 94 91 97
38 34 34 37 63 65 36 35 32 49 30 32 32 35 44 45 51 58 65 75 84 87 89 97 97 94 99 99 100 99 99 99 98 97 96 97 97 96 93 91 91 90 89 94
35 31 39 36 66 46 36 34 31 33 33 32 32 34 42 41 47 54 62 70 77 76 82 84 89 84 74 75 70 62 60 60 53 46 50 66 43 35 36 40 42 45 54 71
24 26 30 31 42 29 27 28 28 30 31 29 31 32 35 40 45 51 60 66 71 76 76 80 85 86 76 75 53 38 29 27 26 26 27 25 21 20 21 25 25 47 59 53
24 28 24 26 27 27 28 27 29 31 29 27 31 34 35 39 43 52 59 62 67 73 75 78 78 83 60 38 34 33 32 29 27 23 23 23 24 25 27 36 41 44 52 50
18 22 25 25 26 33 29 30 31 31 30 29 31 34 41 41 43 48 56 61 68 70 71 74 75 78 80 83 72 50 36 31 38 39 39 40 49 49 49 55 44 46 28 28

GFSCGP_850_rhum_105.txt.gz
RH
15 22 28 24 25 30 64 74 79 90 91 92 84 82 85 83 60 61 37 38 39 38 37 48 50 53 56 52 62 64 63 61 62 75 73 72 70 74 75 74 70 69 63 70
17 22 15 13 28 43 60 74 85 92 85 82 88 86 84 88 79 76 66 54 42 38 37 50 52 55 57 61 61 66 63 61 61 70 78 76 77 73 80 75 72 70 73 73
16 14 11 11 39 41 60 68 79 78 90 87 93 95 86 78 82 74 64 66 60 39 38 51 52 56 60 53 61 62 63 64 68 77 79 74 78 76 77 83 80 79 79 69
11 9 10 10 43 42 66 57 67 79 82 93 96 98 94 86 80 72 76 66 62 47 46 48 56 59 58 55 51 56 60 64 61 66 77 77 69 74 74 72 76 77 76 78
12 9 8 10 12 43 69 59 62 66 91 87 88 99 93 87 81 68 60 63 60 63 48 43 47 56 56 59 60 53 62 67 58 71 79 72 71 70 76 72 73 78 78 77
11 7 8 9 12 38 49 62 71 79 89 95 82 93 93 88 69 58 58 65 62 66 50 49 47 51 53 59 62 66 60 62 72 78 79 74 76 85 78 76 77 71 78 76
16 10 7 7 28 47 60 75 92 91 89 87 74 83 81 64 66 61 62 63 64 61 61 54 52 52 52 53 58 61 62 60 70 78 74 83 84 82 74 71 76 79 81 72
22 18 9 9 12 44 59 53 74 74 90 84 70 86 79 53 54 59 63 62 64 60 62 61 48 52 57 56 57 63 65 56 63 80 78 73 76 72 72 74 74 75 76 65
23 18 11 10 11 13 24 37 32 69 70 78 87 82 76 51 59 55 64 63 59 57 51 60 55 52 57 69 65 57 71 59 58 66 71 70 68 80 84 82 78 78 68 58
16 25 16 13 10 12 14 19 31 47 79 83 83 90 88 56 66 60 60 58 46 47 46 64 58 60 63 87 69 64 72 60 49 68 75 77 77 74 86 82 72 72 74 70
18 22 22 19 16 16 17 22 22 41 42 56 85 79 68 60 51 57 51 53 52 42 49 65 61 61 60 88 72 63 57 72 62 74 81 79 61 59 67 74 80 73 63 69
26 24 33 24 12 12 13 14 18 30 29 40 39 87 60 58 57 46 50 56 53 43 57 63 60 63 66 67 64 49 45 72 78 88 85 81 61 68 74 77 76 71 60 69
27 37 40 28 20 14 14 13 14 15 16 23 34 76 56 56 50 45 53 59 56 55 57 55 60 62 62 71 64 65 56 66 79 75 77 77 72 72 72 84 79 79 67 70
22 26 34 39 28 23 28 15 13 15 18 20 20 68 72 53 47 70 90 73 79 58 62 66 71 59 63 71 68 70 73 76 77 73 68 72 75 73 69 76 75 77 68 77
24 32 28 27 27 20 21 21 15 14 18 20 50 57 82 94 70 83 85 92 98 96 92 89 76 68 68 87 82 75 74 74 74 74 68 66 69 84 80 76 72 70 74 82
27 38 40 42 46 39 37 22 21 18 12 40 70 95 88 82 68 70 71 76 90 95 99 99 91 91 100 98 86 87 85 84 80 78 72 71 73 78 75 79 71 71 73 78
37 51 60 54 56 48 42 44 33 46 50 28 50 71 81 77 67 54 72 73 82 98 94 97 100 79 86 95 96 98 94 91 84 80 81 82 84 94 92 80 77 81 84 80
41 57 60 80 65 57 59 42 39 53 59 59 53 55 56 62 46 35 70 78 88 91 99 100 97 95 100 100 100 98 91 99 97 94 94 98 98 100 97 90 87 82 83 89
33 53 66 88 82 62 54 58 48 51 62 61 80 73 67 54 68 69 76 75 75 86 99 95 98 99 97 93 92 100 100 99 99 100 99 100 99 99 92 87 86 82 88 97
49 57 71 85 86 84 76 45 44 40 76 55 72 87 91 76 92 86 80 80 85 84 86 90 99 100 100 99 100 99 100 100 100 100 100 100 96 89 84 87 90 90 89 90
53 60 67 80 87 78 55 45 41 66 64 47 70 70 81 91 94 86 81 83 82 83 81 88 99 99 96 98 98 99 99 100 99 100 100 100 100 93 90 88 86 92 95 94
63 85 81 86 88 77 39 40 39 47 34 39 72 74 89 73 79 78 87 87 80 76 78 97 93 91 98 100 100 96 97 98 99 100 99 97 98 97 95 92 90 89 92 98
54 48 65 75 84 59 38 40 36 35 32 31 36 58 70 62 75 75 78 77 81 83 84 96 94 91 88 86 88 86 89 95 94 91 88 85 89 88 90 87 83 77 85 92
36 31 69 60 47 47 38 29 32 31 29 29 32 36 41 55 65 70 71 75 75 80 87 87 85 78 73 70 64 63 60 55 46 38 38 49 45 31 26 25 26 29 30 38
39 31 33 57 48 29 27 28 31 30 27 27 32 38 44 45 58 63 63 66 69 75 77 78 79 75 74 59 41 32 28 28 28 27 27 27 26 24 24 26 28 31 39 51
25 40 44 57 38 38 30 30 31 31 29 30 32 38 42 44 52 55 58 61 62 66 74 78 78 76 59 40 35 36 34 31 32 26 25 23 26 35 31 24 24 29 36 45

GFSCGP_850_rhum_108.txt.gz
RH
15 25 29 26 24 25 64 82 90 90 86 86 96 92 95 70 49 46 43 42 44 50 48 48 50 55 57 56 63 59 65 66 69 68 72 71 73 73 74 72 66 66 74 70
20 27 22 20 20 30 73 88 93 85 85 79 93 92 80 82 82 73 52 43 44 51 52 51 53 58 57 57 64 58 62 60 64 68 72 72 73 76 79 76 73 70 75 73
22 18 16 16 21 62 70 72 90 80 82 85 90 94 83 79 86 70 69 54 42 52 55 54 54 54 56 52 63 63 59 60 62 71 73 74 72 75 78 79 78 69 72 78
15 12 13 14 22 52 80 61 66 84 82 93 90 95 97 89 86 79 69 64 53 45 56 52 53 56 55 52 63 63 63 60 61 64 70 74 74 72 73 64 77 75 74 78
17 12 11 13 13 46 78 58 66 74 90 92 88 90 94 96 86 77 68 63 58 58 60 55 55 55 55 52 55 58 59 66 64 65 68 71 75 74 75 77 74 77 75 75
19 14 10 10 30 53 54 66 71 75 88 91 80 84 92 95 82 67 60 62 55 58 58 60 53 56 56 53 52 55 59 64 63 58 73 71 73 72 66 70 76 73 73 78
20 16 19 50 65 56 65 78 95 90 88 85 88 90 82 74 70 60 56 69 59 59 57 58 61 59 58 58 57 56 60 63 63 60 74 77 66 67 74 76 66 72 72 73
26 27 12 30 58 73 72 55 71 76 94 83 83 88 78 61 54 52 54 55 59 61 56 54 57 57 58 58 60 59 56 68 63 60 67 79 73 72 74 68 69 73 73 72
24 24 15 13 37 53 65 50 44 73 74 84 87 78 70 53 60 56 60 60 63 60 61 55 56 56 59 60 61 56 56 64 60 59 64 75 81 77 70 69 76 72 68 71
21 24 16 16 14 31 40 35 46 60 83 89 88 86 85 60 62 66 68 65 67 57 60 57 50 55 61 64 60 60 62 64 64 66 64 63 62 78 79 76 70 72 72 69
30 24 24 20 20 19 19 27 31 45 59 79 95 87 70 56 56 69 69 68 68 57 55 58 58 55 55 61 61 62 67 72 67 63 65 77 73 74 82 83 76 68 69 64
28 34 34 26 22 17 17 18 27 34 27 50 56 73 48 54 50 59 62 64 61 54 48 56 62 61 58 60 62 52 69 78 76 65 72 78 78 78 74 77 70 63 60 69
27 37 43 35 31 25 25 21 15 23 26 37 46 64 48 67 60 49 52 52 55 57 59 63 64 65 65 60 49 59 72 73 75 72 81 91 80 63 62 72 71 71 76 71
26 36 38 39 34 32 33 28 26 19 24 21 30 47 64 58 90 82 54 50 57 58 52 56 58 68 68 56 62 63 74 71 71 67 81 83 78 77 71 72 70 73 74 71
28 32 28 27 46 42 39 45 40 36 28 20 24 59 84 77 98 99 80 66 60 57 57 50 59 63 70 71 70 72 70 66 67 62 77 77 73 68 69 76 77 78 76 77
36 38 47 53 42 46 46 50 52 60 64 75 80 93 90 89 88 95 85 65 63 67 64 64 72 81 75 73 70 68 78 79 79 70 73 77 72 71 78 82 81 80 73 74
55 57 60 60 60 46 71 57 61 62 66 78 69 69 90 87 80 86 93 90 100 99 99 92 85 80 75 77 70 63 85 87 89 85 85 77 77 80 79 79 80 77 76 79
56 61 74 68 61 69 55 64 47 59 64 78 81 74 76 74 75 78 80 82 98 99 100 99 100 98 83 80 80 84 97 100 95 94 92 87 83 84 81 85 82 76 73 82
52 66 86 76 81 64 57 54 61 58 61 78 91 86 83 74 89 100 100 92 88 90 93 99 98 100 100 100 92 91 90 85 99 96 92 89 90 87 89 94 86 84 85 86
54 73 76 84 74 68 66 52 47 54 73 74 84 87 95 77 93 96 100 90 88 84 94 97 99 100 100 99 99 98 95 100 100 100 99 100 99 99 94 92 91 88 86 87
70 74 74 86 83 74 64 49 44 68 63 67 69 75 96 97 100 100 100 99 87 85 85 93 98 100 99 100 100 97 100 99 100 100 100 100 98 97 92 90 90 91 89 92
74 83 95 84 76 57 45 49 57 52 63 64 63 67 74 59 57 62 90 82 80 78 93 98 100 99 98 98 100 100 100 100 99 99 100 100 100 100 100 98 93 91 96 97
64 74 91 89 79 53 48 45 44 43 58 60 70 54 46 48 57 72 79 80 82 84 96 97 95 93 95 98 100 100 99 100 100 100 100 100 98 99 100 96 93 92 93 99
46 47 68 56 44 48 43 34 34 33 38 50 56 57 73 80 88 83 74 71 75 76 76 89 94 92 91 92 92 96 96 95 91 86 80 73 77 79 82 78 72 71 80 90
43 35 55 61 46 44 36 32 31 27 29 36 50 66 62 71 72 61 58 61 61 64 67 70 70 72 67 60 54 49 39 35 32 31 30 30 32 31 26 27 28 32 41 42
32 37 56 67 41 38 35 30 30 29 30 32 39 46 57 57 56 60 64 66 64 63 64 68 65 63 43 37 33 31 32 34 32 26 24 23 25 27 28 26 27 30 34 45

GFSCGP_850_rhum_111.txt.gz
RH
17 24 28 27 25 27 72 81 89 88 92 92 91 94 91 80 58 47 48 52 59 57 56 53 58 64 64 66 64 67 69 66 73 72 69 69 73 77 73 72 74 68 66 76
22 29 24 21 21 30 68 85 92 85 87 92 94 93 94 90 82 75 50 52 56 58 61 58 64 66 61 56 59 64 65 69 72 70 67 73 74 76 76 75 75 84 70 71
25 21 17 19 27 70 82 76 86 79 85 84 87 93 97 88 88 76 66 52 54 53 55 65 66 64 59 59 58 58 62 64 67 68 71 72 77 75 80 76 75 72 78 70
18 14 16 17 20 66 77 63 70 86 86 92 89 96 97 93 89 82 74 60 56 56 56 59 64 61 57 58 64 58 64 62 62 65 69 70 72 76 78 76 75 73 80 71
21 17 17 16 16 54 66 62 73 77 91 92 91 96 89 92 90 80 77 72 59 58 51 56 58 55 55 57 60 62 63 62 61 64 66 70 68 74 71 73 72 70 76 72
20 15 16 18 42 44 59 71 77 78 87 90 78 86 85 94 81 67 75 70 66 64 66 52 54 57 56 57 63 68 65 62 62 61 61 70 72 74 74 72 75 73 76 78
21 18 54 55 69 62 68 80 83 76 86 83 84 91 81 71 76 65 73 70 64 64 65 61 62 60 57 56 59 61 61 62 65 60 59 58 67 69 71 70 72 76 74 75
25 23 56 51 65 70 79 64 72 68 88 87 86 89 76 64 68 78 79 73 62 68 67 61 56 56 56 56 56 55 59 61 66 66 56 67 70 64 64 75 74 68 71 71
24 25 16 42 51 50 66 64 50 77 80 86 85 75 66 60 58 62 69 59 68 67 68 60 58 56 57 56 55 55 55 59 63 62 60 68 75 72 68 73 72 73 77 77
25 28 18 16 40 49 51 45 55 71 80 94 85 86 80 69 66 65 61 65 68 65 68 62 60 58 57 55 56 58 58 57 63 66 67 65 69 77 76 69 71 74 72 73
29 26 23 22 23 43 29 40 40 54 67 87 91 78 64 46 50 68 62 60 69 72 62 63 65 54 55 54 58 57 59 61 65 67 65 76 73 76 74 77 76 74 74 75
28 38 38 27 22 22 20 30 36 42 34 68 69 61 64 57 57 64 71 65 67 67 64 61 64 58 56 57 60 59 59 64 69 71 72 82 78 80 81 78 82 75 69 71
25 35 45 39 34 32 30 32 22 29 35 50 54 49 68 60 64 66 72 73 70 69 66 64 65 68 59 60 60 62 64 68 72 78 76 72 73 79 78 83 71 72 66 69
28 37 38 54 40 37 47 52 45 23 28 26 38 24 54 67 79 69 68 68 67 68 62 61 67 65 64 64 62 66 65 62 71 73 76 76 77 85 83 81 73 70 73 74
35 34 32 35 48 47 55 63 65 59 63 26 20 24 59 83 89 79 66 68 65 70 61 59 58 59 63 67 67 63 60 61 73 77 76 77 77 84 85 80 82 81 77 73
44 50 52 52 47 46 56 58 63 68 78 72 83 82 99 99 100 96 77 70 64 58 56 50 43 52 62 63 63 66 64 60 72 72 76 77 81 85 80 82 83 84 84 84
58 54 58 58 59 40 54 61 64 64 77 90 93 96 75 82 93 98 100 100 99 86 78 70 67 55 62 66 72 74 73 72 72 78 78 85 91 86 78 78 83 87 83 81
57 65 74 61 63 62 47 59 59 57 69 88 89 82 81 98 100 100 100 100 100 99 100 95 96 92 83 78 65 82 85 89 89 90 84 84 88 84 78 82 86 83 80 77
59 75 81 68 77 67 56 54 53 56 58 85 94 87 96 98 94 100 100 97 95 98 100 100 100 100 94 79 69 72 78 77 81 92 85 94 88 83 82 89 89 84 83 80
66 74 74 82 66 77 63 51 52 56 75 80 92 94 91 85 97 100 100 97 89 89 90 95 100 100 100 100 96 80 83 75 83 69 98 96 94 89 92 92 94 89 89 90
73 82 80 88 80 71 59 52 49 61 64 75 95 98 88 96 95 92 92 96 89 86 94 98 98 100 100 100 99 99 100 100 100 100 100 93 97 99 99 95 92 98 94 93
65 80 86 87 74 56 49 50 52 54 70 68 88 91 64 62 90 74 68 82 80 96 100 100 96 96 99 99 98 99 100 100 100 100 100 100 100 98 97 99 100 100 100 100
72 71 81 79 75 53 56 54 49 55 58 65 68 69 66 78 71 63 79 67 85 96 97 91 89 90 97 100 100 100 99 100 100 99 100 100 99 99 100 100 99 97 100 100
51 58 71 58 60 51 41 45 48 51 53 61 48 57 59 59 65 58 73 74 68 70 88 95 93 87 86 92 96 93 98 100 99 98 100 100 100 99 97 95 95 94 98 100
52 51 64 62 54 51 43 39 45 47 50 57 57 52 58 67 76 72 70 65 64 61 62 63 64 72 72 69 71 69 69 66 62 59 60 61 55 46 42 45 47 53 55 62
42 45 63 64 44 43 36 37 42 37 42 50 54 64 64 68 69 71 74 70 63 62 62 62 61 56 40 33 33 31 30 31 30 29 28 28 28 28 27 28 30 34 36 42

GFSCGP_850_rhum_114.txt.gz
RH
19 24 29 27 25 36 70 79 90 85 86 85 91 93 95 83 73 59 55 59 64 63 62 61 64 64 67 68 70 68 70 73 65 69 70 68 74 77 76 73 69 70 73 77
26 28 22 22 24 31 78 88 93 86 84 80 93 92 92 87 89 80 60 54 60 64 69 63 63 65 65 68 74 78 74 65 66 67 66 67 68 76 76 77 72 74 70 68
27 20 20 20 45 61 80 77 92 80 88 86 88 91 93 90 88 80 76 58 51 50 61 61 64 62 66 69 73 74 71 66 64 68 68 70 72 76 78 79 76 79 74 71
19 15 16 19 20 56 73 69 72 90 88 91 87 92 97 87 92 91 81 60 58 55 55 56 60 60 65 63 67 69 71 70 70 70 67 66 66 73 72 74 72 72 73 77
19 18 18 17 18 50 52 69 81 79 87 90 95 94 86 93 93 85 82 70 58 56 54 56 51 55 60 61 58 64 68 66 69 68 68 68 68 70 72 74 68 73 70 73
20 16 17 20 44 46 66 76 82 82 90 94 88 88 93 95 84 77 72 71 61 58 54 49 48 58 61 61 60 63 61 64 66 68 67 68 68 67 73 71 74 72 74 76
22 21 53 58 73 63 74 77 92 85 94 88 87 89 79 77 86 78 79 72 66 60 58 67 64 64 62 58 62 65 64 65 65 65 68 70 68 70 70 71 73 74 76 75
29 26 66 58 68 78 77 60 82 65 87 83 86 91 76 57 61 66 62 68 68 64 60 66 55 58 59 56 59 62 66 65 65 64 66 68 69 69 72 72 70 73 74 77
28 25 20 54 56 56 72 72 60 82 82 83 87 77 63 64 74 79 75 76 70 70 67 63 61 57 57 55 57 55 63 65 62 66 68 67 66 77 72 68 75 70 69 73
25 33 21 20 49 51 58 57 65 82 81 79 81 82 80 76 73 81 79 75 74 71 68 61 55 58 56 55 54 54 54 54 58 61 70 64 66 77 77 74 78 74 74 75
28 27 25 23 34 61 39 55 50 65 77 82 76 67 64 62 62 79 66 61 56 59 64 63 58 59 55 56 56 54 55 55 56 61 66 66 73 74 82 80 73 76 76 74
29 36 38 30 25 27 32 45 45 57 42 78 72 65 71 56 53 56 57 61 68 67 70 64 67 65 62 60 58 57 56 58 56 63 71 67 68 73 78 68 81 78 76 74
29 37 44 33 33 36 36 45 30 37 49 69 56 47 64 62 65 60 63 61 66 67 74 64 67 65 63 64 61 60 59 60 61 65 74 75 72 72 70 69 73 75 81 81
29 42 37 45 44 43 54 61 63 27 33 36 46 32 77 70 70 81 76 68 72 78 84 78 67 61 59 64 60 61 62 62 65 67 73 77 72 69 76 75 66 70 72 78
37 37 44 36 48 56 65 66 71 56 74 27 54 78 95 95 94 79 77 74 73 73 76 72 66 66 69 67 61 63 67 65 69 71 71 72 75 73 78 73 80 76 76 82
55 42 51 55 46 48 55 60 66 75 87 83 89 87 87 95 96 96 86 79 79 76 72 78 76 64 62 61 66 67 67 72 66 68 78 83 81 74 80 76 86 86 84 89
57 63 53 56 60 47 61 55 65 67 73 83 93 83 76 96 96 100 95 78 83 88 83 77 76 61 63 69 66 74 76 77 80 89 89 79 80 83 82 84 86 90 88 95
53 68 73 65 54 69 53 61 56 59 69 88 87 79 93 98 100 100 100 97 93 84 82 81 82 81 77 76 72 79 80 87 90 83 82 86 88 86 86 93 90 91 93 91
60 74 78 68 73 61 61 61 58 56 59 77 87 81 96 99 99 100 100 100 100 99 98 97 95 97 89 78 79 76 84 92 93 92 87 89 76 75 87 90 90 89 89 90
72 74 67 79 64 71 60 54 52 54 75 70 90 81 92 96 95 100 99 88 88 88 92 100 99 100 100 100 94 79 76 94 84 86 94 99 92 80 86 99 99 94 90 89
67 81 71 85 73 68 54 52 53 67 63 75 94 89 92 91 81 87 85 76 80 94 98 98 98 99 100 99 100 100 98 100 95 91 88 97 91 88 99 100 100 98 91 90
66 75 81 84 67 51 53 53 59 52 72 78 93 94 91 90 96 100 85 81 94 99 94 94 95 99 99 99 100 100 100 98 99 100 98 84 95 100 100 98 100 95 96 97
73 66 75 73 74 53 52 52 51 62 66 72 82 88 99 88 90 83 84 93 98 97 94 89 88 97 100 99 100 98 99 100 100 98 99 97 93 98 100 99 100 98 100 100
58 66 75 60 56 54 56 57 60 61 56 59 59 61 71 78 80 78 71 73 91 95 96 91 88 86 86 92 93 98 100 100 100 100 100 99 100 100 100 100 100 100 100 100
57 59 70 65 56 56 47 43 47 48 57 63 64 58 61 65 75 73 68 64 68 64 59 63 72 71 71 75 78 80 81 79 81 81 77 69 65 65 67 73 80 84 92 96
46 58 66 65 48 47 40 44 41 35 46 56 54 60 66 73 69 71 65 61 58 57 56 57 52 38 31 32 30 30 31 30 28 28 28 28 27 27 28 30 32 36 40 45

GFSCGP_850_rhum_117.txt.gz
RH
20 21 28 21 20 28 38 55 62 75 78 79 75 83 83 85 71 63 68 72 63 64 66 73 72 66 62 67 71 75 74 75 79 76 69 73 75 74 73 70 66 68 74 69
19 24 18 19 20 36 42 50 67 78 80 74 80 74 86 95 76 65 67 68 61 64 67 74 68 66 62 66 68 70 70 75 73 71 67 68 73 75 75 71 66 65 68 70
21 18 18 19 32 39 46 36 64 63 80 72 73 73 82 93 91 79 75 63 55 58 63 70 73 70 62 64 68 69 66 73 68 68 68 68 71 78 75 73 71 68 65 67
18 15 16 17 17 25 32 43 56 77 74 72 74 70 81 83 89 71 68 65 60 56 63 67 71 67 59 60 68 67 70 72 70 72 68 70 69 71 75 76 76 72 74 65
18 15 16 17 15 20 23 51 58 68 72 72 80 84 66 74 87 72 65 58 61 56 59 62 66 52 54 58 62 68 70 76 71 68 70 71 71 69 71 76 78 72 73 70
16 17 15 16 41 24 54 61 63 67 70 76 57 68 58 79 74 61 58 53 53 57 56 62 62 67 58 57 62 67 72 75 73 70 70 70 72 70 73 74 75 69 74 71
19 17 34 46 49 49 54 50 53 61 74 56 72 78 58 55 55 50 52 56 60 58 56 62 70 73 56 59 59 59 63 70 74 71 69 68 69 72 67 71 74 76 74 78
23 20 44 45 39 42 48 33 26 39 48 58 73 78 48 46 45 55 57 61 65 60 55 62 68 71 54 52 57 59 59 63 66 67 68 68 70 71 72 76 76 76 75 75
23 22 23 47 47 42 54 51 33 49 64 65 62 57 44 47 49 64 71 67 71 66 58 61 69 58 50 52 54 57 60 61 63 65 67 68 74 69 70 73 75 74 76 78
24 29 20 27 45 46 45 40 54 60 50 47 49 60 52 58 61 61 64 70 66 69 62 65 70 67 47 51 52 56 59 59 62 65 66 68 70 68 69 77 72 74 75 73
23 25 23 22 36 33 44 45 46 50 52 40 44 33 45 51 53 67 66 65 65 71 63 67 62 57 46 49 52 55 58 59 61 64 64 68 73 65 73 79 76 75 73 76
25 24 27 23 20 22 34 34 33 36 44 46 50 32 57 54 46 61 67 71 71 64 60 59 61 57 54 51 54 55 58 57 58 59 60 63 70 69 76 72 78 70 73 78
26 26 28 24 27 30 32 42 34 27 32 37 34 25 47 54 51 59 65 67 67 72 68 69 73 63 60 58 54 54 57 57 57 60 61 65 70 71 73 76 78 70 73 74
28 27 31 26 32 39 48 47 51 39 27 26 26 26 37 69 71 66 68 64 65 70 79 72 73 69 63 61 57 56 58 59 60 60 63 67 73 69 72 80 77 81 71 70
29 32 31 30 39 41 46 48 55 46 55 29 29 55 71 80 84 80 78 80 79 76 78 80 76 74 67 60 67 64 64 64 63 62 64 67 76 77 79 78 81 73 73 71
40 35 42 43 38 35 48 46 53 64 67 64 62 64 76 89 89 81 77 82 82 91 90 97 86 71 64 61 62 70 68 68 73 72 69 73 76 81 82 74 81 78 74 71
46 46 44 39 37 42 53 50 45 56 59 66 60 69 75 88 89 94 82 82 85 90 93 99 96 85 75 77 74 73 74 78 77 77 79 77 79 89 83 81 78 82 81 83
44 53 61 45 46 59 40 48 43 43 48 57 71 70 89 98 100 100 100 99 99 100 90 84 80 81 85 88 83 78 87 84 82 80 83 87 92 94 93 85 87 89 82 85
46 50 57 54 56 47 53 50 52 45 35 49 70 78 93 99 97 100 100 100 100 100 100 97 89 81 81 81 82 78 80 86 80 83 91 96 100 96 97 93 96 89 83 85
51 55 43 61 54 50 45 46 49 46 48 45 71 76 84 84 78 92 100 98 98 100 100 100 100 96 86 85 80 82 82 82 89 94 95 97 98 100 94 92 88 84 86 96
49 55 50 61 56 46 43 45 54 58 48 61 71 74 84 78 83 98 100 99 100 100 98 98 99 100 99 98 98 100 100 90 100 90 91 97 93 97 92 86 88 93 99 100
52 62 70 60 62 52 49 49 55 50 65 76 86 96 97 100 99 98 99 100 98 100 100 100 100 100 100 99 100 100 100 99 100 99 98 99 99 97 87 96 100 100 96 97
65 47 60 56 48 52 58 55 52 54 72 81 91 99 100 93 94 98 99 100 100 97 94 100 100 100 100 100 100 100 100 100 100 100 100 100 100 90 85 73 91 85 97 100
54 60 53 56 52 54 59 59 59 66 70 83 94 92 80 88 93 98 99 99 96 95 94 95 93 93 97 99 100 100 100 100 100 99 100 100 100 96 85 85 100 100 100 100
45 58 56 52 52 54 54 59 58 59 62 69 73 72 82 86 87 90 88 79 82 80 81 75 75 80 78 78 76 72 69 73 77 78 84 90 90 87 93 99 99 100 100 100
46 49 42 30 46 50 45 45 48 51 61 61 60 79 85 67 72 72 63 61 60 56 50 42 42 37 33 32 32 32 31 31 30 29 30 29 31 33 36 38 42 46 50 52

GFSCGP_850_rhum_123.txt.gz
RH
6 9 13 12 14 13 17 21 22 32 45 46 44 45 50 54 60 51 48 42 29 33 37 44 44 46 50 60 69 72 73 84 83 78 72 73 68 68 68 74 81 90 83 86
8 8 7 8 12 14 16 18 21 34 41 46 37 42 37 52 52 42 70 44 33 32 35 42 42 43 48 58 67 74 76 87 84 76 71 70 67 72 73 72 82 84 81 90
8 7 8 13 14 14 14 17 18 24 41 39 40 40 39 39 51 47 54 53 34 32 36 38 40 42 47 55 65 74 80 91 78 78 78 78 75 79 68 70 76 80 84 86
8 9 12 13 12 11 14 12 15 20 35 37 43 36 38 37 45 48 45 48 42 35 32 34 39 42 43 54 62 72 81 88 90 79 78 74 80 64 62 68 79 79 83 84
10 11 11 11 11 10 12 12 15 17 25 27 28 40 24 28 46 48 44 42 49 40 35 34 36 40 43 49 59 65 78 88 87 84 88 82 72 71 73 69 76 83 89 88
10 10 9 9 8 9 8 13 16 20 24 32 22 27 23 34 37 39 43 46 45 38 38 33 36 41 46 47 58 63 77 84 93 95 84 76 72 81 70 73 83 73 74 81
10 10 8 8 11 11 10 15 22 26 24 24 22 24 20 28 30 28 35 43 49 46 38 35 35 39 47 48 55 60 75 84 92 95 90 90 87 82 86 87 74 70 72 69
12 14 9 8 10 13 13 13 17 26 20 41 26 26 28 41 23 22 28 37 46 46 41 36 35 37 49 50 54 61 71 83 86 88 90 90 90 82 78 80 70 74 72 67
13 13 10 11 10 11 15 18 12 15 13 15 26 27 18 27 21 23 26 34 43 46 42 45 35 34 48 51 54 63 70 80 82 82 86 90 92 89 79 75 76 87 86 83
14 18 11 10 12 15 15 31 26 15 24 26 18 21 26 31 22 24 27 34 41 45 42 44 37 36 40 47 56 61 70 79 78 76 78 82 84 90 92 88 86 82 84 83
13 14 15 14 16 17 18 18 27 24 28 34 27 34 76 25 27 30 30 30 33 38 39 39 56 38 42 50 53 64 68 75 79 76 73 77 79 85 87 85 86 88 89 81
13 14 16 14 12 10 15 25 22 19 28 38 35 47 48 25 20 33 41 36 40 43 48 47 39 48 43 52 55 64 67 70 76 74 76 80 82 80 78 84 83 86 87 87
14 16 15 14 10 12 14 12 12 21 24 33 34 33 43 42 19 28 37 51 57 53 61 63 58 60 45 53 57 58 67 70 73 74 76 79 82 86 85 86 89 90 87 89
16 12 13 12 12 16 22 20 33 40 21 24 24 26 43 42 35 29 33 49 65 68 73 68 60 61 53 57 61 60 68 71 74 77 75 74 78 80 82 88 89 88 88 92
14 18 14 11 9 9 11 29 56 64 39 20 21 32 29 59 42 59 47 51 66 62 79 77 65 58 72 83 78 72 70 72 77 79 81 82 81 83 86 90 88 87 94 90
15 22 18 18 13 12 12 16 47 40 24 32 22 25 38 47 63 65 48 54 58 60 67 80 85 74 74 77 84 67 77 85 78 83 88 86 88 95 93 89 87 86 90 88
19 20 22 24 15 20 22 15 22 22 17 40 37 26 69 53 71 84 87 58 73 57 59 61 80 79 71 70 74 84 73 73 86 87 96 86 94 97 97 96 87 82 84 90
17 24 22 22 19 32 21 32 41 35 17 36 46 21 44 65 96 100 98 99 96 91 97 82 85 87 89 81 86 84 84 83 89 89 96 94 92 93 80 85 88 89 88 88
12 19 23 28 28 29 20 29 31 32 22 18 20 24 49 82 94 99 99 99 99 99 100 84 82 97 97 98 98 95 96 95 88 98 98 95 82 77 75 75 87 89 94 93
13 18 24 25 36 68 35 60 46 75 31 22 20 22 31 57 56 93 98 100 100 66 98 99 99 99 100 97 93 91 98 98 99 97 94 81 77 88 94 92 92 92 98 100
26 26 26 25 29 37 23 39 30 43 48 48 25 25 48 84 91 99 99 99 100 92 97 99 100 100 100 99 98 92 79 88 94 96 92 81 78 89 78 81 100 100 98 98
28 29 31 32 44 52 28 28 31 45 40 58 64 73 81 73 84 99 98 99 100 96 98 99 99 100 99 100 100 99 100 100 95 90 92 95 90 88 86 95 96 98 98 96
32 28 59 31 43 37 35 30 37 41 41 43 64 79 67 65 75 85 94 98 99 99 98 99 99 100 99 100 99 99 100 100 100 100 98 100 99 99 97 92 84 93 91 89
27 28 26 31 40 29 33 36 37 44 49 61 63 68 59 65 72 78 84 90 98 98 99 99 99 99 99 100 100 100 99 100 100 100 99 100 100 100 100 99 98 89 96 93
49 30 26 25 22 30 36 40 46 51 61 58 60 58 60 67 72 81 89 91 92 96 98 96 95 92 90 90 94 98 99 100 100 100 100 100 100 98 93 90 95 100 100 100
25 22 22 33 26 47 42 46 51 55 51 49 51 59 62 64 68 73 80 80 80 84 82 78 71 56 52 44 40 46 59 50 50 55 49 58 70 76 77 74 81 70 75 88

GFSCGP_850_rhum_129.txt.gz
RH
7 10 16 16 16 20 21 33 52 57 48 57 59 65 71 67 78 72 38 51 45 42 38 39 42 48 52 60 59 58 69 66 60 70 68 73 73 61 61 67 70 69 56 69
10 11 10 10 11 16 16 17 47 48 41 36 56 56 60 61 65 70 51 42 39 47 44 38 42 47 50 58 57 64 68 64 63 62 69 67 73 71 72 68 68 69 63 67
12 10 6 6 8 11 16 17 22 47 38 32 35 40 53 59 49 59 50 31 52 49 46 41 43 46 49 56 57 69 70 67 64 68 72 70 76 76 74 72 71 68 72 71
10 7 7 7 11 13 18 14 13 39 47 41 40 68 42 56 64 53 56 48 40 44 50 45 43 50 50 54 57 64 71 72 66 78 84 70 73 71 63 68 71 72 71 68
13 10 10 11 13 12 15 11 14 17 22 22 38 54 49 54 68 63 52 53 50 49 51 45 45 45 46 49 53 56 59 67 70 78 85 73 73 75 67 76 73 71 64 69
11 9 10 10 10 10 10 11 11 14 24 41 31 50 48 58 64 59 52 54 46 48 44 52 47 45 46 48 53 56 58 56 66 72 81 78 74 72 71 74 74 72 75 66
12 12 9 9 11 10 10 14 27 34 34 45 28 37 50 39 51 52 54 52 48 43 45 53 51 48 50 52 56 59 60 62 57 64 68 75 75 73 71 68 67 71 64 70
19 18 12 8 10 13 14 15 26 31 37 37 26 50 55 41 41 54 54 54 49 43 45 47 43 45 54 51 56 59 58 58 55 49 59 71 75 64 69 69 71 74 69 72
23 19 9 9 8 9 12 20 16 19 18 25 35 44 38 29 36 45 53 50 47 47 44 41 41 46 48 54 56 55 55 60 57 52 53 56 67 72 70 75 71 74 74 72
17 22 11 9 9 10 12 14 30 39 31 39 52 59 64 43 48 51 65 58 46 47 45 43 46 43 47 50 56 55 54 55 61 57 54 57 59 66 76 86 84 75 77 72
15 20 22 14 15 18 18 22 21 28 33 47 48 63 44 47 38 61 66 55 46 54 44 51 48 44 42 55 57 56 57 57 67 58 54 61 64 63 69 76 78 74 75 72
15 17 28 20 14 12 16 20 25 41 36 44 48 55 31 37 39 53 52 38 37 37 61 59 63 53 54 56 58 65 57 54 60 60 54 55 66 67 67 73 72 71 71 74
17 28 32 21 14 13 16 16 21 26 31 48 52 55 33 33 35 44 56 54 48 44 44 48 49 49 48 58 63 68 71 61 58 65 53 63 74 74 64 67 63 61 63 70
14 19 26 30 21 16 16 13 13 23 36 35 38 37 42 39 66 61 60 48 40 44 35 42 47 49 56 57 54 64 72 81 61 64 62 74 78 76 74 71 77 78 76 86
14 22 18 18 14 14 15 14 13 14 24 33 29 32 68 64 48 54 79 75 63 54 62 66 75 71 70 66 66 59 64 84 85 66 64 65 78 76 73 75 74 89 86 78
16 25 24 30 19 16 15 13 13 13 20 30 31 48 68 59 50 54 90 98 98 79 80 66 73 73 80 76 73 69 70 96 90 100 71 64 74 79 74 78 80 71 74 74
28 30 38 38 27 24 27 30 28 25 26 28 35 41 81 60 52 82 96 99 97 100 61 58 72 78 86 81 82 85 74 68 75 96 96 66 75 79 78 80 78 80 75 76
24 24 32 42 36 46 26 25 25 28 26 28 31 73 68 62 70 89 97 100 97 84 63 53 53 50 64 88 98 92 90 91 86 82 98 78 78 83 85 88 80 72 76 76
18 36 36 42 42 32 24 34 33 37 40 38 33 64 74 83 94 98 88 91 99 85 83 65 63 52 55 64 86 100 98 90 87 86 95 92 86 87 88 88 85 82 87 92
18 30 37 34 44 48 31 34 35 35 54 52 59 65 72 90 80 90 99 87 96 98 92 68 76 76 67 71 81 97 99 97 99 96 88 92 87 93 90 100 97 89 86 83
30 34 35 39 43 35 35 35 38 51 59 57 70 79 71 82 95 97 96 86 88 98 88 79 83 67 70 54 76 79 96 100 100 100 100 100 100 97 97 89 97 90 86 96
35 48 50 48 48 55 40 36 45 52 61 58 66 83 89 69 79 94 95 96 98 97 98 80 87 97 73 97 78 74 85 98 98 94 100 100 99 91 94 80 85 84 88 81
36 40 55 46 59 54 33 35 33 33 58 66 57 59 66 85 97 99 94 99 96 96 98 96 99 100 98 98 99 70 86 85 92 91 99 97 100 85 78 80 91 87 88 82
53 45 51 50 55 49 33 35 37 66 78 76 68 61 76 75 71 95 98 96 96 96 98 100 100 100 100 98 100 82 91 100 95 100 98 86 90 96 91 97 88 82 77 84
62 43 48 47 48 42 41 63 68 57 64 53 70 89 95 87 92 91 92 99 97 96 94 96 98 99 98 100 98 100 99 100 99 100 97 98 92 100 98 92 91 92 95 98
52 49 57 56 42 43 44 59 56 59 43 52 76 88 73 78 84 89 90 96 94 93 83 70 82 74 74 74 87 96 99 100 98 99 100 99 95 90 94 98 95 96 98 99

GFSCGP_850_rhum_132.txt.gz
RH
9 11 13 13 17 20 24 35 52 53 50 63 66 63 72 57 55 60 51 50 47 44 44 47 48 53 60 66 63 61 65 68 70 75 72 72 71 72 66 68 59 71 66 71
13 12 10 10 12 14 16 40 59 60 56 60 66 65 62 67 59 56 55 47 47 44 46 48 48 53 58 61 61 61 59 61 62 63 70 70 75 66 68 67 67 69 66 68
15 11 8 8 9 10 12 35 61 65 59 55 63 65 70 61 61 55 64 53 44 46 42 46 49 52 56 60 61 58 58 61 57 60 67 72 74 73 73 69 70 76 68 67
14 10 9 9 9 11 20 15 40 49 59 65 43 61 54 70 68 62 61 63 45 47 42 44 50 51 52 55 58 58 61 58 63 68 64 67 72 69 67 65 66 68 78 73
18 13 11 13 14 13 17 11 27 44 37 31 43 55 53 62 78 65 59 59 52 44 45 45 47 46 48 52 53 54 57 62 66 68 65 74 68 68 69 66 69 74 76 78
16 11 11 12 10 10 11 13 19 24 32 34 30 51 52 82 70 62 59 60 55 48 44 45 50 47 46 51 51 53 58 60 68 64 61 70 70 70 75 69 69 71 68 72
16 13 10 9 11 11 13 20 29 26 34 37 28 48 38 46 59 60 59 57 52 52 49 47 51 50 49 49 52 54 52 62 66 66 65 70 70 73 74 68 65 68 70 68
21 21 13 10 12 14 13 18 27 27 45 29 31 52 56 44 53 53 54 55 52 54 50 48 46 50 51 48 49 52 53 52 60 69 66 72 69 78 81 76 75 69 64 64
25 23 12 9 9 11 11 18 17 20 25 32 42 43 36 48 57 60 58 57 51 55 53 48 46 51 55 50 48 48 52 50 56 59 62 68 67 72 74 73 71 68 68 73
19 23 14 10 9 10 12 14 25 42 34 39 63 60 60 43 61 57 59 54 53 50 51 52 47 52 50 50 47 46 52 50 48 57 56 60 63 66 58 65 68 70 73 76
17 23 21 14 16 18 19 20 26 34 44 51 55 57 49 43 42 54 62 57 54 47 46 55 56 54 51 50 48 48 52 54 52 56 54 57 57 64 67 59 69 72 77 81
17 26 24 19 16 14 17 19 27 36 32 49 54 50 44 39 51 45 48 54 57 48 46 50 54 53 51 58 64 58 52 54 54 56 60 60 57 58 56 67 72 77 81 79
16 30 34 24 19 14 15 18 25 35 44 50 49 54 44 55 59 51 54 61 63 60 54 55 57 61 60 57 63 64 62 58 56 60 63 65 58 61 59 66 76 77 80 74
15 28 30 32 23 17 15 15 14 31 40 40 48 46 45 55 69 74 57 53 54 56 60 60 60 61 62 69 58 72 72 73 61 65 67 67 64 57 63 63 68 72 75 75
18 21 22 21 18 15 18 18 18 15 20 35 32 41 50 62 67 77 76 68 61 58 63 56 56 53 55 64 72 77 74 73 80 72 73 77 74 69 67 66 65 71 71 73
17 18 19 20 21 23 22 28 23 28 30 33 34 43 63 59 57 73 72 84 84 73 58 52 47 55 59 60 70 77 83 77 85 82 72 84 79 84 79 71 73 72 78 77
24 25 43 35 32 27 28 28 27 29 32 30 38 33 77 71 65 90 91 82 87 76 63 55 65 70 73 67 67 70 79 86 93 98 76 78 80 89 96 79 79 83 76 87
39 35 44 39 33 42 31 30 28 30 39 46 39 62 72 63 70 71 86 89 98 86 71 70 65 64 64 69 81 86 78 72 89 92 76 61 64 76 82 88 78 77 85 77
23 36 34 34 44 33 30 34 31 29 35 60 61 61 80 86 87 87 92 88 97 100 91 73 62 57 63 75 80 80 84 94 74 84 89 78 82 77 75 84 84 83 82 84
31 36 34 52 41 44 37 37 30 36 51 54 57 69 84 85 73 82 71 87 100 99 98 73 65 68 80 84 80 87 95 100 99 85 85 80 87 75 91 85 82 82 82 78
35 42 36 45 40 40 37 39 38 45 48 55 55 57 75 88 63 65 81 92 99 96 100 78 74 73 70 70 75 93 90 90 100 99 99 92 89 96 94 86 83 84 92 93
35 44 44 57 52 52 38 42 46 55 60 55 54 58 73 74 71 94 100 100 99 99 97 95 73 73 69 69 81 86 85 79 90 100 100 100 100 100 100 100 98 99 99 98
36 45 54 50 57 49 47 41 41 45 54 56 54 64 81 91 94 96 99 98 95 99 100 98 97 96 82 78 74 88 93 86 87 100 100 99 98 97 99 96 94 93 93 91
47 48 59 47 45 50 64 55 50 49 47 53 60 59 70 98 100 98 97 97 96 100 98 98 98 99 99 86 95 91 93 93 85 83 99 95 84 88 90 90 94 91 96 99
58 46 58 54 74 77 87 61 53 54 47 44 51 70 80 83 90 94 89 93 95 91 94 96 100 99 100 98 100 90 97 96 81 66 75 90 86 96 97 96 94 94 92 96
45 40 45 52 49 56 68 60 52 48 47 50 57 68 67 71 91 84 90 91 92 88 88 88 91 97 99 100 100 98 99 100 100 86 84 86 96 100 97 97 100 100 98 90

GFSCGP_850_rhum_135.txt.gz
RH
10 10 11 12 19 22 24 26 42 60 58 72 78 68 64 68 63 63 59 55 48 47 47 48 50 54 58 59 64 63 62 65 70 64 66 68 66 71 73 74 76 78 74 66
15 15 12 9 11 15 16 20 42 58 60 70 71 71 60 65 58 59 54 55 52 48 48 49 50 52 57 58 64 65 62 64 66 66 67 64 70 70 70 71 76 69 73 63
19 13 10 9 9 9 11 16 54 58 67 66 67 74 67 64 59 53 51 51 53 47 47 48 49 52 55 60 61 63 58 61 61 62 72 69 71 70 69 67 76 74 75 71
18 14 12 11 10 10 12 13 30 64 78 82 59 77 51 68 72 63 54 52 53 52 47 47 48 50 56 57 59 62 60 64 67 59 62 65 65 66 66 67 69 75 75 71
18 16 14 12 11 11 14 15 50 61 74 41 52 59 51 71 80 69 59 56 48 47 51 48 48 47 49 55 55 59 62 66 59 56 61 66 67 68 70 69 71 72 76 84
16 12 12 14 13 14 13 15 23 32 38 38 30 55 41 76 72 65 58 53 56 55 50 48 46 47 49 53 59 59 61 63 62 63 61 65 64 63 69 69 69 71 70 81
16 14 12 11 12 12 16 21 29 27 33 35 33 52 42 36 51 60 64 58 54 54 49 55 50 54 51 53 57 57 58 61 63 63 66 66 63 65 71 68 67 69 72 75
22 21 14 11 12 15 14 18 29 26 35 31 31 40 53 48 50 59 58 59 59 57 54 50 53 50 48 50 53 56 54 57 61 63 66 66 63 67 65 73 70 70 69 66
26 23 15 12 12 12 15 19 17 26 32 34 39 46 40 50 58 61 62 58 58 56 55 51 50 51 51 50 54 53 51 52 51 60 65 65 63 64 62 63 69 72 71 66
20 23 18 11 10 11 12 19 30 43 34 39 58 60 57 50 54 51 57 59 60 56 57 55 51 53 53 55 57 60 54 52 49 51 58 60 66 64 62 62 66 71 73 72
21 23 19 14 15 15 19 21 37 38 47 51 64 63 56 48 43 46 56 64 68 59 57 54 53 54 55 55 57 52 59 56 58 54 55 56 60 63 70 62 63 68 68 70
20 27 25 18 18 15 18 19 31 32 30 56 51 48 40 43 46 51 62 56 67 62 56 56 56 56 60 63 63 60 64 53 56 61 62 54 57 60 69 68 62 58 63 67
22 30 30 24 20 14 15 17 30 40 50 58 54 49 45 59 57 54 64 53 50 62 63 59 58 56 55 58 62 65 65 60 63 70 62 60 60 55 60 66 70 64 61 70
21 34 27 28 23 18 14 18 19 34 42 47 48 42 48 65 66 64 75 58 52 49 46 48 54 54 58 59 60 63 66 66 74 78 68 70 67 61 60 61 66 68 64 66
18 20 24 23 19 16 18 20 22 20 23 29 30 52 44 56 72 78 81 72 59 53 62 60 53 48 48 55 62 69 69 66 65 66 76 74 79 70 68 68 67 67 73 74
19 22 18 18 18 24 23 26 31 30 36 38 43 37 49 54 55 69 73 77 75 69 65 64 63 62 63 63 61 65 69 66 66 66 72 82 83 82 72 72 72 75 75 75
21 33 34 28 33 26 31 26 29 34 32 35 35 33 72 73 67 62 78 83 79 82 81 78 80 82 75 73 71 71 77 82 83 84 85 78 78 90 74 74 71 71 76 73
33 42 43 41 32 37 31 31 28 34 47 52 36 46 59 69 61 63 74 73 68 78 72 70 72 74 69 66 66 66 70 84 89 85 94 87 92 90 77 75 74 76 73 79
28 39 45 36 38 31 26 35 33 30 36 57 49 53 76 81 86 78 65 68 76 80 78 68 62 58 62 70 77 74 95 98 99 99 100 99 99 88 81 85 73 74 76 80
32 32 35 52 34 38 32 30 31 35 52 52 56 59 78 86 76 77 55 73 82 91 97 79 69 66 71 82 78 89 89 91 97 98 100 100 100 93 86 75 67 69 79 81
36 43 37 54 40 39 36 38 37 51 49 45 50 48 64 87 59 49 58 84 99 99 99 90 71 81 81 80 86 85 80 85 89 84 96 100 100 100 93 83 65 67 76 82
37 46 45 55 53 39 40 46 50 47 43 46 50 47 54 67 85 88 98 100 98 98 98 99 73 76 82 79 91 88 85 92 98 99 100 100 100 100 93 85 80 84 83 82
38 41 50 46 51 45 40 40 36 38 42 47 50 53 73 97 99 99 98 92 92 94 98 99 98 86 85 78 84 88 92 81 90 99 93 100 100 100 99 98 98 99 100 96
52 50 56 49 48 50 46 40 41 40 43 46 49 58 66 84 100 92 92 99 99 97 98 98 97 98 98 100 82 84 83 85 86 95 93 90 96 99 100 100 100 100 98 99
56 45 62 87 87 76 59 48 47 49 50 51 60 67 75 86 95 89 90 92 95 94 96 100 99 98 98 100 99 79 74 82 81 91 98 97 92 88 93 96 100 100 99 97
53 48 52 56 62 54 50 47 56 54 53 60 71 77 88 83 91 88 86 84 86 87 91 94 99 99 99 100 99 100 76 83 67 77 89 94 94 96 76 80 92 98 95 94

GFSCGP_850_rhum_141.txt.gz
RH
12 10 13 13 18 24 39 45 45 44 46 55 59 53 47 62 58 57 59 53 51 52 53 54 50 54 54 57 58 56 59 62 68 68 68 66 64 65 70 71 69 70 68 64
11 12 10 8 11 17 19 23 22 28 54 51 59 59 53 51 58 54 53 50 49 52 51 54 49 50 52 54 56 56 56 59 64 67 62 65 67 67 67 66 70 73 72 67
14 11 11 9 9 10 12 20 23 21 58 54 55 46 62 55 56 56 57 51 53 50 49 56 53 48 48 52 55 54 55 58 60 63 62 62 66 67 66 68 71 72 69 62
17 14 13 13 10 9 12 10 12 18 35 41 54 40 47 47 59 57 53 57 55 57 54 50 56 48 45 47 52 56 56 59 60 65 65 64 62 64 65 65 65 68 68 69
16 15 15 16 13 9 11 12 12 20 39 52 56 47 31 49 47 52 55 52 52 56 54 50 49 44 42 46 50 52 55 60 64 62 67 63 65 66 68 67 66 66 70 74
15 14 13 13 12 9 21 30 43 47 54 45 41 44 22 30 40 40 46 52 50 52 56 52 47 50 46 48 50 51 54 56 64 64 66 68 68 70 71 67 65 65 70 72
15 14 13 13 14 12 19 27 40 42 49 39 32 43 24 32 38 41 45 50 53 50 55 54 50 48 48 48 47 47 50 54 60 65 66 69 69 70 67 70 67 66 67 68
18 16 14 12 12 13 14 21 22 33 40 32 29 24 20 37 45 58 59 58 57 54 52 56 48 47 48 47 45 48 50 50 57 63 63 64 68 63 66 69 69 67 66 67
21 18 14 12 12 12 16 21 14 20 24 21 23 29 33 38 44 53 56 57 57 58 53 56 57 50 47 47 46 44 46 47 53 60 65 65 67 62 64 66 68 69 69 69
17 19 15 12 11 15 13 14 16 19 26 24 26 43 28 42 38 43 51 58 60 62 63 61 54 50 47 47 46 46 46 46 48 52 59 64 67 68 65 67 69 69 71 70
13 20 18 14 14 14 16 17 24 20 24 18 21 23 33 36 37 37 45 59 64 62 65 59 50 50 51 49 48 46 46 47 51 55 57 61 66 70 70 69 68 66 68 72
14 15 19 16 16 15 14 15 17 16 32 35 30 21 30 35 35 40 51 60 69 52 61 58 55 54 54 55 55 53 50 52 53 53 56 53 60 67 68 71 69 67 65 69
18 16 23 17 14 14 15 20 20 19 22 34 21 19 33 40 42 46 46 60 66 59 59 59 57 58 59 58 58 58 57 55 56 55 47 40 45 59 60 66 68 68 67 69
16 18 19 19 17 14 18 17 23 18 21 22 20 16 33 39 40 42 50 65 66 72 68 69 63 61 61 60 61 62 65 68 70 64 56 55 58 61 62 62 56 62 63 63
17 21 22 20 16 12 16 18 24 19 19 23 19 28 22 37 40 40 54 71 71 75 72 63 67 67 67 68 67 67 67 68 71 73 67 66 68 70 72 73 67 64 66 54
17 28 22 21 16 15 17 18 19 19 21 24 23 25 30 40 55 58 61 68 71 76 79 71 68 68 69 73 72 70 70 68 69 72 76 76 80 78 73 72 75 68 70 71
25 24 23 23 23 21 22 19 23 23 24 20 27 20 41 46 48 51 58 74 78 79 71 70 70 71 69 69 70 73 71 67 67 70 71 77 87 93 81 83 81 76 76 64
34 34 31 33 28 28 19 24 25 26 27 27 26 27 36 39 54 58 55 57 64 68 59 67 72 77 75 69 62 58 57 58 58 59 62 66 74 81 87 83 89 84 80 73
36 33 36 34 27 27 26 31 30 28 26 31 29 28 40 68 62 51 46 52 70 71 65 70 77 78 76 66 60 67 67 66 66 66 67 68 71 63 57 77 86 91 88 87
26 38 26 36 30 32 20 29 28 24 25 24 32 31 45 60 36 31 38 44 60 67 73 78 80 75 68 63 76 75 73 70 70 66 62 60 62 67 69 83 79 90 96 99
31 33 35 31 26 23 22 29 29 29 20 25 34 40 59 53 45 48 54 61 73 82 87 97 98 98 77 86 81 84 79 78 76 74 72 65 60 60 64 67 89 99 99 100
34 35 34 39 39 30 26 37 29 25 34 35 46 52 60 68 56 66 86 98 98 95 96 98 98 98 87 87 82 99 84 73 80 84 80 77 86 99 95 95 99 98 100 100
34 29 36 35 26 40 37 35 41 35 44 46 42 42 49 62 81 90 95 97 90 99 96 92 96 98 96 92 91 95 75 83 85 89 98 96 98 100 99 100 99 100 99 100
48 47 41 39 44 41 43 51 42 40 40 39 42 45 60 80 90 92 96 84 85 85 88 89 94 98 97 98 100 84 80 83 85 86 94 96 99 100 100 100 100 100 100 100
48 53 54 49 58 59 53 55 52 45 45 45 46 48 57 80 88 93 84 86 94 92 96 95 96 95 92 97 98 83 78 82 82 82 83 85 98 98 99 99 100 100 100 100
50 52 51 32 51 43 42 54 47 46 47 46 47 58 78 87 85 93 93 82 85 90 94 96 94 94 96 99 100 91 85 83 85 73 68 91 88 98 97 95 100 100 100 99

GFSCGP_850_rhum_144.txt.gz
RH
12 11 13 12 14 17 26 30 32 29 28 35 38 40 36 41 46 48 42 50 38 39 41 47 54 58 64 70 76 79 85 91 88 88 82 78 70 72 74 79 91 66 84 59
10 11 9 10 12 17 22 26 27 20 29 30 35 41 33 35 42 41 43 38 37 36 38 44 50 53 59 68 75 82 80 88 68 89 86 77 74 70 72 79 90 83 84 69
8 7 7 9 12 17 19 22 22 24 31 30 33 39 32 34 38 43 41 41 38 34 36 40 46 49 53 62 72 73 55 74 62 89 94 73 88 84 86 82 84 82 78 86
8 7 8 8 12 14 20 16 17 21 28 23 37 34 26 27 38 39 40 43 41 40 39 42 44 50 53 58 67 74 52 55 60 59 86 86 73 71 69 72 75 80 68 89
11 11 10 9 8 10 16 13 14 18 21 25 33 27 28 27 30 33 37 38 38 40 40 41 44 47 52 58 63 71 53 54 72 60 73 87 73 71 74 76 79 80 82 71
11 10 9 6 8 8 10 16 21 23 21 30 23 25 19 23 26 26 26 33 36 37 41 42 44 47 54 57 62 69 55 53 57 60 60 64 80 81 74 81 78 76 76 81
12 12 9 10 11 10 8 13 27 26 28 27 24 25 21 16 24 26 29 33 35 37 39 43 48 55 56 57 61 65 59 51 54 59 61 60 64 81 92 78 77 70 70 72
13 13 10 9 11 11 10 12 19 29 23 20 21 19 16 18 27 35 40 38 41 38 37 42 44 52 59 56 62 65 72 52 53 55 58 61 63 89 84 86 75 77 74 73
12 12 8 9 9 10 11 15 12 14 15 18 17 17 13 18 28 31 37 39 40 41 38 40 44 48 62 58 63 67 71 72 59 54 56 59 60 65 82 84 84 82 86 77
11 15 9 9 10 10 11 10 16 14 20 22 15 18 18 25 27 30 32 36 40 44 44 41 44 44 50 60 60 68 71 63 74 77 65 60 59 60 63 81 90 90 83 89
11 12 11 11 12 11 12 13 12 11 12 16 17 15 12 18 23 26 28 34 38 45 49 49 48 49 50 59 63 70 70 78 83 85 84 79 83 69 58 62 65 69 89 93
11 11 16 12 9 9 9 10 10 14 18 15 14 15 12 13 20 23 30 36 43 49 53 57 58 57 56 60 66 66 74 79 81 82 88 83 74 93 88 59 55 59 65 90
11 14 18 17 12 12 12 10 10 10 10 16 18 15 15 22 26 28 28 38 47 52 58 62 64 69 70 71 75 74 74 81 79 93 88 83 85 93 93 90 72 65 58 61
14 12 15 16 14 11 14 12 11 11 14 14 13 13 16 20 27 28 34 41 46 56 61 63 66 71 77 80 84 87 84 82 90 86 88 86 58 82 89 94 96 96 68 74
14 17 14 13 13 11 12 12 13 14 13 16 14 15 13 13 16 23 34 47 50 54 60 70 74 82 87 89 90 94 93 95 95 88 91 91 77 91 96 95 96 96 98 95
14 19 16 17 13 12 12 12 12 13 12 13 13 14 11 19 20 26 37 45 48 54 61 70 79 85 67 59 59 83 93 97 94 90 79 95 92 84 96 99 97 100 98 96
24 16 23 21 14 14 17 14 12 12 12 13 14 13 17 28 36 36 35 41 47 54 62 70 80 85 87 59 62 63 64 64 69 75 82 92 98 99 100 100 98 98 94 97
34 27 21 20 20 27 15 14 12 12 13 13 14 17 24 24 33 36 37 39 48 51 64 76 85 90 87 73 78 62 69 60 55 59 60 71 85 68 76 95 94 93 92 94
28 29 22 28 24 17 16 17 18 17 16 16 17 19 26 37 35 44 46 46 48 55 67 80 86 94 85 91 66 59 57 75 63 70 58 57 58 58 60 62 90 95 96 88
33 34 32 22 24 26 16 13 15 14 23 16 18 19 23 30 22 29 49 55 62 68 78 84 85 93 97 78 67 68 79 70 92 68 60 57 56 55 57 58 58 68 97 86
34 32 26 27 23 17 14 18 18 25 19 13 17 19 23 26 34 60 62 63 68 76 86 90 92 99 78 68 67 85 82 97 68 67 70 69 68 69 67 59 61 63 89 88
29 28 25 24 24 24 16 21 21 16 20 19 19 23 32 37 61 61 64 71 75 80 86 88 89 98 92 79 88 90 100 76 85 82 77 71 72 84 92 98 99 92 96 84
32 25 24 22 21 30 20 16 18 22 23 28 30 38 38 48 52 60 64 70 77 82 83 87 95 100 100 99 98 98 99 98 92 78 72 66 65 88 98 99 99 98 98 97
31 37 29 32 30 28 24 34 32 29 29 36 34 41 43 50 60 62 67 75 85 94 95 95 99 98 97 97 99 100 96 99 85 77 78 68 73 87 100 99 99 100 100 98
31 41 30 30 48 39 29 34 36 40 45 46 51 52 53 53 60 67 76 86 90 96 90 91 93 96 96 97 97 97 82 96 98 96 97 73 71 92 92 98 100 100 100 100
33 31 34 21 47 38 30 38 46 49 50 54 56 59 60 61 67 71 78 87 92 90 90 94 93 91 90 92 98 94 84 98 98 92 99 86 79 83 85 96 100 100 100 99

GFSCGP_850_rhum_147.txt.gz
RH
9 10 10 9 10 12 20 27 35 32 24 27 27 28 29 33 38 37 35 31 31 34 35 38 42 45 50 58 67 72 72 84 82 82 74 66 61 60 60 58 77 78 75 79
9 10 7 7 8 10 15 19 30 24 20 21 21 26 23 27 32 34 34 31 33 31 34 36 40 44 49 57 65 74 76 88 87 80 73 63 59 59 58 62 82 77 75 79
8 7 6 7 9 12 14 17 20 21 23 20 19 23 32 23 27 31 32 33 29 32 33 34 37 40 45 56 66 76 80 87 90 77 80 80 69 70 65 76 75 78 79 79
8 6 6 6 9 8 13 13 16 21 21 23 26 32 63 24 26 30 30 31 32 30 32 33 35 38 40 48 64 72 85 87 92 84 76 79 72 66 64 66 67 74 85 84
9 7 6 8 6 6 10 10 13 15 17 18 17 22 28 21 24 26 28 29 30 30 30 32 32 36 37 44 56 68 84 84 84 82 73 82 75 62 66 62 65 69 82 82
10 8 7 7 6 5 6 10 13 13 16 22 16 27 25 25 19 21 22 25 27 31 30 32 34 36 38 43 52 62 80 56 76 75 56 84 79 68 65 69 76 74 68 76
11 9 8 7 6 5 6 9 18 23 21 20 20 30 22 17 17 17 19 21 24 26 30 33 35 37 40 44 50 57 78 74 56 76 78 77 88 76 75 81 76 79 69 65
12 12 8 7 8 9 8 7 13 28 21 16 19 21 16 14 16 18 22 26 27 26 27 32 34 39 43 47 52 55 71 84 86 88 76 75 90 84 82 78 73 65 62 69
10 10 7 7 7 8 9 8 6 11 19 22 34 22 13 13 15 17 22 27 29 27 27 31 34 42 48 51 52 56 64 82 79 83 89 88 72 69 75 74 76 72 76 67
10 13 7 7 7 7 8 8 8 10 24 27 34 23 15 14 14 17 22 25 27 31 29 31 35 38 48 52 53 58 61 76 83 81 84 89 92 74 69 83 83 73 70 73
9 10 11 8 9 10 9 11 9 9 12 13 14 13 10 19 17 19 21 25 27 32 33 33 36 37 44 53 51 60 66 68 78 82 79 83 86 88 94 90 88 73 77 82
10 10 13 10 8 7 8 8 9 12 16 12 13 13 9 11 14 16 23 27 29 31 38 38 40 42 41 48 53 57 64 66 72 77 82 83 84 83 82 90 88 91 89 82
10 12 14 12 10 8 9 9 8 8 9 14 18 12 11 11 11 17 23 28 33 36 41 45 48 50 49 50 55 57 59 65 69 79 83 86 86 85 84 84 87 88 87 90
15 12 13 13 13 10 12 10 9 9 13 12 11 18 15 15 16 18 21 28 33 36 43 46 52 61 64 64 69 70 68 67 74 75 82 83 90 86 83 85 87 88 83 85
13 17 14 11 11 14 11 9 9 11 11 13 16 11 10 14 16 19 23 31 35 42 43 49 56 69 74 78 81 83 80 82 79 83 84 87 86 93 74 81 84 85 90 90
13 18 15 15 11 12 14 9 9 10 10 11 11 19 11 11 11 13 23 32 36 39 42 49 61 71 76 82 84 84 85 86 88 89 90 88 87 92 92 81 83 84 84 90
26 18 18 19 13 12 15 12 10 10 10 11 13 11 9 13 16 15 20 31 36 39 44 53 62 66 76 83 90 93 94 96 97 98 97 97 92 92 94 92 89 92 90 91
26 30 21 19 20 34 12 9 9 10 10 9 10 10 12 16 17 21 22 26 35 41 46 55 64 73 88 85 84 90 91 96 95 95 97 98 98 97 96 96 94 94 93 88
18 31 28 26 27 37 15 14 14 13 12 9 10 12 12 23 27 34 33 33 38 39 48 61 67 78 88 88 88 91 93 93 93 92 98 97 94 86 94 96 96 96 94 93
18 27 34 27 34 39 29 12 11 10 16 10 12 14 16 25 24 20 32 34 38 44 57 64 66 78 84 95 89 87 91 90 89 100 81 58 52 52 51 54 54 62 83 95
27 29 38 31 31 29 20 18 13 18 18 11 14 15 17 23 32 39 40 42 46 52 62 65 68 74 84 94 93 98 92 90 97 88 75 62 57 50 49 52 57 62 64 74
32 38 30 38 38 30 16 17 16 20 16 13 14 16 17 24 46 45 45 50 50 58 69 70 72 80 94 99 98 99 96 99 94 94 82 60 58 58 58 64 74 81 92 98
38 25 23 24 24 26 26 16 13 17 18 19 20 23 22 28 37 40 44 50 55 59 61 64 68 91 94 97 98 98 96 96 99 96 67 67 68 68 72 90 98 98 99 99
42 23 21 30 22 22 20 19 15 18 18 23 23 27 26 31 36 40 45 48 58 70 79 85 87 94 93 98 100 98 94 94 92 98 82 71 68 62 89 100 100 100 100 100
69 35 25 28 27 30 27 20 23 21 25 28 29 32 32 32 40 42 53 66 70 76 79 84 86 92 98 96 99 96 92 95 92 97 95 86 69 72 79 93 99 100 100 100
53 36 26 26 25 33 32 27 28 32 34 37 38 41 43 40 46 56 64 72 78 86 94 97 98 98 96 98 93 97 98 92 98 92 93 84 72 68 69 90 99 100 99 100